GFSSGP_250_rhum_000.txt.gz
RH
12 15 18 17 17 15 14 24 88 99 100 100 100 100 100 100 100 100 100 100 97 98 99 97 99 91 96 72 77 66 62 73 68 62 61 60 48 49 58 57 46 42 31 25 38 65 74 58 37
12 12 15 21 20 17 16 15 89 100 100 100 100 100 100 100 100 100 100 100 94 100 100 99 96 83 90 95 77 80 77 74 60 69 74 55 57 72 69 50 55 36 32 44 66 80 64 53 32
10 12 13 18 24 21 19 16 87 100 100 100 100 100 100 99 100 98 100 100 99 100 100 100 100 93 86 95 95 93 73 57 82 68 53 77 93 83 56 46 48 43 56 81 90 73 59 42 29
13 13 15 13 17 23 19 17 72 100 100 100 100 100 100 100 97 82 94 100 100 100 100 100 94 100 77 88 82 73 64 79 55 80 94 100 90 64 57 57 61 71 84 96 84 64 54 38 21
14 16 18 22 20 23 20 14 16 98 100 100 100 100 100 100 100 95 99 100 100 100 99 81 78 79 50 62 91 91 84 69 98 100 95 90 73 61 54 61 61 70 89 88 72 64 47 28 19
17 18 17 16 18 23 23 17 14 30 96 100 100 100 100 100 100 100 100 96 92 93 80 71 59 59 65 80 100 100 97 97 100 93 87 81 64 60 64 79 93 93 94 80 75 60 32 22 40
17 19 20 19 22 30 27 22 20 20 65 100 100 100 100 100 100 100 100 98 90 85 89 87 84 88 100 100 100 100 94 98 99 100 74 56 66 72 89 82 100 99 82 66 75 70 39 56 53
28 27 28 31 32 36 32 33 55 52 78 100 100 100 100 100 100 100 100 100 100 94 99 100 100 100 100 100 100 100 100 100 96 97 78 61 98 100 100 100 98 90 89 86 64 61 67 65 35
39 32 32 36 39 39 42 47 54 38 100 100 100 100 100 100 100 100 100 100 100 100 100 100 100 100 100 100 100 96 100 94 71 84 81 81 100 100 100 100 89 90 78 64 59 64 68 49 26
59 54 45 45 63 49 47 57 69 81 83 100 100 100 100 100 100 100 100 100 100 100 100 98 100 100 94 100 100 98 86 86 95 100 100 100 100 100 98 94 93 72 56 52 58 58 72 45 23
62 81 79 82 72 76 59 48 54 72 100 100 100 100 100 100 100 100 100 100 100 100 100 100 96 100 100 100 100 94 91 90 100 100 100 100 100 99 69 57 70 57 61 61 74 58 47 33 18
70 86 100 100 94 88 88 62 94 90 72 97 100 100 100 100 100 100 100 100 100 100 100 100 100 100 100 93 98 96 100 100 100 100 100 99 85 59 39 24 24 50 62 71 83 29 19 20 21
100 97 100 100 100 100 100 100 100 98 100 100 100 100 100 100 100 100 100 95 99 99 99 100 100 100 100 96 100 100 100 100 93 77 59 55 44 42 47 49 47 26 29 30 33 27 23 22 23
98 90 88 95 98 100 100 100 100 100 100 100 100 100 100 100 100 100 100 97 94 100 100 100 100 100 100 100 100 100 90 98 92 88 76 84 67 77 70 64 44 52 45 38 33 29 26 23 34
93 96 99 99 100 100 100 100 100 100 94 93 90 100 100 100 100 100 100 91 99 100 100 85 81 84 74 94 86 82 80 97 97 81 73 66 56 88 98 89 52 43 41 35 31 27 24 25 32
87 95 99 90 94 95 93 97 99 99 93 87 100 100 100 100 100 100 100 99 93 99 90 83 76 65 64 78 89 100 100 100 99 84 77 94 96 98 100 93 44 45 44 36 27 24 24 29 39
79 99 100 97 84 78 74 74 72 75 76 76 75 74 78 76 71 74 85 80 67 64 59 50 70 80 86 84 100 100 100 100 100 100 85 100 100 100 90 60 38 35 28 23 22 26 36 40 37
60 61 70 79 83 79 70 64 44 45 52 54 50 44 40 37 31 27 29 41 57 67 77 84 89 100 100 92 94 100 100 100 100 100 100 100 98 83 67 37 32 25 21 27 35 38 36 33 32
21 20 18 11 14 25 39 46 42 34 15 9 8 16 20 32 57 69 76 79 80 76 76 78 85 86 87 91 99 100 100 100 100 100 98 76 64 53 31 27 22 25 35 37 36 37 36 35 35
7 7 8 14 21 19 17 15 12 18 39 59 68 73 86 92 90 78 72 66 61 55 53 58 59 55 59 50 40 47 51 43 74 51 34 29 27 27 31 32 37 40 38 35 32 30 33 36 42
25 21 19 17 15 23 35 51 84 90 89 88 84 82 71 53 47 44 44 41 39 36 40 37 30 27 27 26 25 24 24 24 24 22 24 32 40 46 46 46 41 37 35 34 38 40 40 39 35
36 42 41 43 68 89 90 76 69 60 55 49 41 32 26 23 20 20 21 21 22 24 26 29 26 22 22 22 21 22 24 26 33 41 47 47 46 44 40 39 36 35 37 37 32 32 43 56 58
58 76 73 63 48 38 37 32 26 28 20 20 20 18 18 22 27 33 30 29 32 35 37 30 30 38 40 38 38 37 36 34 33 34 36 34 34 36 39 42 42 38 39 52 68 68 61 55 49
42 27 23 22 22 28 27 25 25 24 23 25 27 30 42 50 50 44 39 39 42 41 39 34 31 31 29 28 32 36 38 37 38 39 43 46 46 44 46 50 58 69 64 58 56 49 42 40 36
23 23 26 27 27 30 28 29 32 33 42 52 52 48 44 46 47 52 55 46 43 40 40 40 39 39 40 39 38 38 37 39 42 44 46 51 57 69 78 75 63 55 53 48 44 36 31 33 29
21 20 22 26 34 38 41 48 52 51 47 44 47 50 55 58 60 55 49 51 49 45 42 41 43 42 40 38 37 37 38 45 56 64 74 81 78 69 60 52 49 49 45 41 38 29 18 15 12
50 52 49 46 40 40 41 44 45 48 49 54 60 60 57 52 53 52 46 45 42 40 41 42 43 43 44 42 43 53 72 87 88 79 70 60 55 48 47 53 54 44 40 30 21 14 12 8 7
48 43 45 46 46 44 47 47 49 52 51 50 49 47 44 41 37 37 37 40 47 53 47 43 45 50 51 58 68 72 73 71 66 60 49 44 52 57 53 48 41 31 24 17 13 9 7 6 6
44 46 54 54 55 51 55 55 53 48 44 41 38 36 34 33 37 40 48 54 56 58 52 45 44 46 49 56 58 58 60 60 54 48 52 62 62 62 51 45 35 23 16 12 8 7 6 6 5
58 57 59 59 59 57 52 48 44 43 42 40 40 43 42 41 39 37 43 46 50 46 41 42 47 50 51 52 56 61 60 54 50 54 64 62 74 62 54 37 24 15 12 8 7 7 6 5 4

GFSSGP_250_rhum_003.txt.gz
RH
10 10 11 13 16 19 18 19 20 19 20 22 41 61 92 100 100 100 100 100 100 100 100 98 100 100 100 91 93 95 100 91 98 68 89 78 78 74 75 61 58 74 60 37 29 29 25 46 72
11 11 12 12 15 20 21 22 22 22 20 36 59 88 100 100 100 100 100 100 100 99 100 100 100 99 99 100 100 89 91 100 96 92 81 56 61 70 63 60 74 59 41 32 29 39 45 73 90
8 10 10 10 13 16 21 22 23 23 23 62 99 63 100 100 100 100 100 96 100 100 100 100 100 100 98 97 90 99 100 100 89 75 58 49 75 65 99 99 54 44 39 45 41 55 66 96 83
8 7 8 11 11 12 17 19 22 24 26 22 24 100 100 100 100 100 100 100 98 77 86 100 100 98 93 98 74 71 83 74 57 44 62 66 63 90 91 74 67 43 50 47 65 71 99 95 68
9 9 10 10 10 11 12 16 17 21 26 23 21 77 100 100 100 100 100 100 100 100 100 100 79 94 88 86 70 68 67 57 57 75 100 68 98 84 96 65 60 39 68 59 73 93 92 72 70
16 13 14 15 13 11 13 15 16 21 27 25 24 74 100 100 100 100 100 96 97 100 100 100 97 94 85 87 97 81 55 94 100 92 91 100 100 83 68 61 54 73 83 75 78 86 87 67 54
19 20 18 17 17 16 17 19 19 25 27 26 22 24 100 98 100 100 100 100 100 100 100 100 100 100 89 97 94 96 100 98 83 96 97 99 65 68 72 66 86 78 83 79 96 77 75 62 43
23 25 28 24 22 24 24 28 28 28 29 29 30 40 72 87 100 100 100 100 100 100 100 100 100 100 94 88 93 90 99 96 100 88 81 70 73 100 91 84 74 95 100 79 80 60 51 46 46
31 41 48 43 40 37 33 31 34 34 37 39 42 61 100 100 100 100 100 100 100 100 100 100 88 82 99 100 100 100 100 98 79 94 100 100 95 97 100 98 100 95 94 77 38 24 25 20 40
55 64 65 59 56 68 61 55 44 44 51 47 86 68 100 100 100 100 100 97 98 100 100 100 100 100 100 100 100 92 95 100 100 95 99 96 94 96 100 91 89 92 59 33 30 27 20 15 45
82 78 83 86 77 75 80 79 75 74 72 67 70 99 100 100 100 100 100 100 100 100 100 99 100 100 99 100 81 89 100 97 94 99 100 100 96 100 100 88 62 56 42 43 38 41 24 22 21
84 100 100 98 100 100 93 92 96 90 69 72 71 84 98 100 100 100 100 100 100 100 100 100 100 96 79 90 100 99 97 100 92 98 100 100 99 85 69 54 52 60 59 44 53 53 48 36 30
100 100 100 100 100 100 100 99 93 93 84 67 96 96 93 100 100 100 100 100 100 100 100 100 100 90 99 99 100 95 92 94 100 100 100 94 96 78 66 60 58 50 35 44 68 68 69 52 36
100 100 100 100 100 100 100 100 100 99 92 87 84 80 100 100 100 100 100 100 100 100 100 90 80 88 99 96 97 98 100 100 100 100 100 93 93 72 67 51 51 44 50 63 79 83 84 74 51
100 95 100 100 100 100 100 100 100 100 100 100 100 100 100 100 100 100 81 77 90 86 100 100 100 100 91 96 100 100 100 99 100 96 96 80 63 53 51 51 56 69 58 97 85 97 92 81 58
94 100 100 100 100 99 97 100 99 99 99 94 100 100 100 99 100 100 98 96 89 99 100 100 98 98 89 73 79 85 95 82 74 88 100 99 100 81 94 85 100 100 100 94 100 94 83 64 47
100 100 90 91 100 100 100 100 98 95 92 96 100 100 100 99 92 83 77 78 84 77 71 66 63 60 60 62 77 73 73 78 97 100 100 100 100 100 100 100 100 100 100 100 89 76 48 45 46
100 100 100 100 100 100 95 94 85 75 70 58 53 64 73 76 68 42 31 26 25 28 39 54 67 72 78 100 69 68 70 80 97 100 100 100 100 100 100 100 100 100 100 92 48 44 52 55 50
100 100 99 94 85 79 75 66 63 68 64 51 32 23 21 21 19 29 37 60 68 78 80 83 79 73 69 59 60 68 75 71 74 88 77 66 62 69 87 89 56 46 35 45 58 55 50 45 44
66 46 30 24 19 16 17 20 30 36 40 39 36 30 25 30 37 65 85 76 63 51 46 42 38 32 28 32 38 38 38 40 41 39 37 36 34 32 29 33 47 60 58 54 50 45 50 61 56
16 8 6 9 12 20 24 28 34 36 28 27 42 56 66 70 64 46 31 24 25 23 20 22 26 27 27 31 33 36 35 30 31 37 43 51 53 54 54 53 53 51 47 46 48 44 40 40 41
16 24 26 24 30 49 77 93 99 86 74 68 53 34 25 21 20 21 23 28 29 29 31 38 39 44 47 52 55 50 48 47 43 42 41 41 43 42 41 39 40 42 42 42 46 51 49 47 44
26 36 50 67 98 94 81 63 57 49 34 20 17 20 29 35 34 37 44 49 50 53 53 50 44 42 40 37 36 37 36 36 35 34 34 34 34 35 36 38 44 48 51 53 48 49 50 50 51
56 82 84 50 32 33 25 20 17 17 22 26 32 39 47 54 51 45 44 46 47 48 46 44 45 43 40 36 35 33 33 33 33 34 34 33 34 42 48 52 55 53 50 51 54 58 54 48 45
46 33 24 21 22 21 23 24 26 31 37 52 57 51 49 47 48 53 57 56 52 46 40 37 35 33 31 28 26 26 27 28 30 31 33 48 53 59 63 59 58 59 59 62 62 54 51 42 32
22 24 24 25 31 38 44 51 58 57 53 52 56 59 59 61 61 53 42 34 32 34 37 39 37 34 33 35 37 37 37 40 48 58 68 74 72 64 59 60 60 57 68 70 52 39 28 18 14
28 39 53 64 68 64 62 60 58 57 53 51 56 60 53 40 35 34 34 39 40 37 36 35 40 47 54 65 78 85 91 89 86 77 66 59 56 55 56 56 65 72 62 53 29 21 16 11 8
54 52 55 57 54 53 50 50 52 51 53 52 48 42 37 36 38 39 44 49 54 55 56 57 64 74 80 80 76 78 73 62 58 54 56 56 56 55 63 72 82 69 51 30 20 16 11 8 7
49 46 44 45 49 52 56 56 52 49 46 44 44 42 42 46 44 47 59 68 70 77 80 75 70 64 58 50 51 49 44 46 54 61 57 62 58 69 81 77 70 56 43 25 17 11 8 7 6
58 58 56 56 59 63 61 56 51 47 48 49 48 48 50 55 59 60 60 65 71 76 70 70 68 57 47 42 40 41 47 54 56 54 57 56 71 79 76 76 63 49 29 18 12 9 7 6 5

GFSSGP_250_rhum_006.txt.gz
RH
7 10 12 13 14 16 15 14 15 16 17 21 23 24 25 30 37 36 33 45 77 98 98 92 92 88 100 100 94 94 100 90 100 99 96 94 90 69 93 81 63 53 55 54 46 68 57 38 35
7 7 8 11 16 16 14 17 17 19 19 20 24 27 30 52 96 46 92 93 100 100 97 69 96 96 97 95 91 95 94 96 90 99 94 90 85 64 62 60 54 71 60 52 47 61 42 42 59
7 7 8 10 14 14 15 17 19 19 20 19 22 30 30 31 87 85 100 97 100 88 98 99 100 100 100 99 96 98 98 100 100 98 74 71 69 67 70 78 87 69 69 49 60 41 42 58 52
8 8 8 9 11 13 15 15 16 17 17 17 20 24 36 29 27 61 100 100 100 89 97 100 100 100 100 98 100 100 85 100 79 66 90 56 68 94 70 93 76 69 64 62 59 57 65 61 59
8 8 9 8 9 10 12 14 14 14 15 15 16 22 26 30 27 37 72 100 100 100 100 100 99 87 100 100 93 99 100 82 64 92 91 100 72 86 86 78 73 48 54 76 75 65 71 59 71
9 10 10 11 11 9 9 11 11 11 10 13 14 18 20 29 32 42 75 100 100 100 100 100 100 100 100 100 100 91 76 94 97 96 81 90 100 100 73 73 85 92 86 83 74 74 76 77 79
18 18 17 19 16 12 11 11 13 13 12 13 14 20 28 29 37 73 42 100 100 99 99 100 100 100 100 100 100 100 100 100 93 80 100 89 94 100 66 82 89 98 86 76 67 78 92 90 74
22 23 25 25 19 16 17 18 17 17 17 18 19 25 38 39 36 69 100 100 100 100 100 99 96 100 100 97 89 100 100 98 100 100 100 100 99 96 80 96 91 87 78 71 77 96 65 70 45
24 25 30 36 33 32 25 29 31 34 33 38 40 39 40 60 82 55 92 100 100 100 100 100 100 100 100 100 98 100 100 100 100 100 97 85 99 92 82 93 85 74 69 81 81 72 69 48 38
39 39 44 58 62 66 50 50 48 53 54 54 86 46 64 58 67 92 75 100 100 100 100 100 100 100 100 100 100 100 96 88 92 100 83 100 97 98 95 87 73 73 77 86 67 51 45 42 39
76 68 70 72 83 87 73 76 75 73 70 69 66 67 73 61 61 70 100 100 100 100 99 100 96 90 86 100 100 100 100 100 100 100 93 100 92 80 89 78 70 77 81 51 49 42 43 34 33
94 100 98 100 100 96 94 100 94 92 91 86 69 75 71 64 67 86 93 100 100 100 100 100 100 100 100 100 100 100 100 100 97 98 94 83 80 80 96 95 89 77 67 64 55 46 39 35 28
100 99 100 100 95 100 98 97 100 100 100 97 99 89 83 74 86 94 100 100 96 99 100 100 100 100 100 100 100 100 97 91 96 97 86 79 86 83 97 82 90 84 73 76 49 32 32 36 48
100 100 100 100 100 100 100 100 100 100 100 100 100 100 91 73 92 100 95 100 100 100 100 100 100 100 100 100 91 99 84 100 100 99 92 87 100 100 100 75 65 55 41 41 36 41 59 92 93
100 100 100 100 100 94 94 100 100 100 100 95 97 90 100 100 95 100 99 100 100 97 99 100 90 75 62 83 100 100 79 77 94 93 76 87 91 85 79 82 73 72 86 72 98 100 100 100 100
100 100 100 94 98 100 100 100 100 99 92 96 93 86 84 100 100 100 100 100 100 100 99 100 93 99 97 94 89 83 74 92 73 76 67 73 63 76 99 100 100 94 100 100 100 100 100 98 92
100 100 100 100 100 98 100 100 100 100 100 100 97 97 92 92 99 98 91 92 94 78 74 73 73 71 65 58 65 79 74 93 100 100 73 62 84 100 100 100 100 100 100 99 84 75 61 45 38
100 100 100 100 100 99 100 100 100 98 97 95 88 87 83 78 79 87 92 88 71 55 39 26 34 52 65 65 74 86 93 88 66 46 32 33 36 38 45 48 55 71 58 41 34 34 40 48 54
100 100 100 100 100 100 100 100 100 99 93 91 82 70 63 47 31 24 33 39 32 37 41 54 64 65 64 54 47 39 32 28 25 23 24 27 32 34 35 37 40 46 49 52 51 51 54 58 54
100 100 100 100 97 87 87 85 77 63 47 40 44 49 50 43 34 41 48 56 60 65 66 57 42 32 20 19 20 22 26 33 37 40 47 53 57 56 55 52 50 53 54 53 53 48 48 50 63
100 100 88 59 39 25 21 15 9 15 32 31 27 23 28 47 65 76 71 60 44 28 20 19 23 30 38 43 48 50 50 52 53 54 54 53 52 53 54 53 52 52 51 48 48 57 63 51 44
67 54 34 10 8 15 15 22 26 25 27 38 59 71 66 44 35 22 19 20 24 31 40 49 53 54 56 54 52 52 51 50 53 55 56 56 56 52 49 49 48 47 43 43 49 43 43 48 50
21 15 11 22 27 25 31 39 42 67 70 37 22 20 20 19 24 31 40 47 49 50 55 56 52 48 46 45 41 37 34 34 34 34 33 32 32 32 34 38 44 48 47 42 43 49 54 57 61
19 28 39 49 54 64 60 67 57 25 22 24 24 28 41 44 42 44 50 55 58 52 47 43 39 35 31 30 30 30 30 32 34 31 30 31 34 35 35 35 37 40 46 53 57 64 60 68 73
69 94 90 94 66 51 27 22 20 23 28 46 47 44 44 45 52 58 51 45 43 42 40 36 34 34 35 39 41 38 38 42 41 38 39 39 39 43 49 56 60 64 64 61 58 60 72 64 55
76 65 43 30 26 26 27 36 43 49 51 49 49 50 59 61 48 44 41 37 36 33 30 33 37 39 40 48 62 67 65 62 55 47 44 43 43 46 54 64 63 54 55 62 67 60 51 43 31
24 23 26 30 43 54 52 51 47 46 51 57 64 65 52 44 41 38 36 34 30 39 50 55 59 62 65 74 87 89 87 77 65 48 42 43 51 57 57 54 57 70 72 76 71 52 42 28 17
26 45 53 56 54 49 48 50 52 57 61 64 58 55 49 46 43 42 36 34 40 49 61 67 76 80 87 81 72 66 66 59 48 49 53 53 50 53 57 66 75 77 74 63 42 33 21 16 13
69 61 57 56 58 61 67 70 66 63 60 57 53 51 49 49 52 50 45 45 47 57 66 77 92 90 80 75 72 65 58 49 49 48 47 51 57 58 66 75 65 67 51 39 30 20 17 15 11
54 52 61 71 72 72 72 74 66 63 63 60 57 56 57 56 52 53 52 46 59 74 96 98 100 92 79 78 67 60 54 55 54 55 59 61 59 65 75 68 66 48 40 27 22 18 14 10 8

GFSSGP_250_rhum_009.txt.gz
RH
5 8 8 11 12 13 14 15 12 11 16 17 19 18 18 22 22 36 36 46 42 79 85 57 64 50 61 63 48 60 79 69 85 89 80 71 69 74 77 100 100 100 81 71 58 44 44 52 43
5 6 7 12 14 12 13 13 13 15 18 21 22 21 19 23 22 24 26 38 42 56 80 86 85 74 89 89 66 83 94 90 85 98 98 93 80 87 100 100 98 82 75 76 59 58 56 47 49
7 7 8 8 10 13 13 10 12 15 18 19 20 22 25 22 23 23 25 32 51 54 70 64 93 97 100 90 92 93 83 87 94 100 88 91 74 80 82 79 70 66 74 64 57 64 56 50 57
7 8 8 9 10 10 11 10 12 12 17 20 23 25 26 24 23 21 24 28 34 49 98 100 99 100 100 100 95 100 100 97 100 89 100 100 74 75 70 67 92 84 63 64 70 72 53 66 80
9 9 10 10 12 11 11 10 12 11 13 15 16 18 20 19 20 20 19 34 51 87 87 95 100 100 100 100 100 98 100 90 96 99 99 97 81 97 90 93 97 78 78 90 92 73 97 81 64
9 10 11 12 12 11 12 11 10 13 12 12 10 12 13 15 16 17 29 42 84 100 100 100 100 98 100 100 99 100 100 100 100 96 89 84 99 98 99 100 96 100 95 61 74 94 90 80 59
8 9 11 11 11 11 12 12 10 11 10 10 9 11 21 13 12 18 38 66 100 100 100 100 100 100 100 100 92 100 100 100 100 100 100 100 100 90 100 90 82 100 93 98 95 96 69 60 58
10 11 10 13 12 11 14 11 12 10 10 9 10 21 19 13 17 26 68 85 100 100 93 100 100 94 100 100 100 100 100 98 96 100 100 100 100 100 100 100 98 100 100 100 95 75 59 68 68
19 24 22 22 20 21 38 18 12 13 11 10 98 16 21 18 24 25 42 79 100 100 100 100 100 100 100 100 100 100 96 100 100 100 100 96 91 98 100 100 100 100 94 89 78 61 64 64 75
47 46 42 34 28 51 51 28 23 18 26 37 24 32 50 91 65 97 51 86 100 100 100 100 100 100 100 100 100 100 99 100 100 98 95 100 100 99 100 100 100 97 85 69 62 65 63 73 59
51 50 43 87 88 60 55 47 46 50 70 79 79 65 84 58 98 83 84 71 94 100 100 100 100 100 100 100 100 100 100 100 100 88 81 94 100 100 100 97 85 93 88 72 71 80 70 74 74
88 81 98 94 100 100 85 82 88 87 100 100 93 81 81 89 61 58 69 89 100 100 100 100 100 100 100 100 100 100 94 80 79 90 100 100 100 99 97 100 100 96 83 73 67 68 76 85 66
100 100 100 100 100 100 94 100 100 94 97 100 99 80 78 77 74 63 64 68 76 99 100 97 100 100 100 100 100 100 100 100 100 100 98 94 100 100 100 99 93 77 70 56 56 54 48 42 35
100 100 100 100 100 94 100 98 97 99 95 86 84 94 98 88 91 82 76 77 68 68 78 97 100 91 100 100 97 94 100 97 99 100 100 94 98 97 98 79 75 73 76 62 56 45 35 39 47
100 100 100 99 100 100 99 100 100 100 100 100 100 100 96 99 100 99 79 90 100 92 100 99 99 100 100 100 100 100 91 88 77 77 91 98 79 75 68 60 61 58 48 42 43 48 64 67 98
100 100 100 100 100 100 97 93 97 99 100 100 95 86 84 81 81 100 100 89 100 100 100 100 100 100 100 76 82 97 99 100 92 84 70 58 54 54 62 55 40 32 49 67 86 95 95 97 80
100 100 100 98 95 95 100 100 100 98 95 96 90 88 100 100 95 92 100 100 100 100 100 100 100 100 99 100 92 85 80 66 42 43 47 59 70 59 34 27 26 25 29 33 38 40 39 41 43
100 100 100 99 99 93 99 100 100 91 94 98 100 100 100 100 97 99 98 97 98 96 96 96 95 88 73 64 56 46 40 49 58 58 44 28 26 27 29 34 39 40 39 37 36 38 41 44 42
100 100 94 100 100 100 100 100 80 87 100 100 94 94 90 93 93 74 63 52 40 40 43 50 55 51 46 43 48 60 43 29 24 28 31 32 30 29 28 27 30 39 45 41 45 46 45 43 45
95 100 99 100 99 91 94 98 99 95 96 93 89 86 84 78 69 62 58 48 38 40 41 41 44 55 53 34 27 31 32 31 30 32 37 41 45 46 50 57 58 56 55 53 49 44 46 54 60
96 100 100 100 100 99 83 84 82 77 71 54 31 23 29 32 32 33 35 39 52 68 67 44 30 34 37 37 36 35 36 38 38 42 45 48 53 52 52 53 50 45 41 39 36 38 45 48 50
100 100 100 96 79 71 57 34 17 15 12 17 27 30 30 46 65 75 69 40 46 37 41 42 42 42 38 35 35 38 40 37 39 40 38 36 34 37 38 36 35 33 34 34 35 36 37 40 48
100 94 93 72 52 24 10 17 65 35 53 78 70 73 66 43 22 20 33 43 44 44 40 36 35 38 39 40 41 41 43 52 56 58 60 63 62 50 40 33 30 34 36 38 44 50 56 62 74
80 69 55 27 14 14 32 58 42 66 57 39 32 24 25 37 44 40 43 42 38 37 38 39 41 44 42 44 47 53 62 67 65 59 64 71 71 64 54 49 50 53 53 55 58 65 65 64 66
45 25 22 20 26 32 72 72 51 27 30 23 27 44 44 39 42 45 40 40 41 40 40 40 43 49 54 62 69 75 76 71 67 67 70 66 61 59 60 64 64 58 55 56 55 56 58 54 48
25 29 44 69 93 70 29 27 26 31 33 47 42 38 40 44 42 42 43 43 44 41 39 42 47 51 54 64 71 72 77 77 71 68 74 70 65 60 59 59 57 55 54 54 53 51 48 44 42
67 84 92 73 35 29 39 57 54 47 43 42 41 44 48 47 47 47 47 52 51 46 40 45 56 62 58 60 66 77 93 93 89 84 82 77 67 66 67 63 54 51 53 55 54 45 47 38 32
63 49 37 36 45 62 60 54 52 50 52 52 52 52 54 56 51 50 50 53 54 50 47 46 52 52 57 73 77 85 99 98 90 84 85 71 72 74 64 55 54 56 58 58 56 50 41 30 23
33 42 64 71 67 56 52 50 58 62 62 65 63 61 59 57 56 55 58 62 61 50 44 48 60 66 81 84 80 85 91 86 80 80 77 80 72 66 64 64 62 60 62 56 49 40 31 22 15
56 78 78 71 63 62 64 70 68 71 69 68 67 67 70 75 79 80 80 77 67 47 53 65 72 77 81 83 84 86 94 84 79 80 82 71 69 69 66 66 59 66 62 45 37 34 26 16 15

GFSSGP_250_rhum_012.txt.gz
RH
5 5 5 5 6 8 10 12 12 4 14 14 14 16 17 18 18 17 23 40 52 95 73 78 56 64 55 56 63 54 74 72 85 70 89 71 62 67 90 83 76 83 68 81 81 94 81 62 47
6 6 6 5 7 8 10 12 6 7 12 9 10 13 18 20 22 21 24 40 40 48 65 33 30 36 54 53 66 76 100 98 100 96 92 77 81 72 96 81 87 91 86 74 50 48 48 44 48
7 7 7 6 6 7 10 8 8 9 10 10 13 15 17 19 18 20 24 36 44 41 40 45 52 47 49 60 75 80 97 100 97 86 94 89 98 82 100 61 63 88 76 67 64 85 66 59 64
8 8 7 7 8 8 8 6 8 10 11 14 14 17 17 16 14 16 20 38 45 68 41 54 62 78 75 100 100 100 100 99 87 100 79 92 100 80 81 72 100 83 92 96 100 100 92 77 78
8 7 7 8 8 8 8 9 10 11 20 16 30 19 15 14 15 14 20 49 52 65 95 71 90 95 94 100 89 100 100 100 100 100 100 100 98 89 100 100 76 95 100 80 81 92 68 89 94
8 7 7 8 8 9 9 12 10 17 36 39 65 41 36 22 16 14 16 17 29 59 78 100 100 99 100 100 100 100 100 100 100 100 100 100 100 100 100 100 100 99 100 98 98 94 97 100 100
8 8 9 9 10 11 14 11 15 19 30 40 38 22 43 40 29 14 12 20 20 56 100 93 100 100 100 100 100 100 100 100 100 100 100 83 100 100 85 68 99 100 99 100 93 88 100 100 99
9 9 10 11 14 16 15 12 15 24 60 30 63 45 31 38 91 42 29 32 36 74 100 100 100 100 96 86 99 100 100 100 100 100 100 99 100 100 100 100 100 100 100 88 90 100 100 99 90
9 12 20 23 19 30 34 37 72 77 43 44 38 31 61 99 89 48 87 57 80 100 100 100 100 100 100 100 100 100 100 100 100 100 100 100 100 100 100 89 100 98 100 100 100 100 96 85 76
28 28 22 20 27 59 84 100 100 88 92 62 16 49 95 100 100 88 97 66 96 100 100 100 100 100 100 100 100 100 100 100 100 100 100 96 86 99 96 100 100 97 100 98 95 95 93 86 83
61 42 38 44 36 98 100 100 97 67 54 24 85 74 100 100 100 92 100 84 100 100 100 100 100 100 100 100 100 100 100 100 100 100 100 100 100 100 100 100 100 100 100 89 87 87 93 92 73
78 68 66 80 100 94 82 92 100 96 62 78 100 95 68 67 71 75 82 94 91 100 100 100 100 100 100 100 100 100 100 100 100 100 100 100 99 100 100 100 100 92 96 100 91 100 86 62 54
88 100 100 100 100 100 95 84 68 75 62 98 100 100 100 74 77 62 86 100 100 75 100 100 100 100 100 100 100 100 100 100 100 100 100 100 100 97 100 100 99 97 87 90 80 71 60 56 52
78 100 100 100 100 100 100 100 61 90 100 100 100 100 99 100 92 70 53 64 84 100 91 100 100 100 100 100 100 100 100 100 100 100 100 100 100 100 97 82 84 90 81 69 52 51 46 39 25
100 100 100 100 100 100 100 100 76 86 94 100 100 100 100 100 98 88 78 80 77 72 94 99 100 100 100 100 100 100 100 100 100 100 94 81 59 80 89 79 73 66 46 46 48 41 22 23 26
100 100 100 100 100 96 87 89 94 100 100 90 92 98 99 98 86 88 83 96 69 67 70 80 81 78 94 100 98 97 92 78 76 76 77 93 86 73 81 62 46 45 46 30 22 25 28 29 28
100 100 100 100 95 100 96 100 100 93 100 100 100 99 75 73 73 82 97 98 98 100 100 100 99 95 100 100 100 100 95 89 88 100 96 84 75 55 48 44 34 27 29 33 34 36 34 32 29
100 100 100 92 95 100 79 100 100 100 100 100 100 70 77 88 92 100 100 100 88 92 100 100 100 100 100 99 100 100 100 98 83 69 54 46 43 37 28 27 28 26 23 21 21 22 24 27 29
100 100 79 96 98 94 76 79 74 100 100 100 98 100 98 82 100 100 100 100 96 93 85 83 78 75 80 74 57 46 39 33 36 42 37 27 25 25 24 24 25 27 28 29 31 32 32 34 36
100 100 100 98 93 100 100 100 100 100 98 80 71 78 74 76 72 73 78 73 68 64 64 60 49 44 44 43 46 49 44 32 26 25 27 28 31 33 31 34 40 44 50 49 43 37 34 34 35
100 100 89 80 86 100 78 84 79 78 80 76 82 77 75 84 77 62 47 45 39 37 40 50 59 66 46 35 29 26 25 26 26 33 38 38 41 45 50 55 61 64 60 60 55 50 49 44 45
100 82 78 74 95 100 96 79 85 86 71 50 30 17 13 13 17 25 24 39 63 74 75 49 44 34 30 28 28 28 33 47 56 61 69 70 74 78 77 75 68 63 67 60 55 51 49 48 47
72 82 72 76 100 90 97 78 70 34 19 83 60 55 55 40 72 76 66 42 38 41 42 35 31 31 31 34 41 46 42 45 51 58 69 82 82 78 75 71 66 60 55 51 50 49 46 48 48
92 80 90 99 94 84 86 38 52 52 98 96 100 99 62 43 31 24 29 40 41 36 32 32 34 33 37 37 40 43 47 47 52 62 67 74 75 68 67 68 61 63 62 58 53 51 52 51 48
99 95 87 88 72 52 26 49 62 73 89 100 100 100 46 27 41 41 38 40 34 35 36 39 43 42 44 44 42 47 54 52 66 71 75 71 65 63 66 65 65 67 63 58 55 54 49 46 45
74 72 67 54 33 34 57 91 98 65 77 67 99 67 44 49 41 38 36 36 37 37 44 46 52 58 58 52 50 52 56 64 70 76 79 78 72 68 68 66 68 65 63 66 56 50 46 43 41
41 46 34 25 51 92 96 58 39 33 35 40 57 51 48 39 37 37 41 42 43 45 49 54 66 79 75 58 51 54 63 70 72 72 75 76 69 65 70 69 68 69 73 62 48 45 46 40 32
30 36 54 94 93 60 34 37 48 58 56 52 43 43 40 36 36 40 47 54 63 68 70 72 78 92 91 74 66 59 62 70 71 77 81 74 75 83 77 79 82 77 63 54 54 53 42 33 18
68 99 84 61 39 39 50 61 55 50 46 43 41 37 35 42 48 51 53 58 62 74 71 78 78 100 100 64 61 62 68 72 76 83 80 81 86 79 78 87 84 64 59 64 55 42 33 19 11
98 66 34 36 56 70 70 65 56 49 44 43 45 48 54 55 55 59 60 62 75 75 80 90 100 98 73 69 65 69 67 78 81 79 78 77 75 78 94 88 70 64 65 56 41 28 20 14 11

GFSSGP_250_rhum_015.txt.gz
RH
4 4 4 4 5 6 7 7 6 4 5 6 6 8 13 15 9 12 18 20 37 31 31 84 78 77 93 90 69 74 79 58 43 44 64 59 62 85 73 66 72 69 50 68 64 62 47 45 71
4 4 4 5 7 7 8 8 6 5 6 7 7 9 11 14 13 11 17 23 18 21 26 44 50 58 88 88 61 55 57 52 63 52 60 81 100 98 99 92 96 81 94 83 68 39 72 77 59
4 4 5 6 7 8 8 8 7 8 7 7 9 8 9 13 16 18 22 35 28 24 33 56 60 54 61 74 75 67 55 52 47 61 90 82 99 94 100 100 100 100 98 100 66 89 95 47 38
6 5 6 6 8 9 8 6 8 8 9 12 12 11 14 16 16 20 42 81 100 88 65 68 51 75 79 90 70 68 76 82 77 71 78 100 98 100 100 94 100 98 100 67 94 100 69 100 89
8 7 8 9 10 10 10 8 9 12 12 10 17 15 16 15 13 18 38 87 90 93 87 69 82 99 100 82 98 100 100 82 88 88 90 100 100 96 96 100 100 98 100 94 93 100 100 67 97
10 10 10 10 10 9 8 8 11 9 8 11 16 14 13 15 16 20 40 89 100 100 94 76 73 100 100 88 96 100 100 95 100 100 100 100 100 100 100 100 100 96 100 100 100 94 93 88 100
10 10 10 10 10 9 9 9 18 11 10 9 14 19 16 14 29 39 44 43 54 60 73 100 100 100 100 100 100 100 98 85 69 94 100 100 100 100 100 100 100 100 83 93 82 86 100 100 86
11 11 10 10 14 12 12 12 13 11 11 13 14 14 19 26 66 82 100 72 66 62 96 100 100 100 100 100 100 91 96 98 100 100 100 100 100 100 100 97 84 99 100 99 99 100 64 100 100
16 16 19 13 15 10 21 36 27 24 25 35 31 18 44 88 90 100 93 54 72 42 73 100 100 100 100 100 100 100 100 100 100 100 100 100 100 100 100 98 89 88 100 99 100 80 86 100 100
67 60 28 14 11 29 57 94 100 58 59 39 42 60 98 100 100 100 100 100 96 73 64 100 100 100 100 100 100 100 100 100 100 100 100 100 100 100 100 99 96 100 100 96 93 100 100 100 100
89 51 38 51 29 47 82 68 53 73 64 93 71 100 97 100 100 100 94 100 100 100 100 100 100 100 100 100 100 100 100 100 100 100 100 100 100 100 100 100 100 100 100 100 100 96 81 100 100
84 53 54 34 79 100 100 100 100 74 62 93 100 100 100 100 90 100 100 100 100 100 100 100 100 100 100 100 100 100 100 100 100 100 100 100 95 100 100 100 100 100 100 100 100 100 100 89 91
92 93 80 48 100 100 87 96 100 100 99 74 100 77 98 100 100 100 100 100 100 100 100 100 100 100 100 100 100 100 100 100 100 100 100 100 100 100 100 100 100 100 100 100 100 98 80 70 64
98 100 100 100 100 100 100 100 100 100 100 100 100 96 100 100 100 100 100 100 100 100 100 100 100 100 100 100 100 100 100 100 100 100 100 100 100 100 100 100 100 100 100 93 92 88 73 66 56
99 98 100 100 100 100 100 100 100 100 99 90 98 93 99 94 99 93 100 100 100 87 80 89 100 100 100 100 100 100 100 100 100 100 100 100 100 100 100 100 98 93 98 87 82 75 72 53 37
100 100 100 100 100 99 82 100 100 78 59 68 99 96 100 99 80 71 66 58 59 64 59 96 100 100 100 99 100 99 100 100 100 100 100 100 100 98 100 90 88 85 78 59 51 48 36 27 24
100 100 100 100 100 100 100 92 94 86 100 90 99 100 100 100 100 100 100 100 82 91 86 79 79 96 100 100 99 97 99 90 91 99 100 100 100 98 93 93 79 60 48 37 31 24 22 22 24
100 100 100 100 100 82 100 84 100 100 100 100 100 100 97 91 90 93 79 82 78 93 98 92 89 92 100 100 100 100 100 98 94 97 100 100 92 73 53 46 37 30 23 22 22 23 27 34 42
100 87 100 100 78 86 94 100 84 100 100 100 76 100 100 100 94 71 74 98 100 100 100 100 99 98 93 93 100 100 100 85 81 82 81 66 45 39 32 23 22 23 27 28 30 37 42 46 42
99 78 100 100 100 79 100 100 67 94 98 100 100 100 98 100 80 80 92 76 73 84 96 97 76 82 76 71 71 69 55 47 42 38 36 29 24 26 35 41 37 38 40 45 53 59 60 57 54
92 99 100 100 100 96 73 95 100 100 100 100 98 95 88 65 66 74 79 82 81 74 73 74 64 57 48 42 44 49 43 32 28 25 24 30 35 32 37 42 47 49 54 59 60 59 55 53 51
96 89 89 97 81 71 86 100 86 88 73 65 59 76 77 70 51 28 19 14 20 25 31 38 50 58 67 48 38 31 28 26 27 30 32 35 38 48 53 50 54 56 58 53 51 52 49 48 47
90 90 90 97 77 81 71 84 77 93 66 52 44 53 81 98 65 65 65 49 62 62 53 60 49 52 39 32 29 27 26 26 25 27 32 40 44 47 48 48 51 53 50 53 56 53 51 50 46
92 98 91 74 88 100 82 60 95 93 62 34 29 60 45 46 57 100 29 23 25 40 64 55 43 35 33 32 31 29 30 33 36 36 38 43 44 46 47 51 54 50 55 60 60 58 55 50 48
87 82 76 100 95 82 78 84 71 47 19 88 85 76 37 44 63 94 34 46 44 45 42 38 36 36 37 37 38 40 41 39 36 42 50 51 49 52 54 59 58 64 65 64 59 58 57 57 54
100 72 76 100 92 97 79 82 44 21 64 94 100 60 60 84 78 89 50 54 47 38 39 46 51 54 58 56 51 54 69 97 77 73 51 55 56 56 61 57 64 70 69 64 71 69 67 56 59
86 96 88 88 75 64 61 37 32 94 95 82 74 87 99 86 100 65 99 92 56 44 52 50 48 57 59 59 68 82 99 90 75 62 57 54 54 59 60 68 79 74 67 74 75 64 56 59 56
83 88 57 48 46 44 59 78 72 58 43 36 44 46 79 94 57 59 59 48 45 40 42 47 47 60 67 72 83 90 85 66 61 53 52 57 62 60 66 78 78 75 80 70 66 57 57 60 39
86 42 37 33 60 99 92 83 50 38 41 43 54 52 43 44 42 40 40 43 50 53 53 54 55 62 64 68 66 64 58 50 52 55 62 62 59 65 72 74 87 92 82 70 59 55 61 48 34
36 31 30 79 84 83 64 40 40 63 60 53 42 53 50 44 41 38 36 42 49 56 73 70 66 65 74 79 74 61 47 51 51 56 64 61 61 74 79 92 78 70 62 57 56 57 42 35 27

GFSSGP_250_rhum_018.txt.gz
RH
4 4 4 4 5 5 6 6 6 6 6 6 7 7 6 7 7 8 9 10 13 14 19 22 22 24 24 24 26 30 34 44 61 76 70 66 85 61 50 50 44 51 60 70 74 60 88 69 57
6 5 5 4 5 5 6 6 7 5 6 7 7 7 8 8 7 9 11 14 13 14 15 19 27 29 32 41 44 32 40 74 90 80 59 68 69 49 49 50 56 76 74 85 58 66 94 100 100
7 7 7 7 5 6 6 6 6 6 7 7 8 7 8 9 9 10 12 12 13 13 18 24 28 31 52 44 38 42 99 100 86 90 80 77 55 45 54 70 85 91 90 70 98 96 100 100 100
7 7 8 10 10 8 7 6 5 6 7 7 8 7 8 11 12 12 12 12 16 30 30 38 49 92 81 81 90 74 70 68 73 82 96 82 63 77 86 88 94 80 84 96 84 100 100 97 100
8 8 10 11 11 9 7 6 7 8 8 7 8 8 10 11 14 13 13 19 53 36 52 100 100 100 96 77 72 88 89 88 81 74 83 89 95 100 96 79 74 90 97 100 100 100 95 95 81
11 10 12 12 11 10 9 8 8 9 14 20 12 12 14 13 14 12 17 23 86 100 100 100 100 90 85 74 87 85 96 97 90 100 99 99 100 100 80 84 100 100 100 98 100 94 78 72 81
14 12 11 12 12 12 10 10 11 13 37 26 26 16 19 17 18 28 19 54 100 99 100 100 100 99 100 100 100 88 89 96 100 100 100 97 80 94 85 91 100 100 100 100 96 96 89 90 100
17 15 13 12 11 12 12 11 11 12 30 20 39 39 29 15 29 20 21 60 100 100 100 100 100 100 100 100 100 100 100 100 94 100 86 89 97 87 100 100 100 100 100 88 100 99 100 98 85
28 17 12 13 12 12 10 11 14 32 50 42 89 28 14 14 16 54 98 100 84 96 99 100 100 100 100 100 100 100 100 100 100 100 99 100 100 100 100 96 100 92 99 100 100 90 82 100 100
28 18 18 26 14 12 21 40 48 53 56 64 18 16 31 66 87 100 100 100 100 99 100 100 100 100 100 100 100 100 100 100 100 100 100 100 100 100 93 100 100 98 98 98 100 100 100 94 100
66 35 32 25 24 75 95 89 100 100 64 36 25 17 99 100 100 100 100 100 100 100 100 100 100 100 100 100 100 100 100 100 100 100 100 100 100 100 99 100 100 90 100 100 96 89 100 100 99
54 79 52 32 93 100 100 100 100 90 41 37 54 100 100 100 100 100 100 100 100 100 100 100 100 100 100 100 100 100 100 100 100 100 100 100 100 100 100 100 100 100 100 100 100 100 89 100 91
89 100 73 90 100 100 100 100 100 100 86 69 100 100 100 100 100 100 100 100 100 100 100 100 100 100 100 100 100 100 100 100 100 100 100 100 100 100 100 100 100 99 100 92 100 100 99 99 100
97 91 100 100 100 100 100 99 100 100 100 100 100 100 100 100 100 100 100 100 97 82 99 100 100 100 100 100 100 100 100 100 100 100 100 100 100 100 100 99 100 94 98 100 100 100 100 98 84
99 100 100 100 100 100 100 100 100 65 100 100 100 100 100 100 100 100 100 100 100 100 100 100 100 100 100 100 100 100 100 100 100 100 100 100 100 99 100 99 100 100 100 100 100 87 85 70 49
100 100 100 100 100 100 100 100 100 100 100 93 99 100 100 100 100 100 100 100 100 100 100 100 100 100 100 100 100 100 100 100 100 100 100 100 100 99 96 97 99 100 99 93 75 68 50 40 34
100 100 100 100 90 100 100 100 100 100 100 92 96 100 100 100 100 100 100 100 100 100 100 100 100 95 100 90 89 100 100 100 100 100 100 100 100 98 100 93 99 91 78 66 57 42 36 28 27
96 100 100 100 96 97 100 100 100 100 98 71 65 84 100 100 100 97 80 97 100 100 91 82 67 68 68 66 70 88 92 100 100 100 100 100 100 86 92 78 68 51 41 34 30 28 30 32 32
100 92 100 100 100 89 93 100 100 96 99 100 100 95 100 100 100 100 100 97 83 51 46 50 60 69 80 87 79 94 99 97 92 88 89 85 85 80 55 42 34 30 29 27 29 29 30 32 33
100 98 100 90 100 100 73 82 100 93 98 100 100 93 99 84 88 74 78 87 91 70 67 74 88 82 88 87 97 97 82 80 77 70 64 57 51 40 34 28 26 28 28 28 27 29 33 34 34
100 82 92 82 86 90 88 95 95 92 88 100 100 96 96 75 74 70 69 71 61 67 70 83 78 77 71 67 72 67 57 51 51 48 44 40 32 28 26 26 23 23 26 30 34 36 37 38 41
95 100 95 100 100 100 100 98 85 94 93 85 97 75 100 100 78 100 100 97 65 32 25 21 27 36 37 47 60 69 72 57 41 35 31 29 28 27 28 26 27 29 29 33 37 36 36 41 48
100 100 99 95 100 98 84 84 82 100 100 99 100 99 99 81 71 81 73 48 47 35 42 57 58 58 54 52 56 64 42 38 37 37 35 32 31 28 29 29 29 30 36 39 42 40 43 49 60
88 90 97 100 97 82 89 85 78 85 82 63 87 93 97 77 60 70 35 60 78 36 44 69 58 52 55 46 44 40 37 37 35 35 36 31 32 31 36 35 38 36 42 44 44 48 56 65 68
87 76 87 87 81 76 72 78 64 65 78 72 60 44 25 35 51 62 50 52 57 55 76 63 49 62 48 45 51 43 44 38 35 33 33 34 39 40 42 41 40 46 50 53 54 57 64 71 77
100 88 85 94 88 66 86 78 70 78 79 56 26 20 30 39 47 43 43 58 62 59 58 55 52 58 55 63 44 40 33 37 44 44 45 47 43 42 41 43 53 55 57 55 60 66 74 79 72
83 92 76 72 94 78 94 92 91 68 37 28 35 34 44 47 67 66 94 85 89 92 85 61 68 78 58 50 51 50 53 53 45 48 51 49 46 49 53 54 55 59 54 64 73 83 76 68 60
82 85 100 100 99 90 67 64 51 42 63 62 79 55 35 32 38 54 76 68 61 61 56 53 52 52 67 67 59 61 54 52 50 52 58 55 52 56 57 57 61 58 65 78 83 75 72 59 53
66 66 64 74 95 56 41 34 24 26 54 69 48 43 59 63 72 63 69 63 57 56 51 45 43 47 69 68 62 55 53 52 52 64 65 57 62 62 58 67 67 69 84 81 75 68 56 52 46
66 74 54 79 53 41 29 25 39 53 66 44 75 71 59 56 59 66 62 55 50 45 37 38 49 60 54 44 46 57 61 67 73 78 60 65 58 57 63 70 76 78 75 73 66 58 56 45 34

GFSSGP_250_rhum_021.txt.gz
RH
7 7 6 6 6 6 6 5 6 7 7 7 7 7 7 7 8 8 8 7 8 8 8 8 12 14 16 18 20 21 23 29 33 34 48 58 46 29 32 48 40 35 31 38 41 40 46 48 53
7 7 8 7 7 6 6 5 5 5 6 7 7 7 7 7 7 9 7 7 6 8 8 10 12 17 21 23 22 29 33 38 35 36 50 62 59 57 62 61 55 48 54 62 55 66 85 88 91
8 7 7 8 8 7 8 6 5 6 6 6 8 7 8 8 8 8 9 8 8 15 21 27 26 28 22 22 31 31 31 29 40 47 71 61 56 55 92 70 60 81 92 90 99 84 86 81 72
9 7 7 8 8 8 9 8 8 7 6 6 8 8 20 8 10 11 11 10 10 12 16 22 22 17 28 38 36 25 25 57 69 60 75 100 94 98 94 100 98 100 98 88 86 73 79 100 95
15 10 8 8 8 8 10 10 11 8 8 10 9 7 9 9 11 13 12 11 13 28 46 29 48 85 79 70 38 45 70 100 100 100 98 91 74 72 89 90 88 81 85 88 74 71 70 59 87
23 18 10 9 9 9 9 10 12 11 11 12 11 9 12 10 12 14 13 14 16 22 41 62 50 69 79 74 46 54 70 99 93 99 100 100 98 94 97 87 100 97 93 79 81 82 93 83 78
29 28 17 14 9 10 11 12 12 12 13 13 13 13 17 14 15 12 12 12 46 80 100 100 100 100 92 100 90 89 82 99 95 88 97 81 95 93 100 100 100 99 79 84 85 69 92 68 86
36 34 24 15 14 16 14 13 13 15 22 19 51 59 58 64 38 22 22 21 23 25 76 100 100 100 100 76 100 93 67 98 100 100 100 100 90 83 90 87 88 86 74 82 72 82 91 81 100
33 38 31 23 20 18 14 14 15 15 21 47 100 72 81 80 46 30 35 60 46 74 100 100 100 100 100 100 100 100 100 100 100 100 100 100 100 100 98 92 100 99 100 100 100 100 94 99 97
36 40 31 25 29 19 19 24 27 38 67 100 89 100 56 59 27 28 73 97 84 100 100 100 100 100 100 100 100 100 100 95 100 100 100 100 100 100 100 100 100 95 95 87 100 100 100 100 98
42 42 37 28 46 30 95 98 100 100 93 100 81 32 22 36 33 48 100 100 100 100 100 100 100 100 100 100 100 100 100 100 100 100 100 100 99 100 100 100 100 100 97 83 100 100 100 100 96
47 36 32 47 71 99 100 100 100 100 98 27 43 86 45 74 100 100 100 100 100 100 100 100 100 100 100 100 100 100 100 100 100 100 100 100 100 100 100 100 100 100 100 100 100 100 89 92 84
71 66 42 76 100 100 100 100 100 95 56 69 79 100 88 99 100 100 100 100 100 100 100 100 100 100 100 100 100 100 100 100 100 100 100 100 100 100 100 100 100 100 100 98 100 98 90 90 93
78 86 96 100 100 100 100 100 100 82 90 99 100 100 100 100 100 100 100 100 88 91 100 100 100 100 100 100 100 100 100 100 100 100 100 100 100 100 100 100 100 98 99 100 100 100 100 89 100
86 100 100 100 100 100 100 100 100 89 100 100 100 100 100 100 100 100 100 100 100 69 68 94 100 100 100 100 100 100 100 100 100 100 100 100 100 100 100 100 100 100 100 98 100 100 96 88 71
100 100 100 100 100 100 100 100 100 96 100 100 100 100 100 100 100 100 100 100 100 100 84 88 92 89 78 70 70 100 100 94 99 100 100 100 100 100 100 100 100 100 100 95 92 93 79 64 47
100 100 100 100 100 100 98 100 100 100 100 100 100 100 100 100 100 100 100 100 100 100 100 100 98 98 100 100 100 100 100 100 100 100 100 100 100 100 100 100 93 90 87 83 75 62 49 39 31
100 92 100 100 100 100 94 100 92 99 100 100 100 100 100 100 100 100 100 100 100 100 100 100 100 100 100 100 100 100 98 92 83 92 92 89 100 90 85 79 76 67 60 51 45 39 32 28 30
100 100 93 100 100 100 100 100 96 100 100 100 90 84 100 100 100 100 100 100 100 100 100 100 100 100 100 92 89 78 70 70 78 87 100 96 83 68 74 67 54 48 43 38 34 30 30 30 28
100 100 97 76 94 93 97 100 100 100 99 72 80 70 71 70 71 86 100 100 100 100 100 100 86 88 81 70 64 66 72 75 77 70 64 66 66 56 51 49 44 37 32 31 30 28 27 26 28
100 100 100 100 100 100 98 100 100 100 100 81 100 100 97 98 72 72 99 100 100 99 99 76 83 67 52 53 56 61 56 54 52 44 46 58 63 52 40 36 33 33 34 32 30 29 34 37 37
84 96 71 97 99 99 100 100 92 86 85 87 96 100 100 100 92 62 64 81 76 64 71 91 77 55 27 20 20 28 45 58 56 53 56 46 38 35 34 35 38 40 37 34 35 40 41 38 36
99 92 67 66 84 99 94 73 96 89 93 100 94 83 75 95 95 80 73 64 50 60 57 53 43 28 42 51 54 47 53 42 42 45 43 38 35 38 41 40 39 41 42 44 45 43 38 35 37
99 100 81 74 69 96 100 100 100 99 99 90 98 80 61 58 66 69 69 61 52 47 50 52 39 48 61 57 73 75 70 44 42 54 47 40 44 47 44 42 42 41 42 42 43 39 39 40 51
99 100 100 95 100 76 80 86 64 69 82 86 89 90 96 77 60 59 57 42 58 80 74 78 60 70 84 83 78 69 57 48 56 58 44 43 48 46 43 38 41 43 43 44 44 43 45 54 61
88 90 100 100 100 97 84 80 71 71 78 77 87 85 87 69 36 24 37 89 97 100 100 100 82 73 87 92 100 100 78 61 58 46 45 50 48 42 39 39 45 49 50 48 48 52 56 60 68
69 75 82 87 93 84 66 81 88 76 80 67 53 58 47 28 51 81 82 84 100 100 100 91 100 100 98 90 90 64 49 49 48 47 45 47 43 44 51 57 53 52 51 56 61 61 67 74 83
66 66 79 82 88 81 74 91 100 85 85 65 44 27 40 62 78 50 38 48 67 78 74 68 70 65 75 60 45 48 47 52 55 53 50 45 53 57 55 52 54 55 55 67 68 72 78 83 80
49 66 79 83 78 79 74 96 94 65 53 49 26 31 61 53 36 43 74 72 57 51 56 57 58 51 50 49 66 63 62 60 59 54 54 63 62 64 56 59 55 56 67 73 75 79 80 79 75
40 49 58 62 78 80 66 78 61 36 39 41 85 63 51 45 62 62 67 54 55 68 66 59 51 59 50 45 54 50 50 50 53 63 67 68 65 60 61 65 58 65 77 77 79 74 72 85 94

GFSSGP_250_rhum_024.txt.gz
RH
6 6 6 7 6 8 7 7 7 7 7 8 8 8 9 8 8 9 9 9 8 8 8 8 8 8 8 8 9 13 16 22 23 20 21 21 22 25 27 24 26 29 40 38 40 32 45 64 43
6 6 7 7 7 7 8 8 7 7 7 7 10 10 9 10 11 12 11 11 10 10 9 9 8 8 8 9 13 23 30 28 26 22 17 20 25 24 24 31 26 28 52 48 50 61 65 64 58
7 8 8 8 8 7 8 8 8 8 8 7 7 8 8 8 8 13 14 15 15 12 11 11 10 17 16 22 26 37 46 35 19 19 21 20 23 23 28 33 37 48 52 66 84 85 80 89 84
8 9 10 9 9 8 8 8 10 10 11 9 7 7 10 10 9 14 15 18 19 17 24 21 31 37 28 26 17 22 22 25 24 24 32 43 44 33 48 54 60 58 74 100 100 100 98 86 72
9 10 13 12 12 11 10 10 10 11 12 10 8 7 8 10 9 10 14 13 18 22 69 62 58 40 29 20 25 32 38 50 42 41 41 68 63 63 74 99 90 87 100 95 83 83 80 65 58
11 14 18 19 18 17 12 10 11 11 11 12 10 10 15 30 24 18 22 32 35 41 33 34 35 33 24 45 89 99 63 83 60 58 59 87 86 97 93 96 85 86 92 70 72 70 68 66 57
14 18 26 29 27 20 16 12 13 11 11 12 12 16 20 18 31 25 20 31 52 33 36 31 73 68 47 89 100 99 77 64 44 72 94 83 87 92 100 99 89 81 66 67 69 51 45 46 49
18 24 31 39 32 20 15 14 14 15 14 13 16 18 17 17 21 17 17 14 14 21 20 24 56 100 100 100 100 97 79 100 100 100 99 73 100 100 100 100 100 90 70 85 74 100 100 66 82
27 28 35 42 38 25 19 20 19 20 19 20 19 21 20 34 27 25 21 24 16 15 25 40 89 100 100 100 100 100 100 96 97 100 91 100 100 100 100 95 84 97 100 100 96 100 100 89 72
34 38 35 39 44 28 30 41 30 29 26 38 51 41 50 47 69 53 28 35 50 62 97 90 100 100 100 100 100 100 100 100 100 100 100 100 97 100 100 100 97 100 100 91 93 93 77 94 100
70 58 51 60 45 40 38 58 44 87 65 100 100 99 52 80 42 37 42 100 98 100 100 100 100 100 100 100 100 100 100 100 100 100 100 100 100 99 100 100 100 100 100 98 100 93 88 100 98
72 69 62 53 59 79 70 95 100 100 100 100 100 63 65 89 62 63 99 100 100 100 100 100 100 100 100 100 100 100 100 100 100 100 100 100 100 100 100 100 100 91 100 100 100 100 100 100 100
68 49 44 62 88 100 100 100 100 100 100 100 100 96 99 95 97 100 100 100 100 100 100 100 100 100 100 100 100 100 100 100 100 100 92 100 100 100 100 100 100 100 100 100 100 91 76 88 98
83 71 80 96 100 100 100 100 100 80 81 85 100 93 100 100 100 100 100 100 100 100 100 100 100 100 100 100 100 100 100 100 100 100 100 100 100 100 100 100 100 100 100 100 99 100 100 95 88
97 94 92 100 100 100 100 100 100 86 100 100 100 100 100 100 100 100 100 100 100 100 100 100 100 100 100 100 100 100 100 100 100 100 100 100 100 100 100 100 100 100 100 92 100 98 94 82 82
99 82 99 100 100 98 90 100 92 90 93 100 100 100 100 100 100 100 100 100 100 100 100 100 100 100 100 100 100 100 100 100 100 92 95 98 96 100 100 100 100 100 98 99 100 89 80 70 60
100 68 89 81 92 100 98 98 100 100 100 100 100 100 100 100 100 100 100 87 100 100 90 97 99 100 100 100 100 100 100 98 80 78 69 92 88 100 100 97 96 98 99 93 77 65 53 45 38
82 100 84 97 100 100 76 98 100 100 100 100 100 100 100 100 100 100 100 100 100 88 80 73 76 71 64 57 71 77 90 88 74 76 98 99 96 94 82 81 84 85 73 61 48 45 38 33 31
87 100 100 92 84 86 93 76 100 100 100 100 100 100 100 100 100 100 100 95 100 100 100 92 82 100 93 100 100 100 92 83 86 96 85 73 69 70 74 70 61 51 45 42 35 33 33 36 36
97 94 100 100 93 86 100 82 91 99 100 100 100 100 100 100 100 100 100 100 95 93 100 98 99 99 100 100 100 97 93 85 71 64 64 61 64 66 50 49 49 40 34 35 38 39 37 33 34
100 94 100 94 84 88 100 100 100 95 100 99 76 72 86 84 89 94 100 100 100 100 100 100 100 100 100 100 100 95 85 69 47 45 46 38 42 49 43 38 38 41 39 43 40 36 36 40 43
84 86 96 97 100 99 100 88 95 100 100 97 78 68 60 61 90 96 88 77 66 66 83 100 100 96 82 66 59 60 64 54 34 49 52 44 35 37 42 48 46 40 40 40 39 41 42 46 48
84 96 100 97 83 98 100 93 86 86 84 74 58 76 72 71 79 81 81 81 84 89 88 79 80 66 62 58 53 45 37 44 55 41 28 30 33 42 50 48 42 40 40 43 42 43 46 49 51
74 92 87 100 79 97 95 98 94 88 86 83 100 82 79 75 81 68 61 62 63 65 65 70 62 67 70 57 73 63 70 51 43 34 26 38 43 49 50 45 43 45 44 43 45 50 50 53 51
61 92 78 82 91 91 99 98 100 100 100 100 100 85 80 84 85 74 65 66 59 52 52 64 52 55 64 80 100 100 75 60 65 50 50 49 50 52 53 47 48 47 50 50 58 59 53 53 53
60 78 77 95 100 100 90 100 83 97 100 85 85 80 86 78 76 69 68 73 65 40 40 48 67 79 71 97 100 98 92 83 88 77 61 48 61 50 46 52 53 54 54 57 58 53 49 52 57
63 62 76 84 94 100 95 93 89 77 83 94 100 95 94 96 85 83 78 44 38 60 75 69 71 76 76 90 99 83 92 92 81 62 62 70 53 48 51 55 56 55 56 61 57 53 55 55 56
48 58 66 78 80 83 76 75 100 93 96 87 91 100 96 80 69 39 37 53 58 46 58 79 98 89 70 70 90 100 100 89 64 71 62 56 55 58 55 56 53 52 55 59 55 56 55 56 64
21 46 64 77 83 81 86 92 83 97 91 98 95 77 58 54 56 74 61 46 46 64 76 66 57 65 68 86 94 100 98 75 68 65 61 58 58 52 50 52 55 62 61 58 58 54 61 70 77
29 23 45 63 89 100 98 98 100 100 99 100 97 48 39 44 75 67 46 56 61 66 61 62 73 96 100 100 100 98 84 75 70 65 58 55 50 54 57 66 71 68 61 60 61 68 80 83 80

GFSSGP_250_rhum_027.txt.gz
RH
7 7 7 7 6 7 6 6 6 6 6 6 8 10 8 9 10 10 10 11 10 10 11 12 12 12 12 12 11 11 11 12 12 13 17 17 20 21 25 27 20 17 15 13 12 12 14 17 22
7 7 8 8 7 8 7 6 7 7 8 8 38 33 19 16 11 10 11 11 11 12 11 11 11 12 12 11 10 10 11 14 15 17 17 19 20 24 25 20 18 15 15 13 13 18 24 24 32
10 9 9 9 10 8 8 8 7 8 9 10 18 66 88 58 27 37 33 31 22 20 13 12 11 11 12 12 13 12 18 21 19 15 19 22 25 23 18 16 16 19 16 20 22 26 34 51 56
12 10 10 10 10 9 10 10 9 9 9 10 24 39 64 71 50 38 38 45 28 31 23 16 17 21 22 17 15 17 21 19 22 27 25 24 22 22 17 18 26 32 28 33 32 48 54 77 76
14 13 13 11 11 11 12 12 12 10 10 11 11 28 54 43 38 51 49 37 32 30 25 29 31 36 29 23 17 21 26 33 38 40 28 28 31 31 37 43 40 55 49 43 47 59 70 78 94
16 19 19 14 14 15 16 15 14 12 11 12 12 12 26 36 32 29 35 39 36 73 50 46 41 35 34 29 37 59 59 36 49 57 61 62 79 65 65 50 50 48 63 57 72 88 87 83 73
19 22 25 17 19 22 28 21 23 17 12 12 14 12 16 19 28 53 64 50 39 31 56 41 31 34 39 58 65 57 48 95 100 96 80 88 68 69 57 52 68 70 78 82 66 58 74 71 56
22 25 26 23 30 30 36 28 34 33 18 15 15 14 16 37 36 32 58 71 64 60 62 61 78 66 47 99 84 69 97 100 92 100 82 82 80 66 71 80 75 77 85 53 65 84 89 74 68
26 29 29 37 40 42 39 33 37 50 32 17 20 17 24 43 56 60 73 79 55 66 91 72 100 98 40 54 53 80 100 100 100 100 100 100 82 97 81 89 86 88 90 82 80 67 71 86 88
32 32 45 48 45 53 46 73 48 46 52 37 33 21 29 41 84 45 29 30 24 25 28 28 82 59 53 62 76 100 100 100 100 100 100 100 92 89 94 95 87 83 81 69 94 84 98 100 100
35 40 57 54 63 65 87 84 98 64 64 97 96 82 79 55 36 32 26 39 19 47 68 42 82 100 100 100 100 100 100 100 100 100 100 100 100 100 98 98 95 99 100 98 100 100 100 100 100
40 45 67 80 75 75 75 87 100 99 100 100 100 100 61 33 36 55 57 33 84 100 100 100 100 100 100 100 100 100 100 100 100 100 100 100 100 100 95 89 100 100 93 100 100 100 100 100 100
50 38 57 80 93 96 100 100 100 100 100 100 100 95 56 69 63 100 100 100 100 100 100 100 100 100 100 100 100 100 100 100 100 100 100 90 91 99 100 100 100 100 100 100 100 100 98 100 83
57 54 44 95 100 100 100 100 100 100 100 100 100 95 74 84 100 100 100 100 100 100 100 100 100 100 100 100 100 100 100 100 100 100 100 100 100 100 100 100 100 100 99 94 97 96 100 100 86
67 58 56 99 97 100 100 100 100 100 100 100 78 91 95 100 100 96 100 100 100 100 100 100 100 100 100 100 100 100 100 100 100 100 100 100 100 100 100 100 93 94 88 96 97 90 80 68 89
69 71 72 94 100 99 88 100 100 100 100 94 99 96 98 100 100 98 99 100 100 100 100 100 100 100 100 100 100 100 100 100 100 100 100 100 100 100 100 100 100 94 80 77 75 82 89 86 76
67 77 83 67 88 80 92 99 96 98 100 98 100 100 95 100 100 100 100 100 100 100 100 100 100 100 100 100 100 100 100 97 100 100 100 100 100 100 100 96 92 80 76 78 71 74 74 56 42
75 83 76 76 84 72 75 87 93 96 100 100 100 100 100 100 100 100 100 100 100 100 100 100 100 100 100 100 100 100 100 100 100 97 86 95 88 96 94 84 72 71 64 67 61 45 38 33 27
66 76 94 85 63 74 76 88 100 100 100 100 100 100 100 100 100 100 100 100 100 100 100 100 89 96 100 100 100 100 99 86 79 53 63 91 78 81 84 66 51 47 46 36 34 33 32 32 37
62 73 78 90 99 83 89 72 84 80 96 100 100 100 100 100 100 100 100 100 100 79 88 70 66 62 62 76 67 46 55 72 66 96 98 89 84 76 72 51 25 34 38 34 34 32 37 39 37
50 89 74 84 100 94 82 74 76 95 82 100 100 100 99 84 100 100 98 97 100 100 100 96 92 92 76 69 89 100 100 100 95 81 72 58 52 58 51 36 42 35 38 40 39 44 41 37 40
56 74 97 99 100 100 100 100 99 96 95 93 100 100 95 91 91 88 85 98 96 94 96 100 99 97 94 95 91 87 81 74 66 50 44 48 52 51 46 35 42 42 41 45 48 45 43 41 42
56 56 78 100 94 99 98 92 99 79 99 100 100 95 72 65 67 63 72 76 92 80 73 73 72 72 67 61 70 74 80 66 53 43 51 57 50 46 44 48 47 48 46 55 47 42 41 46 47
42 61 66 83 90 99 99 100 100 92 76 84 89 79 75 85 80 69 66 65 67 73 68 70 64 67 67 70 81 77 70 57 57 66 76 69 53 46 47 54 52 50 61 55 50 50 47 50 56
27 70 67 72 90 97 100 100 100 91 90 80 79 97 82 99 88 71 74 74 71 76 74 80 82 80 76 74 78 79 98 88 73 66 70 67 52 43 63 65 55 58 53 51 53 50 52 58 61
26 36 73 72 72 90 99 99 78 78 86 100 100 100 98 94 87 69 71 78 75 81 88 88 77 64 41 62 64 74 75 97 100 98 96 71 47 54 65 71 62 58 56 57 50 54 58 67 67
27 26 46 73 72 93 100 100 100 74 88 90 83 100 95 84 74 69 76 72 87 76 56 56 39 51 65 71 73 77 80 99 100 100 94 94 74 76 86 97 69 65 56 49 58 62 61 62 62
29 32 26 57 71 81 99 100 100 100 100 100 100 93 95 96 100 99 92 89 68 47 42 58 57 63 62 68 69 73 84 100 100 100 100 84 90 98 99 74 68 59 57 56 59 59 59 63 62
28 31 26 37 80 72 73 93 88 100 100 100 100 100 99 93 100 100 70 56 54 72 77 53 56 66 68 72 91 100 100 100 100 100 84 100 100 91 75 65 58 57 57 60 64 57 58 59 58
29 29 30 23 46 58 82 99 68 87 100 97 96 100 100 91 96 85 46 45 71 67 51 67 78 80 87 100 89 100 100 100 100 100 100 86 70 64 61 62 66 69 67 71 65 60 68 67 63

GFSSGP_250_rhum_030.txt.gz
RH
17 14 9 9 7 7 6 6 6 6 6 6 7 6 7 7 8 16 14 14 10 10 12 13 12 12 11 12 13 13 14 13 16 19 19 24 27 19 22 19 16 13 14 12 13 12 13 13 12
18 12 10 9 8 8 8 8 7 7 7 6 8 10 11 21 12 8 8 10 21 19 13 17 14 12 12 11 12 13 14 15 17 22 22 22 21 20 20 16 14 16 14 12 16 23 15 13 13
17 12 10 10 10 9 8 9 8 8 8 7 7 17 94 92 87 39 20 9 13 16 12 14 14 13 14 13 12 12 15 17 21 20 20 15 15 20 20 17 15 14 19 23 19 14 13 14 17
15 11 10 12 12 11 10 10 9 9 8 8 8 40 97 100 100 100 73 27 16 32 27 24 19 14 15 14 14 16 17 23 19 22 16 17 19 22 22 22 18 21 22 18 17 20 21 22 23
13 12 14 13 16 17 13 11 10 10 10 8 9 39 100 100 100 92 100 99 48 33 26 47 39 30 24 19 17 17 18 18 14 22 22 20 26 26 21 24 25 23 19 21 28 32 31 37 46
16 13 16 15 23 21 15 13 12 11 10 9 10 31 100 98 100 81 100 100 83 56 57 84 87 61 60 60 34 27 32 33 36 36 36 38 47 41 45 45 33 41 32 39 48 48 47 51 44
15 14 20 22 31 20 20 21 20 17 14 11 11 13 56 98 100 99 74 88 70 78 89 100 100 99 71 57 53 41 44 42 55 67 68 77 65 69 81 74 74 73 61 57 53 68 79 73 55
14 17 29 29 26 30 33 34 32 30 23 14 12 16 14 34 51 60 67 68 60 86 98 100 100 100 87 54 50 52 98 79 100 100 97 95 94 87 84 77 69 71 60 60 61 70 61 66 43
15 29 39 34 35 37 39 44 51 45 42 20 13 18 18 28 43 44 58 62 72 72 97 100 100 96 84 100 90 94 100 99 100 100 100 100 100 99 100 100 68 63 75 61 74 66 71 60 66
17 38 41 40 42 44 48 66 73 57 46 56 20 29 42 45 52 37 42 60 65 73 100 100 100 100 100 100 100 100 96 100 100 100 100 100 100 100 100 100 88 81 70 85 71 74 68 65 89
19 41 40 46 52 62 98 100 100 80 84 88 70 71 49 48 76 90 84 65 37 28 72 92 100 100 100 100 100 100 100 100 100 100 100 100 100 100 100 100 100 100 84 81 79 80 93 95 100
22 46 44 47 64 72 72 100 100 100 100 100 100 100 100 98 70 65 58 57 46 20 21 34 73 99 100 100 100 96 100 100 100 100 100 100 100 100 100 100 100 93 87 83 84 100 100 100 98
25 48 41 43 67 76 80 99 100 100 100 100 100 100 70 79 72 46 41 56 29 28 83 100 83 71 100 100 100 100 100 100 100 100 100 100 100 100 100 100 100 98 100 100 100 100 100 97 91
32 52 46 42 71 88 100 100 100 100 100 100 100 99 92 94 82 64 64 36 31 98 100 100 100 100 100 100 100 100 100 100 100 100 100 100 100 100 100 100 100 100 100 96 89 100 99 93 90
40 59 53 67 64 89 100 100 100 100 100 100 100 90 100 100 100 100 98 69 83 100 100 100 100 100 100 100 100 100 100 100 100 100 100 100 100 100 100 100 100 100 100 100 90 100 90 86 70
40 69 74 67 58 73 73 92 81 82 100 98 97 79 99 100 100 100 100 100 100 100 90 100 100 100 100 100 100 100 100 100 100 100 100 100 100 100 100 100 98 100 99 100 94 92 83 69 55
32 67 81 84 67 58 70 70 91 94 100 82 77 66 85 93 100 100 100 100 100 100 100 100 100 100 100 100 100 100 100 100 100 100 100 100 97 100 100 100 98 90 88 79 90 84 68 50 36
28 53 70 93 79 69 74 94 84 89 84 86 100 99 79 97 100 100 100 100 100 100 100 100 100 100 100 100 100 100 100 100 100 100 100 100 100 98 88 93 92 77 72 69 71 59 52 46 37
27 51 70 76 89 77 76 99 100 84 87 79 100 100 100 100 100 100 100 100 100 100 100 100 100 100 100 100 100 100 100 100 100 100 93 100 100 98 88 97 89 71 63 54 51 50 44 38 34
25 45 62 72 77 79 72 81 89 96 76 79 77 89 100 98 100 100 100 93 100 95 99 100 100 100 80 78 86 99 96 93 98 99 93 86 77 82 87 73 72 58 42 46 43 40 39 34 28
24 29 60 51 69 88 70 76 69 81 91 84 94 99 100 74 100 94 100 86 100 100 98 69 83 73 74 72 72 65 68 71 68 72 72 72 70 88 80 65 51 42 39 45 42 43 45 38 35
26 26 53 58 68 88 95 79 75 85 88 84 92 100 100 100 72 98 100 96 81 100 94 100 100 98 76 66 64 57 66 63 66 77 87 83 75 62 55 50 46 49 43 43 52 52 49 42 47
32 26 37 66 68 85 100 100 95 86 71 89 95 100 100 97 92 90 79 90 90 96 99 99 99 95 90 88 91 86 80 76 67 62 53 58 52 51 49 60 66 60 53 55 60 58 59 54 46
33 29 31 61 72 87 83 98 100 100 77 73 95 93 95 97 81 71 67 74 66 64 65 64 58 62 59 54 54 62 72 68 78 72 63 51 48 59 77 65 62 53 52 54 62 55 45 45 52
38 33 31 37 73 78 77 91 95 88 84 96 79 92 94 98 84 81 100 92 74 71 66 60 60 61 67 72 69 64 69 61 53 72 73 85 67 85 88 57 60 46 52 57 48 54 66 54 54
42 36 34 32 47 73 81 82 78 74 82 87 80 81 80 76 98 88 70 71 83 78 85 83 77 75 70 75 67 57 60 76 98 100 100 100 100 100 98 67 68 83 98 84 86 71 60 60 56
45 42 36 33 35 57 82 84 80 77 85 87 91 90 89 84 82 78 67 74 77 87 99 97 79 58 53 62 70 78 100 100 100 100 100 100 87 76 100 100 100 100 100 96 79 74 68 61 63
44 42 35 34 37 42 77 90 76 69 64 66 87 89 95 84 90 80 76 66 66 74 76 72 59 57 59 69 82 93 99 94 100 100 98 99 100 100 96 100 100 100 81 72 68 62 61 68 70
44 43 36 33 37 39 64 78 78 60 63 74 79 93 98 100 95 83 86 73 68 71 56 45 57 79 93 70 69 78 74 82 92 100 100 100 100 100 100 100 96 90 82 86 74 71 78 74 77
45 38 37 38 37 46 39 65 78 74 68 73 80 91 91 91 88 96 93 97 98 86 59 38 61 69 69 73 76 74 79 76 100 100 100 100 100 100 100 94 86 84 93 92 91 87 88 80 77

GFSSGP_250_rhum_033.txt.gz
RH
19 15 12 12 11 10 8 6 6 6 6 5 6 87 8 6 8 79 96 53 36 12 11 13 15 16 13 12 13 14 14 14 14 15 14 15 16 20 19 22 20 19 16 16 16 14 14 13 12
15 13 13 12 10 8 6 6 6 7 8 8 5 7 7 37 11 48 98 41 16 21 21 17 14 17 18 17 15 14 14 14 14 16 18 23 24 27 23 25 20 18 16 16 17 14 14 11 12
15 16 15 11 8 7 7 8 8 10 9 7 7 8 44 56 25 42 24 18 28 84 41 27 21 24 22 16 16 14 15 15 16 22 22 20 21 17 19 21 21 21 17 17 16 14 14 14 12
18 20 13 9 8 8 9 10 12 12 9 8 9 11 13 75 55 95 96 90 78 68 50 49 56 79 61 38 23 18 17 18 25 21 19 21 18 17 18 24 24 20 18 16 17 17 16 15 14
26 19 11 9 11 11 11 15 17 13 10 9 10 33 16 61 97 100 100 100 100 97 100 85 75 48 57 73 60 40 26 26 29 29 26 24 26 34 30 24 25 28 25 24 23 25 21 20 18
27 15 11 10 13 12 18 20 18 13 10 9 18 97 100 100 94 99 100 100 88 84 90 99 69 38 52 46 46 54 34 26 26 33 41 35 40 35 37 40 39 32 33 33 33 33 29 27 29
23 15 13 13 16 20 30 25 18 14 11 10 18 66 99 100 100 100 80 77 73 90 85 94 80 77 41 41 90 97 83 64 63 50 44 45 50 54 63 74 83 66 77 59 66 55 36 39 41
22 16 15 25 24 32 29 28 24 20 15 36 13 77 100 100 100 96 76 70 100 100 100 100 100 100 100 100 100 100 100 88 94 91 82 82 91 85 99 95 88 99 84 73 61 51 40 41 49
20 16 18 34 31 41 35 32 36 27 23 14 12 79 100 100 100 100 71 98 100 91 98 100 100 100 100 100 98 88 82 90 100 100 100 100 100 95 87 100 100 100 85 75 65 42 60 61 57
19 17 23 35 32 50 40 42 51 38 40 31 30 36 100 100 100 91 82 80 100 98 100 100 100 100 100 100 100 100 100 100 100 100 100 100 100 100 100 100 100 100 99 92 71 68 67 74 63
20 18 31 37 34 60 55 86 62 79 98 100 49 31 61 100 100 100 100 99 95 91 100 100 100 100 100 100 100 100 100 100 100 100 100 100 100 100 100 100 100 100 100 100 98 100 77 95 71
22 20 32 41 37 66 96 85 66 97 100 100 91 62 68 70 98 99 91 82 84 68 85 72 93 88 96 100 100 96 100 100 100 100 100 100 100 100 100 100 96 100 100 100 92 100 84 100 100
25 22 35 46 44 72 72 76 95 100 95 96 100 99 86 95 75 61 49 48 46 46 42 52 70 94 91 100 100 100 100 100 100 100 100 100 100 100 100 100 100 100 100 100 100 100 100 100 97
28 27 45 52 58 60 74 100 96 98 100 99 100 99 96 84 83 70 54 60 42 31 24 31 33 100 97 100 100 100 100 100 100 100 100 100 100 100 100 100 100 100 100 100 100 100 100 100 76
30 29 53 68 70 63 97 96 62 100 100 100 81 80 96 100 100 88 54 55 53 42 33 42 70 97 100 100 100 100 100 100 100 100 100 100 100 100 100 100 100 100 100 100 100 100 100 100 100
28 28 61 77 74 59 99 100 89 91 100 100 89 92 91 99 73 91 92 81 63 48 38 100 100 100 100 100 100 100 100 100 96 100 100 100 100 100 100 100 100 100 100 100 100 97 100 89 80
27 28 55 81 87 63 100 100 94 84 100 98 85 94 98 97 100 100 100 96 100 100 100 100 100 100 100 100 100 100 100 100 100 100 100 100 100 100 100 100 100 100 100 100 96 91 83 83 75
33 26 44 65 77 70 67 88 70 75 88 84 76 68 84 98 100 100 100 98 100 100 100 100 100 100 97 100 100 100 100 100 100 100 100 100 100 99 100 100 99 100 100 96 95 86 84 74 61
37 32 27 56 77 76 77 79 92 82 82 77 100 91 79 81 100 100 100 97 100 100 100 100 100 100 92 100 100 100 100 100 100 100 100 100 100 100 100 100 82 100 100 91 76 75 66 53 47
43 36 25 45 61 77 80 82 78 100 100 85 89 100 100 100 97 97 100 100 99 80 98 100 100 100 100 95 90 98 100 100 98 100 100 100 100 99 99 99 98 91 87 79 72 58 51 45 44
48 39 27 29 59 67 67 75 82 95 96 75 71 96 100 100 100 100 100 100 100 100 90 64 88 100 100 100 100 100 97 94 94 97 96 96 91 89 86 79 74 74 68 66 60 53 51 56 57
50 42 32 27 50 67 74 60 70 77 68 69 64 71 89 100 97 84 100 94 100 100 100 100 100 95 77 64 62 43 44 45 48 59 66 66 58 62 68 62 62 56 49 54 57 59 66 58 44
52 46 36 31 29 61 72 74 70 95 86 69 72 72 100 100 100 99 58 100 100 100 97 88 100 100 100 100 100 100 100 87 79 78 80 78 73 68 60 54 49 51 73 70 73 64 46 44 41
62 48 41 38 30 44 66 85 80 82 93 97 88 67 69 97 100 98 96 85 90 95 97 89 78 70 66 68 64 68 73 76 71 66 59 56 52 54 62 54 49 67 59 50 77 70 47 48 37
52 56 44 39 32 32 51 75 82 75 77 100 100 90 86 83 99 94 82 64 58 56 57 60 59 52 50 59 60 56 59 60 60 56 64 61 71 79 74 78 90 77 76 84 70 61 79 74 67
54 60 46 42 37 30 34 55 71 85 76 75 75 97 96 89 70 61 79 72 63 66 67 64 65 62 58 58 54 58 55 58 69 63 77 88 98 88 100 100 100 100 71 64 99 100 100 94 87
55 77 54 44 41 34 33 36 49 71 78 67 61 62 64 74 74 97 100 100 93 79 71 69 65 63 63 57 65 86 57 45 46 85 100 100 100 100 85 73 70 86 100 100 100 100 100 94 81
49 79 66 47 43 36 29 35 39 58 64 80 66 58 61 67 76 96 94 78 94 94 86 83 93 91 70 64 60 85 39 42 66 98 100 100 100 100 100 88 92 99 100 100 100 100 98 90 80
46 88 81 53 46 39 33 36 32 33 34 68 79 71 62 61 68 74 76 87 98 77 64 76 95 100 95 58 42 44 57 71 81 100 100 100 100 100 100 100 100 100 100 100 99 93 89 77 81
41 96 94 64 44 42 35 35 32 35 26 36 61 80 76 70 65 60 63 73 68 61 63 67 74 88 91 62 60 58 68 72 85 92 92 100 100 100 100 100 100 100 100 91 93 85 78 79 84

GFSSGP_250_rhum_036.txt.gz
RH
31 28 24 23 15 11 8 9 10 7 7 6 6 6 6 7 6 8 100 100 100 100 100 100 99 31 16 17 15 14 14 13 12 12 11 13 13 14 14 15 16 17 16 14 13 13 14 12 12
30 22 20 17 12 11 10 10 7 6 5 5 6 7 24 20 100 30 100 100 100 100 98 85 87 66 30 17 22 18 15 15 14 13 13 14 15 16 16 17 19 18 17 16 15 15 14 13 14
24 18 15 12 11 11 10 7 5 5 5 8 7 55 78 100 82 59 99 100 100 97 87 93 75 66 80 24 14 24 25 19 15 14 15 16 17 18 19 21 20 23 22 17 16 16 17 17 18
21 17 14 12 12 10 8 7 6 6 8 13 10 100 99 99 96 94 26 100 100 100 77 89 90 66 28 36 20 20 28 30 25 21 18 18 18 20 20 21 25 20 22 20 18 16 16 15 15
19 15 14 12 11 8 7 9 9 10 14 13 16 100 96 95 93 80 73 74 82 100 89 95 100 96 96 46 57 37 29 24 23 31 28 29 27 23 21 22 24 23 23 24 25 27 22 20 19
19 20 17 13 9 12 11 16 15 16 12 11 14 74 100 100 29 62 56 82 95 100 97 93 100 100 100 100 75 51 56 69 68 56 43 48 45 31 29 28 29 30 29 36 37 32 32 32 30
19 20 14 12 10 18 17 22 18 15 33 92 99 100 100 65 31 53 68 100 100 99 100 100 100 100 100 100 100 97 54 48 75 80 70 69 51 32 29 28 32 35 41 44 53 55 54 50 54
22 19 14 12 17 18 25 26 92 100 83 84 100 100 100 98 83 100 100 100 99 100 100 100 100 100 100 100 100 100 90 77 100 73 82 58 74 66 55 49 63 64 68 80 80 70 70 65 54
24 22 15 13 24 17 19 75 69 32 96 100 100 100 100 100 100 98 100 100 100 100 100 100 99 100 100 100 100 100 100 100 99 100 100 100 100 100 100 100 100 90 83 84 81 90 83 76 45
25 26 16 18 24 22 33 31 100 100 100 95 100 100 100 100 92 95 100 100 100 100 100 100 100 100 100 100 100 100 100 100 100 100 100 100 100 100 100 100 100 99 100 100 100 88 100 66 74
26 27 17 22 27 32 47 41 86 100 100 100 99 93 97 100 100 95 99 100 100 100 100 100 100 100 100 100 100 100 100 100 100 100 100 100 100 100 100 100 100 100 100 100 100 94 92 96 99
26 27 18 30 27 38 52 100 100 100 100 100 100 85 98 100 100 80 83 99 100 99 100 100 98 99 99 100 100 96 87 100 100 100 100 100 100 100 100 100 100 100 100 100 100 100 100 100 100
34 27 19 34 31 38 42 93 95 99 93 100 100 97 98 100 100 86 70 66 79 86 95 76 95 95 88 87 100 98 70 100 100 100 100 100 100 100 100 100 100 100 100 100 100 100 100 100 100
42 31 21 36 36 60 66 79 52 46 76 96 77 75 65 98 100 100 100 82 100 100 100 100 99 100 97 100 100 100 100 100 100 100 100 100 100 100 100 100 100 100 100 100 100 100 100 94 83
52 37 28 35 56 88 95 79 76 76 69 61 61 56 69 71 100 100 89 84 87 90 79 71 84 81 65 98 100 100 100 100 100 94 93 100 100 99 100 100 100 100 100 96 100 96 99 100 100
50 44 34 21 56 100 100 100 100 100 100 66 85 83 81 80 87 98 100 100 99 88 69 66 53 68 52 94 100 100 100 100 100 100 100 82 77 100 100 100 100 100 100 100 95 100 100 99 94
40 51 38 24 46 68 100 100 100 100 68 97 58 79 81 100 84 81 68 80 80 72 44 33 42 49 92 52 91 100 100 100 100 100 100 100 99 100 100 100 100 100 100 100 100 85 100 97 99
40 46 41 29 24 49 86 98 100 100 100 55 73 61 85 100 99 72 78 73 64 46 44 57 58 84 78 94 91 100 100 100 100 100 100 100 100 100 92 100 100 100 100 100 98 84 98 100 99
37 30 46 40 28 33 50 47 98 100 100 70 76 82 89 84 82 100 100 100 61 83 100 90 78 95 100 100 100 100 100 100 100 100 100 100 100 100 100 100 100 100 100 100 100 100 94 85 90
63 37 49 44 31 28 58 45 80 94 100 60 76 100 89 92 77 100 99 99 100 89 100 100 100 100 100 100 84 96 88 100 100 100 100 100 100 100 99 92 96 100 100 95 89 85 86 80 73
82 41 39 51 40 35 44 64 62 51 67 100 99 97 66 100 99 94 100 94 68 100 100 100 94 97 100 100 100 99 93 94 90 85 95 100 100 100 100 98 91 92 82 84 80 72 68 64 62
90 71 43 48 44 36 30 48 66 69 66 67 82 68 82 98 100 100 100 100 100 89 86 63 83 100 100 87 97 83 79 68 97 86 82 71 83 70 69 70 76 77 72 71 67 60 63 56 51
96 70 48 35 52 38 32 31 52 72 66 62 67 69 77 65 99 100 84 99 100 100 100 100 100 96 100 100 87 88 88 79 75 66 78 62 48 47 62 60 72 71 68 61 56 54 74 49 47
96 59 61 37 61 42 40 31 31 54 72 63 65 84 75 71 87 100 100 84 65 88 89 85 100 100 85 76 95 97 96 89 81 77 77 77 74 78 76 78 70 59 57 51 45 64 77 78 73
100 65 65 44 58 55 40 34 29 29 48 76 67 98 100 69 73 92 100 100 100 76 70 95 88 92 95 94 76 56 53 47 47 44 56 58 57 70 76 72 62 62 67 68 86 98 100 85 86
100 87 66 58 43 68 47 39 35 31 26 72 77 67 90 100 62 69 94 100 99 89 67 56 54 52 62 51 46 44 44 43 58 67 81 82 92 89 81 63 61 75 80 82 89 99 100 90 73
100 98 70 78 38 77 59 51 40 27 28 32 65 72 62 52 69 58 58 86 68 76 61 59 58 55 54 48 44 52 60 62 100 72 90 100 99 92 91 100 81 88 79 67 64 64 64 77 94
100 100 97 91 35 81 71 52 40 36 25 29 34 54 67 73 62 55 57 51 54 87 100 100 70 62 58 50 56 53 60 96 77 100 64 89 100 100 100 100 100 84 98 100 100 100 100 100 100
100 100 100 62 38 57 80 60 47 39 30 27 34 28 42 68 73 68 69 72 67 69 57 59 80 100 59 54 52 88 67 83 100 95 70 95 100 100 100 100 100 100 98 98 97 100 100 100 100
100 100 80 60 42 97 99 70 50 42 41 29 26 28 36 30 54 66 57 61 64 68 75 70 82 77 69 53 62 80 91 91 71 74 95 92 93 100 100 100 100 98 100 100 100 100 99 94 92

GFSSGP_250_rhum_039.txt.gz
RH
55 48 39 34 26 20 15 12 10 10 7 6 7 7 7 7 6 7 6 7 100 100 100 82 86 100 99 100 88 17 13 13 15 18 16 16 16 14 14 14 14 13 12 10 11 10 9 10 10
54 42 37 37 26 16 12 10 8 7 7 7 6 6 6 7 6 14 8 7 100 100 100 100 92 98 82 80 100 100 82 45 14 14 15 16 17 18 18 15 16 16 13 12 12 13 13 12 12
51 40 31 25 18 13 10 8 8 8 7 6 6 8 10 8 6 8 19 89 98 97 96 100 100 100 100 100 100 97 91 88 81 17 14 15 16 18 18 19 17 16 15 16 15 16 14 14 15
40 30 21 17 13 11 9 9 9 9 8 9 10 32 58 33 12 9 67 100 84 78 83 88 81 97 100 100 100 68 68 56 63 55 18 18 17 17 17 19 19 20 18 18 18 18 19 18 17
30 20 15 14 14 12 11 10 13 18 15 16 35 100 100 99 88 60 93 100 100 96 97 100 90 98 100 100 100 77 57 70 82 66 48 22 23 26 25 21 20 19 20 18 18 19 19 22 20
19 16 17 16 13 12 10 13 16 14 15 19 100 93 100 97 83 100 100 100 89 98 95 100 100 100 100 100 100 100 74 92 98 98 88 90 40 30 37 34 29 28 28 27 30 30 31 27 36
17 17 17 16 13 12 12 15 17 27 62 100 100 98 98 83 81 92 100 100 100 99 98 99 100 100 100 100 100 100 99 85 100 100 100 77 94 70 51 53 50 50 40 38 43 42 39 41 34
22 19 16 16 13 12 14 16 48 96 100 100 100 96 100 100 89 97 100 100 100 100 100 100 100 100 100 100 100 98 81 83 100 100 100 94 75 84 83 91 91 85 75 84 100 82 75 63 65
19 19 16 16 11 20 16 61 100 100 100 100 100 86 100 72 81 76 92 100 100 100 100 100 100 100 100 100 98 100 78 93 100 100 98 100 99 85 98 100 100 100 100 100 100 100 90 78 64
21 20 20 15 13 23 39 100 100 100 99 100 100 100 100 53 62 59 52 85 100 100 100 100 100 100 100 99 100 100 100 100 100 80 82 100 100 100 100 100 100 100 100 100 97 80 74 80 68
21 24 25 15 20 22 32 95 100 100 96 100 100 100 98 62 67 87 98 100 100 100 100 100 100 100 92 100 98 100 100 98 71 83 98 100 100 100 100 95 76 94 100 100 99 100 100 85 100
21 27 27 16 29 24 26 63 100 100 100 100 74 89 78 86 67 100 100 100 100 100 100 95 100 100 79 86 90 93 89 82 89 73 100 90 100 100 100 100 100 100 100 100 100 100 99 99 100
24 27 30 19 35 27 36 80 100 100 98 82 87 92 92 98 76 100 100 100 100 100 100 100 100 100 78 62 44 69 70 58 57 96 100 96 100 100 100 100 100 100 100 100 100 97 100 100 100
34 26 36 24 43 34 60 99 100 97 100 81 70 56 58 65 70 100 100 100 100 100 100 100 100 87 59 98 91 97 85 64 68 59 74 100 92 100 100 100 100 100 100 100 100 100 100 100 100
37 29 39 32 48 39 38 82 85 82 100 40 54 69 62 71 72 78 100 100 100 100 100 100 100 100 100 100 100 99 100 100 100 98 77 100 100 100 100 100 91 100 100 100 100 100 100 100 100
46 45 31 39 35 59 42 34 44 52 86 97 78 52 59 66 100 100 100 100 100 100 100 100 100 100 100 100 100 100 100 100 100 100 90 100 100 100 99 99 96 100 100 100 100 100 99 92 100
77 62 48 35 34 31 71 58 40 60 100 100 97 89 75 59 100 100 100 100 100 99 100 100 100 100 100 100 100 98 84 90 100 100 100 100 100 100 94 77 71 81 81 97 100 100 100 100 100
76 91 76 48 33 33 35 63 100 50 61 81 72 98 75 66 95 91 100 100 100 100 100 100 100 100 100 100 95 77 53 66 98 100 100 100 100 100 100 100 100 100 98 100 100 100 100 100 100
69 99 88 59 41 31 33 35 50 100 100 55 98 92 66 80 95 93 94 75 67 90 97 68 100 100 100 94 80 59 45 53 76 99 100 100 100 100 100 75 86 85 92 100 100 100 100 100 100
69 97 98 82 52 30 31 24 37 70 100 88 84 54 62 55 80 99 77 75 86 95 86 94 88 83 94 77 61 40 34 71 89 100 100 100 100 100 100 100 100 100 100 100 100 100 100 100 99
68 96 100 93 56 48 32 34 26 40 57 66 96 49 97 59 71 76 75 89 93 74 56 60 56 58 60 65 49 41 84 92 73 76 100 100 100 100 100 98 100 100 100 100 95 88 79 87 85
95 55 100 93 82 62 33 34 33 27 41 53 67 60 76 65 62 96 92 100 100 98 93 64 75 94 90 93 97 100 100 100 96 96 88 73 74 62 82 87 84 79 73 94 79 87 76 75 75
97 43 85 100 82 56 36 32 35 27 33 64 78 61 49 56 63 100 100 100 100 100 61 78 100 100 100 100 100 100 100 72 81 100 100 100 94 92 100 100 86 85 76 76 85 85 76 65 51
99 46 51 100 84 58 40 33 41 31 26 38 70 74 78 56 54 81 100 100 100 100 100 89 85 82 84 63 79 71 62 84 100 91 96 91 84 68 65 71 72 67 54 52 56 67 58 48 49
100 96 100 100 91 69 48 36 31 38 31 28 42 68 72 56 58 53 72 100 100 93 75 84 95 87 80 99 100 100 98 82 53 57 64 49 46 60 75 91 79 74 64 73 73 71 62 62 73
100 100 100 100 92 75 66 42 36 50 38 35 28 44 74 87 60 54 56 64 100 95 97 97 84 71 72 76 74 65 60 62 64 52 44 41 46 64 99 96 97 98 100 87 76 72 76 92 94
100 100 90 96 93 100 81 46 35 52 46 40 32 28 32 75 97 60 65 58 58 80 100 94 67 49 44 42 40 41 40 42 40 40 44 53 66 84 98 100 100 100 100 95 85 91 96 100 97
98 97 78 79 88 100 88 47 36 66 66 45 35 29 28 28 54 71 60 52 56 60 62 69 58 60 100 100 100 83 100 78 46 70 94 91 71 70 100 96 100 100 100 100 98 99 100 100 100
99 80 95 82 94 100 90 53 38 81 90 59 40 33 32 28 27 24 52 46 54 82 87 71 43 100 100 100 100 78 99 100 92 100 100 90 100 100 100 100 100 100 100 100 100 100 100 100 100
100 91 100 100 100 100 87 85 50 45 90 73 64 38 36 35 32 28 23 45 50 55 80 76 64 92 100 100 100 76 96 100 100 96 100 100 100 90 100 100 100 100 100 100 100 100 100 100 100

GFSSGP_250_rhum_042.txt.gz
RH
47 78 81 78 62 47 37 23 19 16 12 11 9 7 7 6 7 6 6 8 8 11 100 100 92 100 100 100 100 100 100 100 100 74 33 28 26 24 22 20 20 18 16 16 14 13 12 12 12
76 76 72 68 50 32 24 18 14 10 8 7 7 7 6 7 7 7 9 9 10 13 87 100 100 100 100 92 93 100 84 98 95 100 70 30 22 20 18 21 21 19 18 19 22 18 18 17 16
69 59 50 39 29 22 18 13 9 8 7 6 7 6 7 6 5 6 7 16 10 72 100 100 100 98 99 98 95 97 100 100 100 100 100 100 94 62 28 16 17 18 21 21 19 18 19 21 21
51 49 37 27 20 16 13 10 13 10 10 10 9 8 8 8 6 6 7 10 11 100 100 89 100 98 100 87 78 86 100 100 100 100 86 85 92 82 93 71 19 15 17 18 17 17 19 21 19
63 38 29 20 18 17 11 10 15 22 12 17 17 15 15 16 16 11 13 13 12 100 100 100 100 100 100 93 100 95 82 100 100 100 74 77 80 72 82 85 60 24 17 17 17 18 19 20 19
40 29 26 22 16 13 12 12 15 33 20 24 58 53 41 60 23 26 25 19 58 100 91 78 100 100 100 96 100 100 72 88 100 67 63 94 86 75 82 89 79 49 28 22 24 26 27 29 28
39 30 25 20 15 15 12 12 17 50 22 91 100 100 98 100 96 99 56 20 100 100 100 86 100 95 100 100 97 100 97 100 94 61 67 70 72 67 68 68 89 87 78 47 43 45 42 63 52
46 33 23 17 14 17 12 15 30 74 25 99 100 100 100 100 100 100 99 82 100 78 86 100 100 80 100 100 100 100 100 91 76 73 72 62 50 56 70 68 64 74 87 93 90 75 79 100 77
42 25 25 15 17 14 16 25 85 99 72 100 100 97 90 84 100 100 100 100 100 88 79 87 100 100 100 100 100 100 97 74 90 100 87 67 46 40 66 82 86 100 100 100 100 87 84 91 88
31 24 19 18 16 18 23 68 94 100 98 100 100 96 72 60 100 100 100 100 97 65 77 90 96 100 100 100 100 100 100 100 94 99 89 76 35 34 47 96 100 98 92 100 100 99 100 100 100
45 24 22 22 16 22 27 94 100 100 100 100 100 100 63 71 89 100 100 100 74 79 100 100 100 100 100 100 100 100 100 100 100 74 61 45 38 51 49 76 90 100 100 100 98 96 100 100 93
44 32 25 25 18 29 37 91 100 100 92 99 68 83 58 54 64 90 100 100 93 100 100 100 100 100 100 99 100 100 97 86 80 73 41 43 51 51 56 58 94 100 100 100 98 100 100 100 100
30 58 36 26 23 34 53 55 100 100 85 83 92 92 75 51 41 64 92 100 100 100 100 100 100 100 100 100 100 94 100 86 67 84 58 58 62 57 59 80 76 99 96 88 92 100 100 100 100
32 52 34 30 29 30 79 75 96 100 74 64 73 88 88 47 50 60 67 92 100 100 100 100 93 97 100 100 100 100 100 100 93 88 87 76 62 57 56 75 90 76 95 98 92 84 100 100 100
32 49 40 52 39 29 43 69 63 75 71 60 72 53 64 56 43 56 74 97 100 100 100 100 100 100 91 94 95 100 86 74 81 80 99 88 69 64 73 87 64 72 96 100 100 100 100 100 100
39 49 41 45 53 36 33 43 44 57 61 44 51 48 39 38 47 53 56 99 100 100 100 100 100 100 100 100 100 98 96 92 82 74 76 68 79 95 97 94 92 84 96 100 95 94 83 100 99
39 44 77 47 62 47 31 34 31 46 48 42 43 53 52 62 58 56 67 82 100 100 100 100 100 100 98 98 85 94 100 100 100 89 91 91 84 81 99 100 100 100 100 88 94 69 67 60 92
23 34 55 78 43 75 51 34 28 40 60 53 53 62 52 55 62 61 70 86 100 100 100 100 100 96 96 78 100 100 100 100 94 90 87 89 84 91 89 95 100 100 86 83 65 65 71 87 82
42 28 44 78 50 83 56 33 32 28 34 47 72 67 73 77 66 86 72 100 100 100 100 100 100 96 100 90 94 100 100 91 93 100 100 90 75 58 56 100 99 100 80 81 100 100 100 100 100
27 39 55 69 67 90 67 36 33 32 27 39 84 100 86 58 53 76 95 100 100 100 100 100 100 86 100 94 100 100 100 100 100 100 100 82 85 61 50 77 100 100 100 100 100 100 100 100 100
28 31 64 64 61 60 81 49 36 31 30 26 40 55 78 84 87 58 79 100 100 100 100 100 100 100 100 100 100 100 100 100 100 97 80 71 54 56 96 100 99 100 100 100 100 95 96 100 95
39 30 68 97 56 66 73 66 34 36 31 25 34 48 57 69 83 65 70 80 87 86 100 100 100 100 100 92 89 100 90 80 68 87 75 64 56 58 66 69 72 67 89 74 57 75 82 81 79
59 78 88 100 95 72 72 73 47 38 40 32 23 34 46 52 56 65 66 77 73 72 72 79 87 90 80 60 63 74 65 59 48 73 86 100 100 100 100 100 100 100 97 82 86 76 59 65 62
92 98 100 100 100 97 83 66 56 44 43 35 24 23 32 39 47 46 49 76 100 100 94 62 49 54 56 52 50 49 47 68 92 98 99 97 89 85 91 84 78 69 57 45 44 44 60 73 61
92 73 85 100 100 94 81 58 93 57 39 35 35 24 26 27 42 44 44 60 90 100 100 86 82 74 47 61 73 86 90 92 99 100 100 91 92 79 75 67 53 48 68 92 75 68 67 73 52
63 56 67 100 97 99 56 58 100 67 46 46 30 34 29 29 32 36 51 48 68 86 98 88 94 100 89 60 89 83 76 56 68 65 59 54 51 46 54 62 83 94 100 100 85 41 49 57 76
36 61 94 98 97 58 68 58 87 83 61 41 30 29 36 35 30 29 44 52 51 50 67 85 80 68 65 64 67 61 62 73 88 74 100 100 100 100 90 75 88 100 100 98 65 77 98 93 84
39 50 83 87 84 73 85 56 88 90 75 54 39 29 39 37 35 35 35 30 49 54 54 57 74 86 98 81 68 76 89 73 85 100 100 100 90 90 100 100 100 100 100 100 100 100 86 90 96
37 45 92 83 76 63 84 74 94 99 78 63 47 40 29 31 31 32 31 36 34 44 47 48 54 61 75 73 77 90 67 42 84 100 100 99 100 100 100 100 100 100 100 99 73 100 100 100 100
37 45 96 97 91 60 90 100 89 97 83 65 64 50 38 27 26 26 27 31 40 37 37 57 57 58 49 61 99 100 99 100 100 100 100 100 100 100 100 100 100 100 100 100 100 100 100 100 100

GFSSGP_250_rhum_045.txt.gz
RH
45 33 30 35 63 63 56 48 40 29 20 15 13 11 11 10 8 9 10 10 9 11 11 12 20 18 32 52 80 100 100 100 100 100 100 100 100 70 62 81 86 81 67 48 41 42 37 29 28
68 73 67 78 70 61 45 31 25 20 15 12 9 7 7 7 6 6 6 7 7 22 22 20 31 29 90 100 100 100 100 69 90 78 97 100 99 100 100 79 68 55 50 49 40 34 37 44 35
56 70 79 64 49 35 31 24 18 15 11 10 8 8 7 7 7 7 6 6 7 8 16 12 19 66 100 97 100 100 100 94 100 100 100 100 100 100 99 91 80 58 45 41 35 27 25 26 23
54 61 48 35 38 33 24 19 16 11 9 11 8 7 8 6 6 7 6 7 7 9 10 18 90 100 100 100 100 100 100 100 99 93 77 100 100 96 95 81 83 85 55 41 28 26 21 18 18
60 55 67 77 32 24 19 16 12 10 12 12 10 10 10 8 8 9 11 8 8 10 15 100 100 100 98 98 100 100 90 98 96 71 100 100 97 93 81 70 57 58 73 76 57 41 35 27 20
69 62 69 36 26 22 21 15 12 12 13 14 22 22 14 14 18 15 11 11 8 17 79 100 100 90 91 100 98 80 100 83 91 96 100 100 96 86 73 61 41 32 38 47 49 53 52 50 37
58 58 42 34 26 22 15 13 13 11 13 15 49 40 32 30 31 20 17 11 40 37 100 92 100 98 95 100 100 100 100 100 98 100 100 100 100 85 62 42 30 27 30 35 45 50 50 59 61
67 48 63 43 27 18 16 14 16 16 21 37 95 96 81 65 80 36 19 19 29 100 100 100 100 100 100 100 100 100 100 100 100 88 100 100 90 76 51 38 33 22 19 26 42 43 40 63 85
77 79 54 32 20 16 16 15 23 35 69 81 100 100 100 94 100 74 51 22 39 100 100 100 96 100 100 100 91 100 100 100 100 100 83 100 97 81 46 39 22 20 24 28 30 44 43 64 87
100 44 58 46 33 22 17 25 42 98 100 100 100 100 100 100 100 100 74 37 68 100 100 100 100 100 100 99 100 100 99 100 100 100 98 84 76 58 46 24 22 29 38 33 37 56 63 63 77
76 66 52 47 32 22 20 44 57 100 100 100 100 100 100 91 100 100 100 49 100 100 100 100 100 71 98 100 100 100 100 100 100 100 100 78 44 55 30 23 22 45 46 39 42 53 63 70 80
81 74 52 34 40 24 20 37 58 100 100 99 99 93 93 69 100 100 100 98 100 100 100 100 100 100 100 100 100 100 100 100 100 100 100 83 66 55 37 29 40 50 48 41 44 76 84 98 80
75 56 50 29 45 48 25 27 69 100 100 97 88 83 69 49 81 100 100 100 100 100 100 100 100 100 100 100 100 100 100 100 100 98 92 88 77 54 42 57 46 54 54 51 54 59 61 50 72
79 68 60 30 41 53 34 26 44 75 81 100 93 78 67 49 73 95 100 100 100 100 100 100 100 100 100 100 100 100 100 100 89 100 82 81 67 72 63 74 80 55 57 58 66 99 93 89 91
100 82 56 35 39 43 54 33 27 25 42 68 73 83 75 64 39 88 100 100 100 100 100 100 100 100 100 100 100 100 100 100 100 100 100 99 79 100 76 67 70 74 69 75 76 80 77 76 89
100 91 56 34 37 51 47 48 27 26 22 38 42 50 42 51 41 39 70 91 100 100 100 100 100 100 100 100 98 98 100 100 100 100 100 100 88 64 64 77 83 79 78 81 84 100 97 89 90
99 86 65 38 33 31 39 61 52 31 27 25 44 38 47 46 33 39 38 77 98 100 100 100 100 100 100 100 100 100 96 100 93 100 94 94 80 74 81 77 84 88 93 100 95 100 100 100 94
64 88 88 46 39 36 27 61 60 35 29 25 30 51 49 40 43 41 39 43 65 99 100 100 100 100 100 100 100 100 100 100 89 88 90 70 63 78 90 89 98 100 90 85 72 100 100 80 81
60 46 76 69 44 62 36 52 43 43 30 28 24 28 52 62 65 58 63 44 45 70 99 100 100 100 100 100 100 100 100 100 96 81 77 67 82 94 98 97 100 91 71 85 72 67 61 72 100
68 55 45 44 46 83 95 50 65 46 32 30 27 24 39 68 57 44 50 67 58 56 75 99 100 100 100 100 100 100 100 98 92 91 78 75 97 97 99 100 76 69 80 100 100 100 100 100 100
35 46 40 44 56 86 100 98 75 56 52 40 32 26 24 42 43 37 49 66 58 67 69 100 100 100 100 100 100 100 100 94 94 83 100 100 100 100 96 81 80 77 94 87 84 90 88 99 83
38 32 38 41 60 71 100 100 99 58 57 46 37 28 24 26 43 45 40 52 62 64 93 100 96 100 100 100 100 100 100 100 100 100 100 93 90 87 77 90 88 100 81 96 100 98 89 96 97
43 37 35 31 34 91 100 100 92 63 48 50 43 36 25 23 29 46 39 43 46 62 68 100 100 100 100 100 100 100 100 100 100 95 91 87 79 71 83 87 100 97 82 97 99 84 76 73 59
56 46 38 33 42 95 96 100 84 68 49 50 57 39 32 25 24 27 46 43 45 62 73 85 89 100 100 100 100 100 100 97 97 87 80 74 70 68 76 89 82 79 81 81 76 63 61 56 50
71 64 45 35 35 63 55 100 65 61 66 54 61 56 41 28 27 26 29 46 43 48 91 92 100 96 80 80 79 78 80 86 82 80 87 76 85 85 78 67 73 79 77 63 48 51 48 49 38
72 71 49 39 32 43 72 96 68 77 84 61 67 54 39 28 28 30 24 30 48 44 56 94 100 100 80 65 73 66 64 71 70 87 76 58 49 51 97 100 75 72 87 97 94 66 98 90 52
78 53 58 45 37 30 92 100 81 60 75 74 78 56 47 35 28 30 28 25 26 46 45 65 96 100 100 100 100 100 86 78 89 70 58 57 75 100 72 55 63 45 33 87 69 73 99 93 99
80 88 74 68 57 38 42 98 100 68 62 98 83 66 50 46 35 32 28 27 24 24 38 48 54 68 83 87 76 88 80 68 56 60 64 78 84 85 75 45 82 99 100 100 99 100 78 96 100
100 100 100 86 57 42 39 90 92 80 63 73 91 76 57 50 43 36 34 26 23 22 24 29 48 46 55 63 74 77 78 85 72 58 56 68 96 98 71 100 100 100 100 100 100 100 100 98 100
100 90 68 66 66 58 42 90 100 94 85 54 82 85 74 63 49 44 46 29 27 23 19 20 30 37 48 51 50 58 60 68 77 67 61 85 99 93 100 99 100 100 100 100 100 100 98 100 95

GFSSGP_250_rhum_048.txt.gz
RH
22 35 31 42 40 40 33 39 51 48 33 22 16 14 11 11 11 8 9 10 11 11 12 14 19 17 18 20 41 55 59 67 60 44 62 100 100 100 100 75 81 93 96 96 93 75 74 65 64
28 38 40 49 80 64 41 30 31 24 20 18 16 12 11 10 8 7 8 8 8 7 10 11 14 16 18 27 31 62 66 45 36 70 100 100 100 99 100 100 99 86 76 59 59 67 70 59 51
14 19 32 52 72 59 42 32 23 19 19 16 15 12 10 9 6 7 7 7 8 11 13 19 15 22 16 40 24 24 40 58 74 85 100 100 100 100 100 100 100 98 88 68 64 49 58 64 59
17 26 62 78 73 54 41 29 20 18 15 14 13 10 11 8 8 8 8 8 11 25 41 24 33 35 26 33 18 21 59 100 89 100 100 100 100 100 100 100 97 88 86 80 68 61 64 70 57
77 88 78 76 61 47 32 22 16 13 11 10 10 11 10 9 8 8 8 8 8 11 19 37 28 26 49 33 32 53 91 100 95 94 100 100 100 100 92 85 74 73 63 55 38 26 27 41 54
65 92 90 53 52 41 28 26 23 16 12 11 10 11 12 12 10 13 14 15 12 21 55 58 22 35 41 42 78 100 100 100 100 100 100 100 100 100 100 96 74 64 56 43 32 23 23 23 27
98 90 51 52 68 47 31 32 25 12 10 11 11 18 28 45 30 36 46 22 26 37 100 96 33 52 39 52 100 93 100 100 100 100 100 100 100 100 100 86 68 52 44 30 19 22 22 25 27
70 48 56 93 65 44 42 32 14 14 14 16 34 46 78 80 74 80 62 32 44 40 24 24 61 47 53 100 92 100 94 99 99 72 97 100 100 100 100 79 61 48 40 24 23 25 26 25 24
51 61 100 70 66 54 40 21 14 15 27 56 59 69 100 100 95 100 68 44 70 76 74 100 97 85 100 100 100 100 100 100 95 90 84 100 92 78 100 93 66 43 33 22 22 21 26 28 25
60 98 100 82 72 44 34 21 15 28 61 77 100 86 99 100 93 100 86 48 97 98 98 100 100 100 100 100 100 99 100 95 80 83 100 90 74 78 87 71 52 36 26 23 23 23 30 31 26
82 100 95 76 43 40 31 24 20 35 79 81 82 90 100 100 83 100 100 62 96 100 100 100 100 100 78 100 100 100 100 98 100 98 100 100 100 94 90 60 39 29 31 41 36 35 32 38 36
100 100 83 67 53 33 34 44 24 27 59 99 98 83 93 86 77 100 99 75 72 100 100 100 100 100 100 100 100 100 100 100 100 100 100 100 98 91 77 51 38 32 33 47 53 45 47 44 46
100 94 85 75 48 37 32 48 42 30 25 34 95 100 90 95 74 83 88 100 62 100 100 100 100 100 100 100 100 100 100 100 100 100 100 100 99 84 76 52 44 40 47 61 55 57 58 64 71
100 100 100 82 65 36 34 38 54 51 27 25 34 92 90 91 74 72 91 100 68 96 100 100 100 100 100 100 100 100 100 98 100 100 100 100 99 82 72 62 71 73 53 62 58 62 79 82 82
99 95 100 94 94 45 30 32 34 39 28 25 23 26 69 82 77 62 81 100 96 100 100 100 100 100 100 100 100 100 100 100 100 100 100 100 100 100 97 84 80 55 73 83 92 93 78 87 85
45 82 77 54 92 58 43 36 40 35 38 25 26 22 39 47 63 55 64 100 100 100 100 100 100 100 100 100 100 100 100 100 100 99 88 100 100 100 100 98 89 70 91 82 77 65 90 93 93
58 80 64 43 70 61 50 31 48 45 46 33 25 24 25 44 52 49 37 87 98 100 100 100 100 100 100 100 100 100 100 100 100 100 100 100 100 100 86 97 95 83 68 82 85 77 74 72 78
72 66 71 66 56 69 51 44 54 71 71 38 31 25 23 22 44 47 38 52 100 89 100 100 100 100 100 100 100 100 98 89 88 93 94 93 92 96 93 84 72 71 74 80 64 73 66 69 82
51 45 44 45 57 46 48 66 65 79 92 58 30 24 26 21 28 50 42 36 79 80 89 100 100 100 100 100 100 100 100 100 100 100 100 100 97 90 100 88 73 67 86 70 80 72 65 88 98
71 55 52 39 38 47 41 69 70 98 87 52 34 30 27 26 20 31 41 36 33 61 83 99 100 100 100 100 100 100 100 100 100 90 86 100 98 100 100 97 98 75 100 80 80 84 81 97 98
59 87 55 44 27 45 42 54 84 99 64 55 33 25 36 37 26 22 38 41 41 46 47 85 89 99 100 100 100 100 100 100 100 100 98 100 100 100 99 100 100 97 90 84 80 90 94 83 100
69 47 82 54 31 32 37 45 76 100 65 63 41 26 27 37 28 21 22 40 38 48 60 69 83 99 100 100 100 100 100 100 100 100 100 100 100 100 100 100 100 89 89 88 79 86 94 100 94
99 85 100 59 41 36 36 37 100 100 71 66 48 33 27 35 36 26 23 30 45 38 63 73 84 81 96 100 100 100 100 100 100 100 100 100 100 100 100 95 96 91 85 95 93 94 82 63 50
100 93 92 49 55 42 41 36 100 81 84 73 58 44 35 27 36 30 25 25 36 44 39 57 61 85 100 100 100 100 100 100 100 100 100 100 100 100 100 93 100 90 76 88 80 75 64 45 50
100 72 37 46 71 57 60 37 100 60 92 82 76 69 47 32 34 33 26 27 27 37 42 38 47 56 67 100 100 100 100 100 100 99 100 97 100 100 100 100 97 86 97 81 79 58 41 40 43
56 33 30 94 100 75 82 44 47 39 59 100 81 94 73 48 31 36 36 26 27 30 32 46 43 78 95 74 90 100 100 100 99 100 100 98 89 100 100 98 99 97 92 75 49 35 30 24 46
71 48 88 65 95 100 86 61 56 46 40 88 90 100 90 73 35 36 41 40 32 27 28 31 40 43 71 100 100 99 99 95 94 82 87 100 95 94 93 100 100 95 91 66 42 31 66 75 74
55 70 93 100 100 100 88 86 73 50 49 70 97 100 100 83 56 43 44 46 52 45 29 26 28 32 41 64 93 100 100 100 100 100 100 98 90 78 79 92 92 95 84 56 40 59 63 100 86
94 100 100 100 94 79 99 97 88 66 54 63 100 100 100 87 81 63 46 39 47 49 44 29 25 25 26 32 45 72 95 100 100 100 94 92 80 72 67 68 75 79 77 44 94 100 100 100 99
100 100 100 71 75 98 100 96 94 76 62 73 100 100 100 100 96 83 58 39 38 48 42 41 29 25 23 28 31 46 47 48 65 79 78 79 62 73 68 56 54 70 58 45 76 100 100 100 100

GFSSGP_250_rhum_051.txt.gz
RH
13 12 10 10 11 12 15 15 23 24 37 24 16 13 10 8 9 8 7 9 13 13 13 14 14 13 15 17 19 20 27 25 30 40 45 39 51 58 87 100 100 100 90 58 52 52 54 56 48
14 13 12 10 11 11 14 21 25 32 27 23 16 13 11 9 8 8 8 10 13 11 13 12 12 12 13 15 14 18 25 28 30 41 56 51 45 48 100 100 100 100 100 85 70 67 49 53 63
14 12 12 12 13 23 43 53 56 36 23 20 17 14 11 9 8 8 10 10 9 9 11 25 13 9 9 10 14 17 29 32 28 30 47 40 46 96 100 100 100 100 95 94 98 91 76 62 49
15 13 14 19 42 61 79 57 40 26 25 21 14 10 10 9 10 10 9 9 10 14 34 23 18 24 18 12 14 18 30 38 25 34 61 92 92 100 100 100 92 94 86 100 92 82 60 43 30
16 15 26 33 79 86 53 59 35 23 21 14 10 10 11 10 11 11 10 11 15 17 38 30 23 37 24 30 27 32 27 24 25 26 54 78 100 100 100 100 100 100 87 79 83 61 49 44 31
16 23 72 89 90 51 83 47 24 26 23 12 10 11 13 14 14 17 23 22 17 21 59 38 39 36 57 51 66 45 33 24 59 36 90 100 100 100 100 100 100 91 92 62 51 45 38 20 29
26 59 81 64 53 87 60 43 34 32 15 12 15 24 31 23 40 49 48 47 43 28 96 100 86 62 74 77 66 61 43 45 54 94 100 100 100 100 100 100 100 100 79 56 43 34 26 20 21
40 60 54 51 98 70 58 48 36 18 15 12 36 49 62 58 100 80 94 80 66 53 100 96 100 100 100 100 73 61 49 73 100 98 100 100 100 100 100 100 100 98 69 51 36 30 22 20 20
30 56 56 78 76 74 60 39 36 18 16 18 56 56 68 86 93 99 94 96 73 92 100 76 100 100 100 100 95 70 30 96 100 100 100 100 100 100 100 100 100 83 58 45 34 27 22 20 19
37 57 71 100 72 65 49 38 29 21 22 21 38 63 52 67 92 100 98 100 73 100 100 100 100 100 100 99 100 83 100 100 100 100 100 100 100 97 100 100 86 69 54 34 27 27 23 22 23
48 73 95 93 73 64 43 39 36 24 27 25 25 39 51 69 88 100 100 100 88 96 100 100 100 100 100 100 98 100 100 100 100 95 100 99 100 83 78 62 83 75 53 35 26 25 24 23 22
61 96 100 93 80 63 56 43 30 24 27 24 27 27 83 64 46 86 99 100 100 91 100 87 100 100 100 100 100 100 91 100 100 98 99 98 91 74 90 100 99 67 46 43 35 35 32 27 29
47 85 99 75 98 81 81 49 29 26 36 28 25 24 29 81 67 42 95 100 100 99 100 100 100 100 100 100 100 100 100 100 100 88 100 100 99 90 91 86 84 66 56 55 40 35 37 34 47
35 88 100 99 75 91 98 57 36 30 40 52 29 23 23 30 66 57 84 96 100 100 100 100 100 100 100 100 98 100 100 100 100 100 100 100 98 67 76 98 87 72 70 49 40 38 45 65 69
44 58 80 74 48 62 89 55 52 39 54 58 34 25 22 36 42 64 58 82 100 100 100 100 100 100 100 100 100 100 100 100 100 100 100 100 100 100 83 74 83 81 74 60 59 63 53 63 64
46 47 60 53 54 56 65 71 45 66 63 42 35 29 23 22 32 34 40 74 94 100 100 100 100 100 100 100 100 100 100 100 96 96 94 92 100 100 100 100 100 100 79 75 96 96 66 46 65
42 56 49 72 76 60 70 67 50 74 83 51 29 28 28 22 20 27 34 55 82 100 100 100 100 100 100 100 100 100 100 100 100 100 100 100 100 100 100 99 88 85 88 100 91 64 64 56 64
41 63 51 39 56 42 66 62 53 74 86 86 32 36 27 25 21 20 31 41 45 100 100 100 100 100 100 100 100 100 100 100 100 100 100 96 100 98 83 87 98 100 95 75 51 61 90 65 67
81 58 62 41 50 44 50 58 49 69 82 82 49 35 28 24 23 22 21 35 31 72 100 100 100 100 100 100 100 100 100 100 100 99 91 86 83 77 100 93 80 74 100 99 96 71 76 78 86
95 66 67 31 67 49 37 54 46 45 45 76 61 48 37 31 25 23 21 28 34 31 92 100 100 100 100 100 100 100 100 100 100 100 100 100 100 97 86 97 92 98 78 80 80 64 84 91 92
100 92 39 31 68 67 48 39 41 41 35 75 64 56 45 37 28 24 24 20 35 36 61 99 100 100 100 100 100 100 100 100 100 100 100 100 99 100 95 82 93 100 92 83 91 96 83 73 100
100 90 50 45 55 93 67 40 36 38 39 60 68 52 56 46 32 26 25 23 21 37 38 70 90 100 100 100 100 100 100 100 94 96 100 100 100 100 100 100 100 96 98 100 93 100 100 99 96
100 84 73 62 66 73 72 50 49 48 48 56 71 60 58 61 45 30 29 26 22 28 35 40 61 78 100 100 100 100 100 100 100 100 96 99 93 97 97 100 100 100 100 100 100 100 100 100 100
100 94 86 79 58 58 64 39 72 62 49 77 52 58 69 64 61 34 34 32 29 24 27 38 36 59 69 100 100 100 100 100 100 100 100 100 100 100 100 100 100 100 100 100 100 100 98 91 86
100 100 100 84 84 79 66 30 88 70 64 48 44 42 77 67 72 56 28 38 37 32 27 24 36 35 51 72 97 100 100 100 100 100 100 100 100 100 100 100 100 100 100 100 99 99 94 88 84
88 100 68 61 76 52 41 47 100 91 81 59 52 44 54 84 76 72 38 33 40 44 36 30 25 22 36 37 49 72 100 100 100 100 100 100 100 100 100 100 100 100 100 100 97 98 94 89 76
75 69 68 55 48 35 55 47 100 100 97 80 71 53 49 57 87 82 48 39 35 40 38 32 32 27 25 32 52 76 72 64 90 99 100 100 100 100 100 100 100 100 100 100 99 93 86 83 66
100 100 81 52 37 27 42 91 100 100 97 92 88 62 52 49 77 81 74 53 34 32 38 45 32 35 30 26 26 37 86 93 75 83 93 97 100 100 96 100 100 100 99 94 85 86 81 87 79
95 99 84 49 34 29 51 99 100 100 100 98 94 67 56 48 55 71 63 70 60 44 34 31 43 36 37 29 29 31 42 55 80 100 97 88 80 73 84 90 87 88 85 79 78 73 79 81 80
86 76 60 43 50 50 79 100 100 100 100 100 89 75 68 54 50 59 71 97 83 59 59 42 34 38 49 40 30 29 29 38 47 55 59 80 96 98 100 93 95 88 84 80 80 72 76 77 70

GFSSGP_250_rhum_054.txt.gz
RH
22 22 18 15 14 12 11 11 10 10 11 12 12 10 9 9 8 8 8 7 8 9 9 9 10 18 18 14 19 21 15 18 18 26 27 23 26 26 27 33 31 28 44 57 74 66 58 47 51
30 27 19 15 13 12 12 11 11 12 21 17 14 12 12 11 8 7 7 7 7 7 7 8 8 19 14 13 15 18 18 16 22 30 30 35 32 34 39 51 60 65 78 91 96 74 63 67 58
41 29 20 16 14 14 13 12 18 34 27 25 19 15 15 10 8 8 8 8 8 7 7 7 7 8 21 21 22 18 18 17 21 25 28 30 34 38 48 57 80 97 100 100 93 93 88 88 78
47 27 21 18 16 14 17 27 54 39 34 26 21 16 13 9 8 8 8 9 9 9 8 8 7 7 8 26 16 27 20 20 17 20 21 31 39 42 55 93 76 100 100 100 98 83 78 76 76
38 28 21 17 16 21 54 65 59 44 32 26 19 12 11 9 8 9 11 10 11 19 18 15 10 9 28 65 78 60 42 26 18 14 17 27 39 43 49 56 100 100 100 100 100 100 76 74 67
38 27 20 16 39 74 62 62 54 46 32 26 14 12 12 13 17 18 22 23 24 21 25 28 55 52 45 44 73 99 96 69 34 19 18 34 41 34 36 61 100 100 100 100 100 96 75 58 49
37 27 20 24 64 51 50 61 51 44 33 19 15 16 20 20 32 39 41 39 44 40 87 92 74 78 72 81 84 100 91 60 60 64 29 43 36 30 88 100 100 100 100 100 100 94 63 51 28
35 28 18 35 52 48 61 53 47 37 30 18 17 15 24 31 42 68 61 78 84 71 100 84 87 100 99 100 100 88 100 57 52 88 61 42 32 46 100 100 100 100 100 100 92 89 61 44 31
40 29 19 42 47 86 61 63 48 42 24 19 18 17 19 46 40 76 69 87 86 71 100 78 100 100 89 100 100 96 100 89 88 68 39 61 66 100 100 100 100 100 100 100 100 72 58 36 27
36 25 21 39 81 68 71 61 43 42 25 24 21 20 16 42 47 53 81 96 92 98 92 100 100 100 96 79 99 100 92 99 64 50 70 100 100 100 99 100 100 100 100 100 95 54 36 28 24
34 27 44 74 80 79 75 63 50 50 28 28 27 22 20 18 40 60 87 84 98 92 100 100 100 100 85 91 100 100 100 76 89 100 100 100 100 100 100 100 100 100 100 96 71 49 34 27 23
31 34 44 92 83 91 79 63 67 53 30 28 26 23 21 19 22 59 68 78 99 100 100 100 100 83 100 98 96 100 100 87 100 100 100 100 100 100 100 100 98 94 80 69 46 36 36 32 31
24 36 54 90 74 77 100 69 100 51 31 29 26 25 23 19 23 36 66 71 99 100 100 96 99 100 100 100 100 99 82 100 100 100 100 100 100 100 100 100 76 67 63 49 42 40 39 34 27
28 36 45 44 100 73 89 100 97 45 52 29 27 27 24 22 23 41 64 84 99 100 100 100 100 100 100 100 100 100 94 100 100 100 100 100 100 100 100 100 87 71 72 55 54 61 48 32 45
32 28 32 65 89 98 71 45 60 63 54 36 29 30 27 22 21 34 40 59 92 100 100 100 97 83 100 100 100 100 100 100 100 100 100 100 100 100 100 100 100 57 68 52 52 70 56 45 44
32 33 40 53 55 60 58 64 57 74 57 44 41 42 30 21 22 23 35 46 86 100 100 85 100 92 100 100 100 100 100 100 100 100 100 98 100 100 100 100 100 60 34 47 95 80 54 44 85
37 36 48 58 62 62 48 53 42 64 56 54 51 43 33 26 25 22 21 37 52 100 100 100 100 92 100 100 100 100 100 100 96 100 100 100 100 100 100 100 100 84 56 96 78 56 54 60 70
50 34 65 48 52 56 41 38 39 68 59 56 53 38 41 26 28 23 19 30 46 83 100 100 100 90 100 100 100 100 100 100 100 100 100 91 99 100 100 100 100 100 100 96 81 69 65 73 70
71 56 84 39 51 50 56 51 37 43 55 48 38 42 45 37 32 28 22 21 38 67 100 100 100 100 100 100 100 100 100 100 100 100 100 100 100 100 100 100 100 100 97 94 79 58 61 79 81
90 100 95 37 54 59 75 55 46 38 44 47 36 51 48 49 39 37 24 19 23 37 99 100 100 100 100 100 100 100 100 100 100 100 98 100 99 99 100 91 89 77 80 76 86 62 74 90 69
97 100 100 48 55 69 89 89 48 43 38 40 34 49 55 52 55 46 30 22 19 24 38 100 100 100 100 100 100 100 100 100 100 100 78 76 75 73 72 68 62 69 74 82 87 78 84 84 99
95 100 96 87 52 82 92 96 48 60 50 44 36 50 41 62 64 54 33 29 22 18 26 36 100 100 100 100 100 100 100 100 100 100 100 100 100 92 96 97 91 89 100 98 89 91 99 100 100
100 100 76 59 88 87 88 88 46 66 59 58 43 42 43 40 67 66 54 32 27 22 20 30 62 100 100 100 100 100 100 100 100 100 100 100 100 100 100 99 98 97 97 100 100 100 100 100 100
88 100 84 70 100 100 98 60 100 59 76 69 56 50 43 37 53 78 63 45 32 34 24 22 33 74 100 100 100 100 100 100 100 100 100 100 100 100 100 100 100 100 100 100 100 100 100 100 100
97 100 100 100 90 100 92 38 100 100 100 68 66 67 59 56 42 53 77 61 43 31 31 23 22 30 50 95 100 100 100 100 100 100 100 100 100 100 100 100 100 100 100 100 100 100 100 100 100
100 100 100 91 78 100 81 62 100 100 100 82 65 83 75 68 54 35 77 73 56 41 41 33 25 23 23 32 47 86 100 100 100 100 100 100 100 100 100 100 100 100 100 100 100 100 100 100 100
89 90 100 100 88 87 88 84 100 100 100 92 60 89 94 90 68 47 30 74 72 53 39 34 38 34 26 24 25 32 40 68 90 100 100 100 100 100 100 100 100 100 100 100 100 100 100 100 100
75 69 64 56 55 69 90 100 84 100 100 78 59 78 99 85 71 54 41 37 75 68 53 47 35 33 34 31 26 24 25 32 46 60 82 86 92 100 100 100 100 100 100 100 100 100 100 100 97
100 92 81 79 72 66 70 81 85 95 100 100 66 96 100 96 77 69 56 41 43 77 60 57 53 42 37 38 32 29 28 26 26 32 54 71 72 83 100 97 97 100 100 99 91 100 94 86 90
100 100 100 99 88 84 86 76 69 96 100 100 100 100 100 75 78 81 70 45 38 66 98 72 77 46 43 42 33 34 32 34 30 27 27 28 38 74 86 99 100 97 100 100 100 100 100 100 100

GFSSGP_250_rhum_057.txt.gz
RH
20 18 17 21 22 20 15 16 13 12 12 11 11 10 10 9 9 9 13 12 12 10 12 10 10 10 11 10 10 11 12 13 14 17 18 17 18 18 20 20 22 22 22 22 26 32 39 37 43
23 24 19 25 36 26 19 18 15 13 12 12 11 10 10 11 11 9 8 8 7 7 7 6 7 14 9 7 18 18 17 16 16 20 21 22 28 30 38 34 27 27 29 30 35 42 55 66 68
24 40 41 72 55 35 24 18 16 15 14 14 13 16 16 14 12 8 7 7 6 6 6 7 7 7 7 7 9 17 30 28 22 23 27 22 32 48 37 36 34 38 40 78 98 92 99 100 75
26 53 78 78 52 33 22 18 16 18 27 24 29 26 21 15 12 9 7 7 6 6 6 7 7 7 8 16 11 12 21 28 37 25 38 39 31 30 33 42 51 44 55 100 100 100 100 97 66
30 62 100 66 47 28 20 18 24 43 48 44 32 24 18 13 10 9 8 8 7 8 7 9 10 10 10 21 41 96 95 100 82 62 40 28 34 31 24 31 43 79 98 93 98 100 100 100 90
41 62 99 59 41 27 20 22 45 50 48 41 31 25 16 13 11 13 14 18 19 18 10 63 75 38 50 52 78 100 100 100 100 100 45 40 39 27 25 44 46 48 100 100 100 100 100 100 74
46 89 92 52 34 24 22 37 38 53 59 51 35 20 14 15 15 17 24 26 30 25 18 75 100 79 67 51 75 100 86 100 100 100 96 82 60 63 23 44 65 100 100 100 100 100 100 100 90
54 94 87 47 34 25 34 36 57 60 61 42 26 18 15 16 17 23 35 49 48 48 74 99 100 100 70 88 95 100 100 99 90 100 100 100 73 100 21 21 59 62 86 100 100 100 100 100 92
86 98 77 45 37 23 38 48 66 76 50 46 29 22 19 16 16 31 37 42 68 79 100 100 100 79 80 100 100 100 100 99 86 82 99 100 96 48 19 40 41 95 100 100 100 100 100 90 90
100 83 65 48 31 21 36 51 81 65 54 47 31 22 20 18 16 29 35 46 75 75 100 100 98 92 82 100 100 100 94 100 100 81 100 100 100 56 34 36 60 100 100 100 100 100 96 87 78
100 94 57 44 28 24 60 59 82 72 63 42 29 23 21 19 18 19 40 47 78 72 100 100 100 100 96 74 100 100 100 100 97 97 55 84 100 59 46 48 100 100 100 97 100 100 100 86 58
100 84 57 36 30 41 57 68 88 77 99 43 31 24 23 20 19 19 38 54 78 68 100 100 100 100 100 74 99 89 81 100 100 90 97 90 71 95 100 100 100 100 100 100 100 100 99 88 59
100 73 53 33 32 63 56 72 93 100 100 47 41 25 26 20 20 19 34 46 71 59 86 100 100 100 100 79 70 100 100 100 100 98 99 76 89 100 100 100 100 100 100 100 100 100 92 71 46
93 67 52 28 33 91 51 72 77 100 100 51 38 46 31 24 25 20 27 58 74 87 56 77 100 97 94 91 100 100 74 93 94 78 92 100 96 100 100 100 100 100 100 100 85 73 58 43 30
99 61 49 28 33 68 51 49 100 57 50 67 45 42 37 26 31 22 19 40 65 100 81 83 85 77 83 94 100 81 95 85 76 100 100 100 100 100 100 100 100 100 100 100 86 67 49 35 36
93 61 57 31 37 39 97 74 65 49 59 64 60 43 39 34 32 27 21 20 50 93 79 90 100 96 77 87 100 87 100 97 100 100 99 100 100 100 93 100 100 100 100 100 100 93 58 30 53
94 64 52 32 32 35 46 47 52 50 63 59 59 46 42 41 36 32 25 18 34 82 100 84 100 100 100 100 91 100 100 96 100 100 100 100 100 100 100 100 100 100 100 100 98 74 45 42 37
100 66 39 31 44 30 34 46 52 34 51 44 53 46 42 46 42 33 29 20 21 53 100 90 100 100 100 100 100 100 100 98 100 100 100 100 100 100 100 100 100 93 99 85 96 69 45 36 34
85 64 49 39 40 33 30 28 54 36 40 40 45 42 44 50 34 43 33 23 20 36 100 100 100 100 100 100 100 100 100 100 100 100 100 100 100 96 88 100 100 100 100 100 63 73 42 40 52
83 70 58 42 50 43 36 48 51 42 44 43 41 33 34 32 43 45 38 29 22 31 87 100 100 100 100 100 99 88 100 100 100 100 100 100 100 100 100 98 100 98 100 100 68 57 90 92 97
85 76 82 54 44 67 56 60 48 37 44 46 39 33 36 33 44 44 47 34 23 21 50 100 100 100 100 100 100 100 98 97 100 100 100 100 100 100 100 94 98 100 100 92 87 89 95 92 85
84 78 90 78 57 96 56 76 39 36 45 46 46 49 39 38 36 34 55 47 31 24 20 74 100 100 97 91 88 100 100 100 100 100 100 100 100 100 100 100 100 92 96 89 89 89 88 89 84
94 73 82 97 95 100 100 100 66 30 44 51 54 60 54 46 41 35 33 52 47 32 23 22 87 100 100 100 100 99 100 100 100 100 100 100 100 100 100 100 100 100 95 94 100 96 96 100 100
95 66 79 58 94 100 100 100 89 46 39 55 53 61 67 61 55 45 38 32 50 43 31 24 22 77 100 100 100 100 90 100 100 100 100 97 94 98 92 69 65 65 63 80 97 100 100 100 100
98 70 80 69 66 100 100 100 100 70 46 62 96 64 71 79 70 65 37 34 54 48 38 33 25 24 34 100 100 100 100 100 100 100 100 100 100 100 100 100 100 100 100 100 100 100 100 100 100
95 100 96 96 98 100 100 100 100 100 87 67 100 92 38 89 84 83 47 38 32 48 45 40 37 34 24 48 100 100 100 100 100 90 100 100 100 100 100 100 100 100 100 97 96 100 100 100 100
91 100 100 100 98 100 100 100 100 100 100 100 100 96 49 60 97 99 86 35 52 31 28 42 41 38 34 30 24 65 100 100 100 100 100 100 100 100 100 100 100 97 100 100 100 100 100 100 100
98 88 100 100 100 100 100 100 100 100 100 100 100 100 43 41 100 100 100 50 49 51 28 26 48 57 50 39 36 27 23 46 94 100 100 100 100 100 100 100 100 100 100 100 100 100 100 100 100
100 85 98 100 91 100 100 100 100 100 100 100 100 95 75 54 37 96 100 57 36 46 40 31 32 54 56 56 42 39 33 28 24 22 36 71 99 100 100 100 100 100 100 100 100 100 100 100 100
100 100 100 89 82 92 99 100 100 97 100 100 100 97 77 52 37 55 100 82 36 65 49 33 34 37 50 77 54 45 39 43 39 31 26 24 24 26 33 52 70 76 77 79 82 78 83 86 100

GFSSGP_250_rhum_060.txt.gz
RH
21 25 22 19 17 15 13 11 21 12 16 15 13 13 11 10 9 9 10 8 9 8 8 8 8 8 8 8 8 9 9 10 10 11 12 13 15 15 15 16 19 19 20 22 19 19 19 21 23
24 24 27 22 20 16 17 14 37 20 17 16 15 13 12 11 11 10 10 8 8 8 7 7 7 7 7 7 7 8 10 11 11 11 13 16 18 20 21 24 23 23 21 21 21 21 21 25 26
26 21 27 24 24 26 25 18 34 27 21 17 15 14 13 13 14 11 12 11 8 8 7 6 6 6 6 6 6 7 10 14 30 27 27 33 38 36 34 44 38 40 31 31 32 38 32 32 83
25 24 31 27 32 32 60 56 38 27 23 19 16 16 18 23 21 16 12 10 8 7 7 6 6 6 14 16 13 10 25 44 51 43 28 25 28 36 40 46 59 56 56 67 66 52 98 100 100
24 26 31 31 37 40 45 60 44 31 24 19 28 31 26 26 19 14 12 10 8 7 7 7 8 7 8 8 18 40 96 100 99 100 100 100 97 54 45 48 57 47 45 60 50 66 95 100 100
24 25 29 31 36 45 53 61 41 28 22 26 34 31 28 26 19 15 12 12 12 9 10 9 11 10 35 50 49 100 88 76 100 91 100 100 98 100 80 53 68 52 46 38 46 58 80 99 85
25 24 29 31 47 41 59 54 38 28 26 36 40 40 37 28 16 15 14 13 13 14 15 13 25 28 50 58 79 89 100 100 99 73 100 100 99 100 100 86 53 47 31 39 89 100 100 92 100
26 24 29 30 40 55 80 51 38 29 35 56 49 42 41 24 17 15 15 17 23 23 24 23 78 59 72 52 100 100 100 100 100 100 100 100 100 92 100 49 57 60 100 85 98 76 100 98 100
24 23 32 35 40 56 80 51 39 28 51 58 48 53 32 21 19 16 17 17 31 38 58 85 86 83 86 70 88 98 97 100 100 100 100 100 91 66 99 83 79 57 89 100 100 100 100 100 100
26 22 36 36 48 64 83 50 36 29 66 58 52 55 32 22 20 17 16 15 39 48 65 100 93 96 100 86 100 100 98 100 100 100 100 99 70 49 73 100 74 42 62 88 100 60 100 100 100
22 24 34 36 71 89 67 49 30 36 77 61 73 64 36 22 21 17 16 16 44 67 98 100 98 97 98 100 99 100 100 100 100 100 91 90 75 51 65 100 87 61 35 100 91 100 100 100 100
22 30 36 65 100 100 59 40 30 53 80 69 86 64 33 30 27 19 17 17 45 65 88 100 100 100 87 100 100 100 100 100 100 96 100 100 100 100 94 90 100 34 47 100 100 100 100 100 100
27 32 39 100 100 98 54 34 32 80 77 71 100 98 39 40 35 25 17 18 42 66 53 100 98 93 76 100 100 100 100 96 100 100 100 100 75 100 100 87 59 51 85 100 100 100 100 100 100
28 37 83 100 100 88 46 30 63 79 71 56 100 96 44 40 38 30 18 18 36 56 76 71 91 96 73 92 100 100 100 100 100 100 90 86 54 78 81 74 56 99 99 97 100 100 100 98 100
32 44 100 100 100 74 39 34 82 64 66 99 90 54 52 45 40 39 22 17 19 56 73 71 100 68 100 82 61 90 100 100 100 100 100 72 59 56 89 100 93 100 100 100 100 100 100 89 81
38 80 100 100 100 63 30 52 72 47 76 82 46 51 54 48 42 43 24 18 19 21 79 98 66 98 86 93 69 57 75 91 96 98 73 63 72 75 94 90 97 100 100 100 100 100 100 93 96
51 100 100 100 91 55 29 41 78 77 92 49 56 45 48 45 45 42 26 21 18 18 48 99 61 67 82 98 85 76 84 79 58 52 69 80 88 94 100 92 100 100 100 100 100 100 100 98 98
100 100 100 100 81 51 31 33 55 69 53 52 44 36 48 43 47 35 38 22 20 18 29 100 76 55 84 95 77 88 92 87 79 69 86 89 100 100 97 100 100 100 100 100 100 100 100 100 100
100 100 100 100 78 56 35 27 41 45 41 41 39 34 41 41 33 35 42 30 29 19 20 100 97 75 56 79 88 100 100 78 88 71 100 94 100 100 100 100 100 98 100 100 100 100 100 100 86
100 100 100 100 76 56 35 29 52 47 32 39 43 34 32 31 32 31 40 36 33 27 20 63 100 91 79 100 100 100 100 100 93 100 100 100 100 100 96 100 100 100 94 100 100 100 100 100 76
100 100 100 100 80 61 41 39 40 36 28 48 45 36 33 34 37 37 28 39 38 36 24 47 100 100 63 96 100 96 100 100 94 97 100 100 100 100 92 100 97 100 94 94 100 100 100 95 40
100 100 100 100 80 72 48 41 30 45 33 44 43 40 42 46 41 39 37 32 30 33 29 23 82 100 95 72 100 85 100 88 100 99 100 100 100 100 73 60 73 68 70 83 100 100 86 75 90
100 100 100 100 78 80 58 51 57 43 41 45 66 49 44 49 46 36 40 47 26 32 29 28 25 92 100 95 71 100 100 66 59 100 100 100 98 100 100 100 100 100 100 100 100 91 69 83 100
100 100 100 100 81 78 79 70 83 66 40 46 77 68 55 49 60 58 48 54 31 27 33 30 26 26 94 100 97 69 99 100 100 64 96 100 100 100 100 100 98 84 89 98 97 94 100 100 100
100 100 100 100 84 82 95 79 100 98 72 51 59 70 57 75 58 64 68 71 42 27 27 30 34 31 24 100 100 100 92 90 100 100 100 77 85 94 100 100 100 100 100 100 100 100 99 88 86
100 95 100 100 100 85 92 86 100 99 73 75 83 69 48 99 81 41 71 89 73 35 33 26 32 33 35 28 39 98 100 100 96 100 90 100 100 99 90 88 86 82 79 69 65 60 52 62 100
100 99 100 100 100 92 85 87 99 99 100 75 94 100 88 100 100 74 46 89 86 62 31 29 26 31 37 42 40 34 49 100 100 100 100 100 93 89 100 98 75 73 78 85 97 100 100 100 100
100 100 100 96 96 96 90 88 98 100 100 92 79 99 100 100 100 100 44 34 62 87 55 28 27 24 31 39 35 39 42 29 68 99 100 100 95 98 100 100 100 100 100 100 100 100 100 100 100
100 100 93 97 93 100 100 100 100 98 100 100 100 96 95 100 100 80 50 42 40 100 95 60 25 41 26 28 37 35 40 44 36 30 43 83 100 100 100 100 100 100 100 100 100 100 100 100 100
95 100 100 100 100 100 100 100 100 100 100 100 94 100 81 98 99 65 45 38 39 52 100 86 43 23 26 36 28 26 35 39 41 39 37 31 27 29 40 64 83 100 100 100 100 100 100 100 100

GFSSGP_250_rhum_063.txt.gz
RH
19 21 24 21 20 19 16 14 12 10 11 11 9 8 9 9 9 10 8 8 10 10 10 13 9 8 8 7 7 6 7 10 13 14 15 12 12 11 12 14 14 16 18 18 19 20 18 18 18
25 24 50 40 28 22 19 19 17 13 13 12 11 9 9 10 11 10 10 8 9 10 8 8 7 7 7 7 7 7 7 8 9 10 10 11 14 14 15 16 16 17 18 17 20 19 20 21 21
28 34 34 33 26 23 19 21 18 16 18 13 14 12 13 13 12 14 14 12 8 10 10 7 7 7 7 7 6 6 7 7 7 9 15 21 18 28 35 30 28 25 29 30 28 25 28 31 30
34 38 29 23 26 26 22 21 22 19 25 17 16 15 19 19 15 17 15 16 14 11 10 7 6 6 14 10 7 8 10 18 29 28 38 60 53 48 39 36 45 49 62 57 59 52 42 44 56
39 45 31 26 27 26 23 21 27 21 30 29 28 25 21 22 22 19 18 16 13 10 10 8 6 7 13 24 21 23 12 63 94 100 100 100 99 100 94 62 44 50 59 63 66 54 62 75 98
47 40 28 24 22 21 24 20 28 24 34 33 34 26 25 39 23 25 21 16 14 11 10 9 7 7 19 31 64 39 99 93 89 93 100 90 100 100 100 96 100 78 62 55 66 68 56 57 72
32 25 23 22 22 21 27 20 25 61 37 40 34 29 33 36 28 28 22 18 15 12 11 10 9 12 16 34 100 99 100 97 97 99 100 100 99 100 100 99 95 98 83 51 69 53 47 46 45
27 22 24 24 29 28 24 19 24 82 47 52 36 33 44 32 31 22 21 20 14 12 12 12 15 42 50 61 100 100 100 95 100 100 100 97 100 100 100 100 76 65 100 87 55 48 39 49 100
22 22 22 26 30 28 20 17 27 78 66 51 40 35 57 36 32 22 20 18 16 14 12 19 36 39 82 80 100 100 100 100 100 100 100 100 100 98 100 86 52 57 81 67 63 87 93 100 100
21 19 23 28 28 25 24 28 35 72 86 51 39 57 58 41 31 23 22 20 17 14 12 21 52 52 94 68 100 100 100 100 100 100 100 100 100 100 100 90 50 82 67 62 73 96 86 100 99
20 18 24 28 24 25 37 40 62 82 91 51 36 77 61 50 30 26 22 22 17 15 13 30 69 75 99 63 95 100 96 99 100 100 100 100 100 96 78 97 51 63 72 67 100 100 100 95 100
16 18 23 28 25 30 39 42 99 89 81 48 37 79 62 74 41 31 30 24 18 16 18 38 90 99 100 81 84 100 100 100 99 99 100 100 99 98 94 100 70 59 42 61 82 99 78 87 100
16 20 21 25 27 34 38 46 97 99 60 40 45 79 59 100 73 35 31 25 20 17 21 46 100 100 100 99 100 100 100 100 100 100 100 100 100 92 91 76 56 40 42 50 93 100 94 100 100
20 21 21 24 29 34 45 76 100 97 49 36 68 82 62 100 99 43 36 30 25 18 18 50 85 98 100 100 100 100 100 100 100 100 100 100 98 100 88 58 43 77 70 68 56 93 100 94 100
21 22 22 26 32 38 75 100 100 72 42 37 90 70 84 100 49 41 40 31 28 20 17 35 59 65 99 100 100 100 100 100 100 100 100 100 100 88 81 59 55 65 90 83 48 100 90 100 100
21 26 29 34 36 80 95 100 100 55 39 64 81 69 100 43 32 42 43 30 29 21 18 19 39 54 100 79 100 100 100 100 100 100 100 100 100 93 85 86 63 72 68 56 82 100 97 100 100
23 25 34 41 55 99 100 100 90 48 42 82 66 88 75 42 36 41 38 25 33 22 19 16 28 67 49 81 92 100 100 100 100 100 100 100 100 91 100 94 83 90 67 87 100 100 78 100 100
29 32 35 40 100 100 100 100 76 49 50 61 60 80 62 44 30 39 32 24 36 26 20 18 25 50 57 60 86 100 100 100 100 100 100 100 100 100 100 93 90 95 79 87 100 93 100 100 100
36 32 32 42 76 82 100 100 69 37 46 63 96 83 47 38 30 30 26 22 32 30 24 19 18 64 70 63 69 60 70 84 81 76 79 83 100 90 79 93 100 99 86 80 92 100 88 74 98
28 38 35 95 100 100 100 100 56 32 52 64 47 45 34 34 32 32 32 28 26 27 26 24 24 80 76 55 69 78 55 53 48 50 75 53 69 67 80 100 100 97 99 100 100 100 100 100 100
30 42 51 100 100 100 100 98 50 37 33 38 44 40 35 33 33 34 40 32 32 27 25 25 30 100 91 62 52 56 52 58 63 70 85 79 65 85 100 100 100 82 80 71 85 100 100 100 98
50 74 100 100 100 100 100 97 64 38 31 34 36 40 40 33 33 38 33 38 28 33 22 25 22 70 100 74 52 47 48 98 71 55 91 77 98 100 100 100 90 69 54 79 100 100 100 98 90
100 100 100 100 100 100 100 93 68 48 43 42 31 40 30 36 48 43 38 49 44 35 23 26 24 24 92 100 70 54 46 66 100 78 60 100 100 100 100 100 100 88 94 100 100 100 100 100 92
100 100 100 100 100 100 100 96 73 53 53 36 27 46 45 40 58 74 41 44 59 53 37 22 24 27 23 94 100 79 64 48 79 100 100 77 100 100 100 100 100 98 95 90 76 68 77 90 87
100 100 100 100 97 100 100 97 93 64 54 38 40 60 76 37 40 96 80 56 47 58 54 30 20 28 33 27 94 100 97 70 65 50 52 65 85 99 100 100 100 96 67 58 79 100 100 99 100
100 100 100 100 100 100 100 89 100 78 63 49 38 63 70 58 48 55 93 82 63 30 56 61 30 21 24 29 29 85 100 100 93 96 97 76 100 100 89 100 100 100 100 100 100 100 100 100 100
100 98 100 77 84 100 100 100 100 96 73 63 77 100 91 73 70 59 100 97 51 35 35 50 60 48 23 20 24 29 36 73 97 100 100 86 99 100 100 100 100 96 88 100 100 99 99 100 99
100 100 100 97 94 100 100 100 100 98 86 87 100 92 100 100 100 100 100 100 94 60 37 33 82 64 54 26 20 22 28 28 28 50 100 100 90 71 87 98 100 100 100 100 100 97 95 84 76
100 100 100 97 93 100 100 100 100 100 96 93 100 100 100 95 100 100 100 100 74 66 44 42 51 100 78 40 25 22 22 23 30 29 32 55 92 100 100 97 97 88 86 99 100 100 100 99 100
100 100 100 100 73 93 100 100 100 100 100 100 92 90 99 83 82 95 97 100 100 92 71 58 55 75 100 56 42 38 28 29 26 32 39 36 32 39 57 72 88 100 100 100 100 100 100 100 100

GFSSGP_250_rhum_066.txt.gz
RH
17 18 15 14 18 19 19 17 20 15 14 13 11 8 8 9 9 7 7 7 8 8 8 8 8 8 7 6 5 5 5 6 6 7 6 7 8 8 9 10 13 16 17 18 17 17 17 18 18
20 18 15 15 17 26 21 23 27 18 17 16 14 10 9 11 11 10 9 8 7 7 8 8 8 8 8 7 7 7 8 7 7 7 8 10 14 14 13 15 19 18 17 16 17 18 19 20 21
22 20 16 17 23 29 40 39 30 22 18 16 16 14 12 14 13 11 11 10 10 10 8 7 7 7 7 7 7 7 7 7 6 7 8 8 8 10 10 12 15 18 20 23 25 25 23 24 28
22 20 22 20 36 61 46 28 32 24 19 18 16 14 16 20 15 14 14 14 13 12 11 9 8 8 7 6 6 6 6 6 8 8 8 10 12 13 15 24 24 22 24 32 31 30 34 38 44
27 22 33 61 93 68 49 39 26 22 18 18 16 18 14 21 25 16 19 17 15 18 14 11 9 8 7 11 10 23 19 17 16 12 44 88 98 97 100 81 59 36 36 38 39 47 55 63 65
50 81 73 62 81 56 44 40 30 22 17 18 17 22 14 30 30 19 18 22 21 18 13 12 9 8 11 13 53 100 84 61 37 76 100 100 97 100 100 100 98 90 83 54 50 51 66 70 75
74 59 50 51 48 39 30 29 24 19 17 18 20 27 28 40 32 26 24 29 24 20 14 12 10 13 18 19 68 86 96 97 89 99 99 100 100 100 100 100 100 99 96 83 92 64 57 58 67
67 56 47 37 38 24 24 23 22 17 20 23 31 33 42 49 31 34 35 34 25 19 16 12 10 16 17 12 81 87 100 100 100 100 98 100 100 92 83 100 100 93 99 100 61 84 69 65 61
66 33 30 31 26 26 25 24 20 19 31 34 62 93 72 43 38 39 46 34 23 21 16 12 11 17 16 29 90 100 100 100 100 100 100 100 100 100 100 100 96 99 100 89 56 80 87 60 45
35 30 24 24 23 25 20 19 22 21 39 45 69 100 74 43 40 60 50 29 24 20 16 13 12 11 17 40 92 100 97 90 98 100 100 100 100 100 100 76 64 100 76 53 46 83 73 68 63
25 22 22 20 22 21 18 18 24 25 49 44 98 98 78 46 44 61 50 31 28 23 18 14 13 13 16 32 93 100 100 100 90 100 100 100 100 100 100 100 93 91 60 38 62 72 51 66 100
20 22 20 22 20 17 19 20 24 28 50 45 94 100 69 46 47 64 52 38 31 26 19 15 15 19 23 38 99 100 100 100 100 100 100 100 100 100 100 100 100 94 84 44 52 61 69 72 67
20 19 16 20 17 15 16 18 24 31 43 49 99 95 70 48 66 65 72 74 43 29 20 15 15 23 34 52 92 100 100 100 100 99 100 100 100 100 100 100 98 100 65 85 61 45 59 100 100
21 16 18 16 14 13 19 22 23 38 38 62 100 73 62 62 80 69 82 98 46 28 24 18 16 23 46 89 100 100 100 100 97 98 100 100 100 100 72 78 100 100 92 57 55 63 93 97 77
22 18 15 18 19 23 25 25 31 43 46 79 100 73 54 83 91 75 75 49 38 32 24 22 18 19 34 100 100 100 100 100 100 100 100 100 100 100 100 99 100 95 67 65 72 66 80 100 93
21 17 18 22 23 28 24 37 46 44 82 92 100 62 46 52 90 72 71 36 33 32 23 24 18 17 32 66 100 100 100 100 100 100 100 100 100 100 100 97 100 82 66 56 76 69 65 87 100
17 18 23 25 25 26 26 46 100 63 100 97 77 57 50 68 90 83 38 36 32 27 21 26 18 17 20 39 98 100 100 100 100 100 100 100 100 100 100 100 89 91 62 79 77 83 90 58 67
16 20 23 28 26 16 23 48 29 54 100 88 60 54 77 79 95 67 36 36 28 22 22 26 20 17 20 33 84 100 100 100 100 100 96 100 100 100 100 92 100 100 97 96 88 82 63 50 91
20 25 32 33 26 27 36 61 61 96 100 64 57 68 100 86 88 53 29 28 22 23 22 27 22 16 16 27 73 100 100 100 100 100 100 100 100 100 100 100 100 100 100 95 93 97 75 100 100
27 40 41 32 29 30 47 57 46 80 100 68 60 70 100 100 79 36 29 30 26 25 26 26 23 22 25 29 49 59 94 100 100 100 100 100 100 100 100 100 100 100 100 93 92 93 94 100 100
48 43 40 36 30 35 49 70 60 100 100 61 36 45 98 98 48 32 32 30 34 23 24 21 25 23 59 57 72 52 45 73 86 97 100 100 99 100 100 100 97 96 83 78 94 98 100 100 100
87 54 46 37 24 48 51 69 83 100 84 58 33 37 67 55 37 30 35 33 34 33 31 25 23 24 25 73 59 60 49 41 59 73 89 95 100 92 84 94 87 74 68 66 96 100 100 100 100
100 78 45 34 29 89 76 87 100 100 89 98 62 44 47 45 40 30 33 36 39 46 44 38 28 21 25 27 71 56 52 48 42 60 61 70 92 87 89 82 77 66 59 58 100 100 100 100 83
100 85 96 58 57 83 100 100 80 100 92 66 49 41 43 60 48 33 36 37 38 48 50 46 36 21 24 25 26 60 60 44 40 47 63 61 71 88 82 75 81 83 79 100 100 98 88 78 92
100 100 99 84 76 100 100 100 100 100 94 68 47 49 50 77 59 37 37 40 37 43 40 44 47 40 31 22 23 30 78 94 55 47 49 50 49 56 94 100 100 100 100 100 100 96 90 100 100
100 100 100 89 91 100 97 100 100 100 97 72 51 46 44 70 48 54 34 45 48 49 43 37 40 54 49 35 28 25 29 91 100 87 58 53 58 81 70 96 100 100 100 98 72 81 93 85 79
100 100 100 100 78 100 97 100 100 81 98 80 63 51 51 47 54 47 44 50 45 64 60 42 46 51 57 43 42 28 21 25 27 85 100 100 80 75 68 53 73 100 100 100 100 99 100 100 100
100 100 100 100 66 100 100 100 100 82 78 96 73 61 56 53 68 67 46 51 52 99 100 87 48 39 62 73 71 43 32 25 22 22 23 36 72 96 91 99 68 53 78 89 100 99 97 99 96
100 100 100 100 98 100 100 94 100 100 72 83 85 70 64 76 100 100 96 94 87 100 100 84 74 52 36 53 93 64 48 40 38 26 23 29 31 36 88 95 82 76 75 71 66 63 64 56 59
100 100 100 100 83 100 100 97 99 100 100 100 99 80 80 88 100 100 100 100 100 100 100 97 93 83 61 45 49 79 67 62 57 54 43 30 25 31 38 38 53 99 100 100 100 100 100 100 100

GFSSGP_250_rhum_069.txt.gz
RH
37 36 29 24 23 22 22 19 17 14 14 17 18 18 14 12 11 9 8 7 7 7 7 7 6 6 6 5 5 5 5 5 5 5 6 6 6 6 7 8 10 11 12 13 14 14 15 17 16
52 51 48 40 34 28 23 19 17 16 15 23 29 28 20 15 12 11 9 8 8 8 8 7 8 8 7 6 6 6 5 5 5 5 6 6 6 7 8 9 10 12 13 15 15 16 16 18 19
38 32 34 29 30 28 26 19 19 23 20 30 42 36 26 18 15 12 10 9 9 10 10 9 10 10 8 8 7 6 6 6 6 5 5 6 6 8 11 13 13 12 13 16 19 21 22 24 24
42 38 26 22 24 28 28 19 21 25 45 45 34 37 40 28 18 14 11 11 11 10 11 12 12 12 11 10 8 7 8 7 7 6 6 6 7 8 9 10 10 11 12 14 15 18 22 27 28
37 34 27 22 33 35 33 38 37 32 48 60 45 34 30 27 18 14 12 12 13 12 15 16 14 11 11 9 8 9 9 10 16 31 24 12 11 11 12 13 16 17 11 14 24 24 34 30 34
41 32 27 32 38 41 88 78 31 37 54 39 41 26 21 20 16 16 13 24 20 19 19 18 16 11 12 10 16 50 84 83 88 100 72 48 16 22 79 100 100 88 72 42 35 46 53 45 44
53 40 33 31 71 84 99 78 71 46 40 38 28 23 20 16 25 19 16 28 32 25 22 24 17 14 45 66 34 93 98 79 85 100 100 100 89 100 89 100 94 100 81 91 85 76 92 67 48
62 57 62 89 96 98 79 68 51 39 29 28 26 20 24 21 38 25 38 46 36 27 28 30 21 15 11 62 58 94 100 88 100 100 100 100 100 95 86 98 93 100 100 100 100 100 78 71 68
100 100 100 91 77 61 56 44 38 30 16 18 19 20 30 36 51 76 99 55 37 28 37 28 20 14 11 11 29 74 94 100 100 100 100 100 100 99 100 82 92 83 85 89 86 89 73 55 75
91 70 64 53 45 40 35 26 20 18 18 19 21 27 26 34 41 72 78 50 35 35 42 30 21 18 14 11 12 44 100 100 100 100 100 100 100 94 100 97 100 94 81 64 87 80 55 48 61
73 59 50 45 37 28 23 19 18 18 19 21 27 26 32 34 59 88 64 48 37 46 43 31 26 20 14 12 11 22 100 100 100 100 100 100 100 98 100 98 86 100 100 79 61 64 50 55 63
46 50 40 39 34 26 24 19 16 21 23 22 32 26 35 34 83 97 67 49 55 64 49 40 32 21 16 13 13 20 100 100 100 100 100 100 100 98 100 100 100 95 100 56 82 53 50 42 42
36 42 49 47 29 26 19 20 17 17 22 23 26 31 39 50 78 90 68 60 67 68 64 57 34 22 16 14 16 24 65 100 100 100 100 100 100 100 100 100 97 100 100 100 77 59 48 40 31
46 79 51 29 30 24 18 20 14 16 20 26 27 35 43 79 89 86 67 64 65 67 72 61 32 20 16 16 22 52 60 100 100 100 100 100 99 80 100 100 86 100 100 99 96 83 56 38 49
100 63 29 28 32 27 16 15 14 18 20 22 30 44 49 87 98 88 68 59 66 77 76 32 28 20 16 16 23 64 95 100 100 100 100 100 95 100 100 98 100 88 76 86 89 76 71 77 63
80 40 29 34 32 25 13 17 17 18 19 25 31 42 71 100 94 85 67 57 69 80 46 31 26 18 16 16 24 57 100 100 100 100 100 100 100 100 100 100 100 79 66 100 89 73 60 80 70
49 34 27 31 29 17 10 22 22 18 19 30 37 65 77 96 95 76 70 66 78 64 34 32 21 21 17 16 18 50 99 100 100 100 100 100 100 100 85 96 100 64 100 100 100 80 60 66 78
35 26 40 36 22 13 14 29 24 18 23 31 38 78 94 100 79 74 77 84 74 31 31 22 23 24 17 16 16 33 80 100 100 100 100 100 100 100 100 100 96 100 100 100 100 90 64 64 62
39 50 37 25 21 14 21 28 24 25 28 30 43 69 86 93 61 69 98 89 60 29 22 23 25 26 20 17 16 29 55 100 100 100 98 100 100 97 100 100 99 100 93 79 60 58 82 73 73
67 40 33 23 17 19 28 31 29 35 46 42 75 81 86 61 58 93 95 81 38 24 19 25 23 26 22 26 21 28 60 100 100 100 100 100 100 100 100 100 100 100 93 92 98 91 97 92 99
39 43 35 31 14 27 34 38 31 36 52 70 68 83 67 49 54 100 98 76 27 26 24 24 25 24 24 22 54 38 61 99 100 100 100 100 100 100 100 100 100 100 100 94 86 88 100 85 90
42 40 36 25 20 35 43 39 41 85 69 69 87 88 60 42 46 99 100 41 28 28 32 31 34 23 24 25 29 62 61 79 79 90 100 100 100 100 100 100 100 99 100 99 98 79 93 80 77
52 41 39 38 28 38 46 44 99 72 94 81 93 100 100 100 80 100 57 31 32 30 33 30 38 26 25 27 22 52 60 52 52 52 52 71 86 99 100 100 100 100 100 100 100 86 88 82 76
48 47 60 49 41 38 46 89 100 80 100 100 100 100 100 100 97 69 49 32 32 31 34 34 45 39 30 27 22 21 26 69 59 68 48 49 71 79 92 87 86 100 100 100 100 86 88 100 100
48 52 63 46 33 50 50 100 100 100 100 100 80 78 100 100 100 85 47 38 30 33 35 36 50 57 49 39 32 26 22 36 79 72 59 56 66 94 100 100 100 100 100 100 100 100 100 100 100
51 58 71 56 65 69 92 100 97 89 95 87 64 58 99 100 100 63 44 45 36 35 38 42 51 53 51 52 50 44 32 24 21 45 87 72 64 66 66 66 72 78 97 100 100 100 100 100 100
56 93 89 73 76 83 100 100 100 65 88 88 95 69 91 90 84 46 32 42 42 37 41 55 49 45 39 48 47 51 41 36 32 21 19 28 71 96 83 74 81 84 89 98 100 100 100 100 100
71 100 91 81 64 97 100 100 100 63 56 82 97 66 75 100 82 59 39 48 52 48 52 71 77 57 40 40 35 48 50 41 35 33 35 35 31 23 31 81 96 100 99 96 87 79 100 82 85
97 100 100 98 71 100 100 100 100 62 60 89 100 74 74 100 86 74 76 75 65 65 66 59 87 74 63 56 43 44 45 56 53 48 44 42 38 36 28 24 26 43 100 100 100 100 100 100 100
100 100 100 100 86 100 100 100 100 81 48 92 100 98 94 100 94 82 67 60 59 58 59 58 74 100 92 88 79 54 47 50 51 67 58 52 57 59 41 30 22 24 26 32 54 82 86 86 89

GFSSGP_250_rhum_072.txt.gz
RH
36 34 30 28 27 35 46 32 27 29 28 26 23 20 19 18 16 14 12 11 10 9 8 8 8 7 6 6 5 5 4 4 4 5 5 6 6 7 8 8 8 8 9 9 10 12 12 12 12
48 39 36 33 30 51 50 40 41 37 33 28 25 21 19 19 18 17 15 14 13 10 9 10 9 8 8 8 7 6 5 5 5 5 4 5 5 6 6 7 10 8 8 9 10 12 14 14 15
77 45 48 58 43 36 29 27 26 26 25 25 23 23 20 25 23 27 24 15 14 12 11 10 9 9 10 9 8 8 8 9 10 6 5 5 5 5 6 6 11 9 9 10 12 13 14 16 18
68 67 76 64 53 42 30 28 30 23 21 20 20 21 20 32 39 38 30 27 19 14 12 10 10 10 10 10 10 9 8 9 9 7 8 10 13 8 7 6 7 10 12 15 25 16 15 16 17
65 65 69 57 50 45 35 37 30 22 21 26 23 30 37 34 46 43 36 27 20 15 13 12 13 12 11 12 13 11 11 10 10 12 30 45 55 52 24 12 10 10 12 12 12 12 12 12 15
57 47 44 50 47 44 46 36 26 24 24 29 29 37 46 42 49 46 36 30 23 13 14 12 14 19 15 13 14 40 86 50 43 84 73 88 100 74 50 19 17 26 46 45 33 22 15 14 19
45 41 38 36 48 51 47 39 34 48 40 42 44 40 43 50 50 43 28 25 19 17 20 18 28 25 17 13 39 96 99 100 97 100 97 100 97 100 65 100 99 97 94 100 100 58 34 59 68
41 38 36 45 88 94 58 82 68 44 54 49 42 51 54 45 37 34 26 18 17 20 24 31 32 29 18 28 82 91 100 100 100 100 100 100 100 100 100 90 100 100 95 100 87 90 100 90 67
39 38 58 99 73 72 92 86 86 72 56 50 46 34 33 21 18 20 19 14 19 22 34 46 39 32 26 18 20 64 90 100 100 100 100 100 100 95 100 100 98 83 98 100 100 100 96 86 85
88 63 85 100 87 96 80 88 81 61 39 28 21 18 16 20 19 20 23 20 23 24 40 58 42 41 34 22 14 14 24 87 100 100 100 100 100 100 100 100 100 97 97 98 78 95 99 61 57
95 95 100 98 89 90 77 53 43 37 30 21 18 19 18 23 22 25 25 34 27 38 68 54 44 51 40 28 17 16 12 18 100 100 100 100 100 100 100 100 84 100 100 96 82 70 78 61 58
100 100 100 97 81 65 48 39 33 43 28 32 23 26 26 23 20 24 30 34 32 51 64 46 48 49 48 38 21 16 13 12 59 100 100 100 100 100 94 100 100 75 100 100 78 50 48 53 66
77 84 73 63 51 44 47 44 70 36 36 36 23 27 25 21 22 26 30 35 54 79 61 46 53 64 66 43 24 17 14 13 21 100 100 100 100 100 74 100 96 100 85 87 86 74 95 58 46
64 57 51 47 63 64 84 90 33 39 32 29 21 24 26 24 21 28 34 44 77 81 62 48 59 74 71 40 24 16 15 15 24 98 100 100 100 100 100 100 100 89 100 100 100 95 80 51 42
98 58 44 66 71 95 89 46 38 35 32 20 19 19 22 24 23 30 35 65 99 84 57 62 72 82 69 27 20 17 16 17 24 89 100 100 100 100 100 100 100 100 100 100 100 82 76 44 40
68 49 57 72 100 100 48 29 38 37 18 16 15 16 18 23 24 36 34 69 100 86 58 67 86 82 41 24 16 17 16 20 51 76 100 100 100 97 100 100 100 100 100 100 100 69 57 65 80
100 87 78 100 100 83 29 29 57 21 14 13 14 18 20 24 25 43 37 92 100 73 51 77 82 43 30 20 16 16 16 32 98 90 99 100 100 100 100 100 100 100 100 100 100 91 64 92 80
100 85 98 100 100 59 26 34 38 14 12 14 19 20 22 29 33 41 61 100 93 59 66 78 44 31 21 19 20 17 15 48 100 100 98 100 100 100 100 100 99 100 99 100 97 68 75 87 75
75 81 100 100 84 40 29 33 30 13 16 20 25 23 26 36 38 50 80 99 61 60 76 43 28 21 23 25 22 26 17 61 100 100 100 89 100 100 100 100 100 100 99 88 100 99 100 100 74
100 87 98 82 49 36 32 37 26 16 24 29 30 37 38 38 45 82 79 88 67 71 77 30 25 22 24 25 22 46 20 43 100 100 100 92 100 100 100 100 100 98 98 100 98 100 97 79 74
81 86 90 61 48 54 37 35 23 19 34 40 35 37 40 43 93 75 66 83 92 80 49 30 24 28 22 25 26 53 30 41 100 100 100 79 100 100 100 100 100 100 100 100 100 100 94 77 96
98 77 75 79 57 43 30 39 31 25 45 37 43 52 48 79 86 62 79 86 97 85 32 35 30 29 24 28 30 38 84 35 76 100 100 100 100 100 100 100 100 100 100 100 94 83 94 100 100
100 92 89 64 45 37 35 39 48 31 46 44 63 78 97 100 70 80 95 89 98 80 35 40 29 38 28 27 28 27 88 80 71 100 100 100 100 100 100 100 100 100 100 100 100 100 100 100 100
91 80 60 42 47 37 42 52 42 42 54 86 81 100 100 98 68 78 100 100 100 84 36 40 30 38 39 34 29 29 46 90 87 70 81 84 90 94 100 100 100 100 100 100 100 100 100 100 99
77 69 56 45 50 48 56 62 64 55 87 100 100 100 100 68 58 98 100 100 100 77 36 39 33 43 45 47 38 32 23 32 80 91 69 57 64 55 60 86 94 100 100 100 100 100 100 100 92
68 55 56 55 54 53 62 53 50 67 100 100 77 100 96 62 51 100 100 100 82 67 38 37 39 40 39 42 51 46 34 31 23 46 86 98 87 64 67 99 100 100 100 100 100 100 92 90 90
63 64 69 62 48 60 48 67 57 100 100 100 93 100 98 62 40 64 78 73 61 35 36 36 48 58 47 48 49 47 47 43 34 30 26 31 52 77 78 77 76 98 100 100 100 98 100 99 100
67 81 66 56 51 67 51 74 64 100 100 75 83 100 100 90 38 29 50 60 55 55 48 40 49 68 49 38 31 32 42 51 37 32 31 28 27 30 32 45 64 88 91 86 91 96 100 100 100
82 57 50 61 59 72 62 97 95 100 100 100 100 100 87 95 54 36 37 78 100 97 58 40 49 56 60 85 57 39 35 33 45 43 40 37 36 33 35 37 30 24 23 26 38 81 97 97 91
96 48 80 74 87 78 62 98 100 100 100 100 100 100 95 98 66 49 39 89 95 79 65 50 47 57 67 74 80 62 55 53 45 44 42 44 40 36 34 36 40 36 34 25 24 25 25 34 51

GFSSGP_250_rhum_075.txt.gz
RH
40 40 36 34 32 32 34 34 31 29 29 27 25 24 24 26 28 30 25 21 17 15 14 14 13 11 9 7 8 7 6 6 5 5 5 5 5 5 5 6 7 9 10 11 8 9 10 11 12
38 35 40 40 39 43 46 40 34 33 31 28 26 25 25 21 21 25 26 23 22 18 16 16 15 13 12 9 8 7 7 7 7 7 6 5 5 5 5 5 5 5 7 12 15 14 10 10 10
41 45 50 52 58 71 64 50 40 42 44 36 26 24 23 22 20 19 19 19 20 19 17 20 19 17 14 11 9 8 8 9 8 9 8 11 12 9 6 6 5 4 5 6 12 16 15 12 12
88 69 81 84 86 99 82 60 56 56 37 32 28 31 27 21 20 20 20 20 20 22 21 18 20 18 14 12 10 9 9 23 25 24 25 29 32 46 18 13 6 5 5 10 13 18 32 27 21
98 100 100 100 100 91 71 58 56 45 43 36 35 33 28 22 24 22 25 25 23 25 26 24 22 19 13 11 10 10 10 20 24 33 26 26 46 55 36 42 44 32 11 11 17 15 31 40 32
86 100 100 100 90 78 76 69 58 51 46 41 35 29 26 22 25 29 36 39 42 36 40 40 28 20 16 13 12 11 25 73 89 68 26 24 78 90 100 77 85 70 20 23 18 14 21 23 21
80 84 96 99 82 66 59 55 53 44 37 35 30 27 27 24 36 42 46 51 53 44 45 40 25 15 15 14 14 22 63 100 99 79 98 100 99 100 99 99 84 78 68 70 46 26 28 22 17
91 94 96 96 84 68 61 52 44 37 33 29 31 26 51 53 56 57 51 33 36 37 40 32 18 15 14 15 18 53 58 100 100 100 100 100 100 100 100 100 95 93 87 100 97 83 62 52 61
79 81 78 82 76 68 54 43 42 36 34 31 35 43 47 59 56 37 23 22 20 17 17 16 15 16 18 18 21 25 79 100 100 100 100 100 100 100 100 100 100 72 93 100 100 100 90 87 94
64 74 83 79 75 58 48 64 49 50 67 64 39 59 71 42 36 30 22 20 13 14 18 20 23 24 28 28 25 21 41 88 100 100 100 100 100 100 100 100 100 99 88 96 100 100 100 99 69
77 44 45 66 64 81 62 59 91 94 72 67 73 65 38 34 42 31 19 16 16 20 21 24 31 35 54 43 37 26 20 48 58 79 98 100 100 94 100 100 100 100 90 100 100 100 93 100 71
90 84 100 100 100 100 100 100 100 98 90 72 40 36 39 43 29 24 22 20 18 24 24 28 40 63 64 50 38 34 27 19 18 26 56 100 100 100 100 87 100 100 100 78 98 100 100 80 63
100 100 100 100 100 100 93 80 69 48 46 50 50 40 41 29 27 23 22 21 24 24 22 36 62 96 66 47 40 40 35 20 17 15 16 75 100 100 100 100 90 99 100 97 79 100 74 59 46
100 100 100 100 87 79 71 62 44 46 42 59 59 36 29 27 27 23 22 20 27 23 29 37 84 84 59 46 44 44 36 19 16 17 16 21 100 100 100 100 100 96 100 100 91 83 56 59 54
100 100 100 100 99 80 93 60 45 40 64 98 52 39 30 25 21 22 19 24 29 24 36 38 92 74 54 46 54 54 25 18 16 16 14 14 66 100 100 100 100 100 100 96 90 83 70 91 68
100 100 100 100 100 100 98 61 57 58 95 69 51 47 29 22 18 17 20 28 28 31 39 61 89 60 47 57 65 48 21 17 16 15 15 19 49 100 100 100 100 98 100 100 100 100 96 92 70
100 100 100 100 100 100 99 86 83 69 89 48 47 36 25 19 16 17 23 29 32 43 47 83 76 48 67 69 52 27 18 17 16 15 28 40 64 100 100 100 100 100 100 100 98 100 89 93 80
100 100 100 100 100 79 61 47 59 100 51 64 31 28 18 15 17 18 26 28 41 61 72 80 60 71 70 41 28 19 19 17 15 17 64 85 90 100 100 100 100 100 100 100 100 88 93 97 93
100 100 100 100 67 86 62 46 77 100 51 38 32 21 16 17 15 20 29 30 54 82 77 78 75 49 32 28 25 21 21 22 18 57 100 100 100 100 100 100 100 100 100 100 93 100 100 100 98
98 97 83 64 65 78 95 71 94 94 53 35 29 18 19 18 21 32 31 36 76 94 76 66 62 39 26 28 25 22 21 25 41 100 100 100 100 100 100 100 100 100 100 100 100 86 97 85 87
100 100 100 96 91 80 77 63 99 79 53 33 27 22 24 28 36 34 34 44 99 91 61 79 72 32 30 31 27 26 26 31 87 100 100 94 100 100 100 100 100 100 100 100 96 100 100 100 100
100 100 80 68 95 87 63 70 100 76 48 33 33 30 32 32 36 38 38 87 100 76 87 86 45 33 30 29 27 28 39 46 66 100 100 98 94 100 100 100 100 100 100 100 100 100 100 100 100
100 94 70 64 75 69 91 72 100 60 52 35 39 40 33 35 35 45 44 99 82 79 91 68 52 40 34 28 26 30 59 74 53 100 100 100 87 79 100 100 100 100 100 100 100 100 100 100 100
100 89 92 64 77 84 100 66 58 63 49 36 35 45 40 36 34 48 77 96 93 99 99 52 45 46 39 33 32 31 48 95 55 78 100 98 89 62 51 67 87 97 100 100 100 100 100 100 100
100 100 80 74 74 73 100 64 61 63 43 44 42 48 41 36 40 78 100 88 97 100 100 59 46 48 46 48 43 34 30 62 98 100 100 100 100 100 100 100 100 99 94 98 100 100 100 100 100
100 100 85 64 61 84 84 66 56 68 44 44 47 61 47 42 45 96 100 95 100 97 100 78 47 54 54 55 56 42 33 26 73 94 100 100 100 100 100 100 97 100 100 100 100 100 100 100 100
92 88 78 76 78 73 63 63 57 93 51 50 57 100 68 51 69 100 100 98 99 100 93 78 48 56 53 50 49 51 40 36 30 32 81 87 84 88 100 91 68 72 82 87 99 99 92 87 100
100 94 83 77 70 60 64 75 59 99 51 62 79 100 100 76 81 100 98 79 98 90 85 67 40 48 51 48 45 48 44 46 44 38 33 35 48 72 83 80 89 100 96 98 100 100 100 100 100
100 93 77 65 56 63 80 74 66 98 53 75 100 100 100 96 79 100 80 80 94 100 98 79 46 39 45 47 48 45 44 54 54 42 38 38 41 39 29 30 37 44 56 83 100 100 100 100 100
88 82 71 63 64 69 65 70 80 93 71 78 100 100 100 100 80 96 71 87 100 100 100 82 63 47 41 44 51 67 62 56 52 52 45 39 37 37 32 32 33 32 30 28 30 34 35 36 43

GFSSGP_250_rhum_078.txt.gz
RH
69 58 48 40 37 35 36 39 39 34 32 31 30 32 31 29 27 26 24 21 20 18 17 17 18 18 16 14 12 10 10 9 8 7 7 7 6 6 6 6 6 6 6 7 8 8 9 10 11
74 63 57 52 45 44 46 47 37 36 35 34 33 33 34 32 33 34 27 22 21 21 19 16 16 15 15 15 14 12 10 10 9 8 8 7 7 6 6 6 6 5 5 5 6 6 9 9 14
79 69 60 52 50 53 52 44 40 38 38 42 44 44 44 38 31 30 27 28 26 24 21 18 18 18 17 18 16 15 12 10 9 8 8 8 7 8 9 8 7 6 6 7 6 7 12 12 13
87 74 68 64 63 56 55 49 47 54 57 59 56 50 44 39 35 36 32 30 31 24 19 19 20 22 21 20 20 17 14 11 12 13 18 20 20 20 20 18 16 11 12 13 12 22 24 18 18
100 86 87 78 78 75 98 83 74 80 81 64 58 58 56 52 48 43 41 35 29 23 24 21 22 25 21 19 20 16 14 11 28 21 28 32 26 26 40 46 64 46 31 26 24 18 22 23 31
95 80 78 83 95 91 96 100 100 94 94 87 69 76 64 54 48 40 32 28 24 22 24 23 32 36 37 31 24 16 14 16 37 45 70 75 69 97 99 94 100 82 70 78 57 38 23 30 39
70 65 82 73 84 80 95 95 99 88 87 84 76 68 56 48 39 33 29 23 26 27 28 31 35 25 27 30 29 17 14 15 60 84 99 99 100 100 100 100 100 97 78 96 99 57 23 27 31
30 38 51 71 89 84 100 97 89 68 61 66 71 63 50 40 35 28 26 40 50 48 46 44 30 21 17 15 15 16 14 13 42 91 100 100 100 100 100 100 100 81 100 89 79 59 37 35 36
48 39 36 57 64 76 92 85 70 68 74 81 68 59 48 38 30 30 34 61 75 66 56 28 20 13 13 13 14 15 15 15 35 100 100 100 100 100 83 100 100 88 100 100 81 79 71 59 54
50 56 50 37 48 76 82 84 81 82 86 89 86 46 38 33 36 60 78 82 56 39 35 20 17 13 14 16 16 19 19 26 60 100 100 100 100 100 95 100 100 100 92 100 72 88 100 91 66
60 64 58 54 50 58 65 98 98 81 90 88 54 38 42 61 74 98 91 50 34 37 22 19 19 15 17 18 20 24 36 30 62 97 100 100 100 100 100 100 100 100 100 96 74 84 100 100 84
55 65 61 58 69 98 82 41 42 75 86 91 100 89 91 94 84 52 44 40 41 24 18 24 19 21 22 24 26 48 51 46 45 76 100 100 100 100 100 100 100 100 100 100 84 76 100 100 92
48 61 63 57 70 97 81 91 92 80 98 100 100 94 74 45 43 36 35 36 34 24 19 24 22 24 27 26 49 70 57 48 32 42 73 87 100 100 100 100 100 97 81 97 79 73 100 100 92
47 54 60 91 100 100 96 100 100 100 97 71 63 56 47 38 32 35 37 35 32 20 22 23 26 27 34 33 67 65 54 44 31 28 35 57 82 98 100 100 100 100 96 80 88 77 76 80 95
45 56 58 94 100 100 91 97 100 99 79 76 83 72 53 44 36 36 29 29 27 20 24 23 30 30 38 61 71 64 50 43 34 25 18 18 20 38 66 100 100 100 100 99 86 89 100 99 64
48 67 78 93 100 100 90 100 100 100 100 99 86 84 74 58 39 31 27 32 21 21 22 27 32 33 47 84 69 69 48 42 32 20 17 15 14 14 16 100 100 100 100 97 90 100 99 93 83
53 65 77 77 100 100 100 100 99 94 98 100 100 100 84 52 37 28 29 25 17 21 21 29 34 46 55 88 73 62 54 47 19 17 15 14 14 14 16 100 100 100 100 100 94 88 96 80 84
56 84 87 100 100 100 100 100 100 100 100 100 86 78 48 40 35 29 27 17 19 21 25 33 37 54 82 78 67 73 47 20 17 14 13 14 14 16 22 100 100 100 100 100 100 100 100 100 92
81 100 100 100 100 100 100 100 100 100 100 100 73 51 65 42 32 30 20 16 20 22 33 34 45 56 92 64 86 38 21 17 16 15 12 13 15 38 100 100 100 100 100 100 100 100 100 100 99
100 100 100 100 100 100 100 99 100 100 100 68 82 60 52 40 36 23 17 17 20 25 36 41 39 85 79 90 44 25 20 20 17 19 15 16 27 69 100 100 100 100 100 100 100 100 100 94 79
98 100 100 100 100 100 100 100 100 96 66 69 70 70 44 35 38 22 20 20 26 35 38 39 57 93 68 71 31 29 22 24 20 23 25 60 92 84 96 87 97 100 100 100 100 100 100 90 98
100 100 100 100 100 100 100 94 78 72 65 60 57 49 40 41 26 24 21 25 40 44 39 45 99 69 63 53 35 26 25 27 34 36 52 100 100 100 100 100 100 100 100 100 100 100 100 100 100
100 100 100 100 100 100 100 94 100 82 67 53 51 43 41 45 29 26 24 40 46 46 63 92 78 65 49 36 38 29 30 53 58 80 87 100 91 97 100 100 100 100 100 100 99 96 100 100 100
100 100 100 100 100 100 100 100 84 68 66 56 54 45 48 40 30 28 32 51 54 60 95 100 78 59 37 46 33 30 38 73 77 95 92 100 98 100 99 100 100 100 100 100 100 100 100 100 100
100 100 100 100 100 100 100 86 85 80 72 59 51 51 49 39 34 32 46 53 55 99 100 85 83 69 45 44 40 38 32 61 97 82 100 100 100 100 100 88 100 100 100 100 100 100 95 79 78
100 100 100 100 100 100 100 83 78 75 68 48 61 58 52 45 37 37 50 52 82 100 100 94 82 77 50 50 54 47 38 33 91 60 100 100 100 100 86 100 100 99 88 88 93 96 90 96 98
100 100 100 100 100 100 100 95 82 79 64 63 59 53 59 51 41 46 51 57 100 100 100 100 96 93 58 49 60 59 43 30 40 95 83 100 100 100 89 60 64 78 74 95 94 95 99 100 100
100 100 100 91 100 100 100 84 77 73 69 72 57 52 61 48 45 46 51 53 100 100 98 100 100 94 67 49 53 60 55 36 33 29 76 100 100 100 100 100 100 100 100 100 100 100 100 100 100
100 100 100 100 100 97 96 84 69 63 69 73 55 66 62 47 68 45 54 67 100 100 94 100 100 93 61 47 41 49 57 55 48 38 29 38 63 90 100 100 100 100 95 78 64 58 65 79 84
97 100 97 95 100 97 88 74 54 64 76 55 55 86 64 52 99 45 58 90 100 98 95 97 100 100 78 48 36 41 52 61 64 56 38 33 38 37 40 43 44 42 46 61 80 92 99 87 77

GFSSGP_250_rhum_081.txt.gz
RH
97 95 88 85 85 84 73 58 49 43 40 37 36 36 38 37 32 29 27 27 25 26 28 24 22 22 22 18 15 14 12 12 13 11 10 10 9 9 8 7 7 6 6 6 6 6 6 6 7
95 85 85 92 89 90 91 77 67 58 50 44 40 41 41 37 33 33 34 33 28 31 28 29 25 27 24 20 18 14 12 12 12 10 11 16 18 12 15 22 11 7 8 10 8 6 6 5 6
96 92 90 83 68 83 86 81 72 68 57 51 50 51 46 41 40 42 42 34 32 33 34 32 31 29 25 22 20 15 13 12 11 11 10 10 9 11 13 25 30 30 23 10 14 30 13 6 6
96 95 97 91 100 100 99 87 74 62 59 55 53 51 48 43 46 46 43 39 38 40 37 36 37 32 26 22 20 17 16 16 12 12 11 11 12 12 28 38 54 52 50 43 42 28 27 29 29
38 43 63 75 95 97 76 70 90 78 69 71 68 63 62 66 69 59 50 60 56 49 49 44 35 26 26 21 24 27 30 19 15 13 12 18 29 51 59 57 98 83 91 85 81 87 60 32 29
42 41 31 31 41 67 82 73 94 74 82 87 93 82 78 90 90 80 92 75 65 59 52 43 34 26 24 22 22 28 28 24 18 13 41 64 100 100 100 100 93 99 91 96 96 95 93 60 36
79 53 47 32 37 38 46 52 50 52 71 66 82 75 88 85 100 100 93 82 66 58 47 38 33 26 24 24 30 32 22 20 15 28 63 98 100 100 100 100 100 100 100 93 70 74 86 72 54
100 91 56 70 50 46 40 33 38 28 31 39 70 75 92 65 100 86 72 60 52 54 45 37 28 27 32 40 32 24 20 16 14 15 40 100 100 100 100 100 100 98 100 66 91 88 82 93 72
100 100 100 100 95 58 36 47 44 41 32 37 63 95 99 99 100 85 80 68 55 48 35 31 32 40 47 41 22 17 15 13 13 12 23 100 100 100 100 100 100 100 100 100 91 100 84 75 67
100 100 100 100 100 63 53 50 65 58 43 34 50 94 100 100 100 89 87 65 53 35 34 44 47 52 37 27 22 15 14 13 14 13 17 99 100 100 100 100 100 100 100 100 100 74 56 51 49
77 94 100 100 100 85 67 56 65 77 54 43 53 74 99 100 100 100 100 64 41 53 55 74 50 29 24 25 17 14 14 13 15 17 16 96 100 100 100 100 100 100 100 100 100 100 62 73 56
66 80 100 95 84 78 79 64 69 100 96 82 52 60 72 85 93 100 73 84 91 99 76 40 29 28 30 21 16 16 17 18 22 24 22 89 100 100 100 100 100 100 100 100 99 88 87 70 74
68 62 90 99 100 87 68 65 76 92 59 97 96 62 66 99 100 100 100 96 78 52 36 29 27 31 27 21 18 18 22 27 37 28 46 76 100 100 100 100 99 100 100 100 100 100 100 61 72
73 52 53 54 58 93 65 74 64 100 83 98 78 57 98 100 98 78 66 61 52 41 36 31 27 28 24 20 21 22 37 44 56 50 47 76 100 100 100 100 100 99 100 100 100 89 98 63 62
37 29 30 35 42 56 55 64 71 100 100 99 91 100 100 94 71 70 88 69 47 42 40 34 29 29 22 22 21 32 56 90 68 50 57 67 84 89 100 100 100 100 100 100 100 94 92 82 91
20 21 26 36 35 41 46 56 72 100 100 96 100 100 100 100 99 74 58 54 52 50 38 32 29 27 22 23 26 44 92 100 74 52 43 45 59 67 87 94 100 100 100 100 100 100 98 93 88
24 22 23 30 33 41 46 53 74 98 100 100 100 100 100 100 100 100 100 59 44 45 40 34 28 22 24 22 42 77 100 86 65 53 44 34 36 27 32 66 95 100 100 100 100 100 100 100 89
21 21 25 33 37 47 44 47 63 100 100 100 100 100 100 100 100 91 84 65 38 36 34 32 28 20 23 28 53 95 100 73 60 50 43 43 28 19 16 15 38 64 100 100 100 100 100 100 97
20 22 24 31 32 35 53 81 100 100 100 100 100 100 100 100 100 100 85 57 38 32 36 28 19 22 24 44 85 100 96 72 48 48 40 24 17 15 14 14 16 22 87 100 100 100 100 100 100
22 22 37 41 33 50 100 89 97 100 100 100 100 100 100 100 100 100 72 45 32 29 26 19 19 24 28 54 93 100 87 58 52 25 17 14 14 13 15 16 18 97 100 100 100 100 100 100 100
25 39 70 83 71 70 84 77 100 100 100 100 100 100 97 98 98 75 47 40 30 25 19 16 21 23 34 79 100 100 70 36 23 18 15 14 15 15 15 68 79 97 100 100 100 100 100 100 100
60 64 93 100 100 93 97 99 100 100 100 100 100 100 100 87 74 49 42 33 31 23 17 20 23 29 55 94 100 94 45 26 22 20 16 17 17 15 20 63 100 100 100 100 100 100 100 100 100
100 91 100 100 100 98 100 100 100 100 100 100 100 100 96 87 64 49 37 33 28 20 22 23 27 41 82 100 100 61 38 24 22 26 23 26 34 57 76 100 100 100 75 100 100 100 100 100 100
92 100 100 100 100 100 100 100 100 100 100 100 100 100 90 78 52 42 34 35 29 24 24 28 50 65 100 100 89 41 34 24 29 34 47 41 79 94 82 100 100 100 100 100 100 100 100 100 100
91 100 100 100 100 100 100 100 100 100 100 100 100 100 87 65 42 40 38 35 29 27 32 47 71 97 100 100 56 36 28 26 42 68 65 82 100 100 94 98 100 100 100 100 100 100 100 100 100
100 100 100 100 100 100 100 100 100 100 100 100 100 99 74 60 47 45 36 33 33 30 53 80 94 100 100 99 49 35 29 30 35 88 88 100 100 88 65 86 100 100 100 100 100 100 100 100 100
100 100 100 100 96 100 100 100 100 100 100 100 100 97 78 56 52 39 40 36 33 43 76 91 100 100 100 88 57 36 32 31 32 80 85 100 100 100 78 98 100 100 100 100 100 100 99 100 100
89 100 100 100 100 100 100 100 100 100 100 99 96 96 70 52 50 42 42 40 39 64 91 98 100 100 100 86 74 46 40 38 39 40 99 100 100 100 95 100 96 94 96 100 100 95 86 75 77
80 100 100 99 100 100 100 100 100 100 100 100 100 98 70 52 46 45 42 41 45 89 99 100 100 100 100 71 72 54 48 52 42 41 48 100 100 100 100 97 90 90 96 99 98 95 88 81 82
73 86 100 100 100 100 100 100 100 100 100 100 100 85 60 56 49 43 42 46 61 87 100 100 100 100 100 79 59 68 56 57 46 39 42 51 100 100 100 100 100 100 98 74 76 97 99 100 100

GFSSGP_250_rhum_084.txt.gz
RH
76 68 75 83 75 55 50 66 74 77 71 68 63 67 60 54 46 43 40 36 37 36 33 31 30 30 23 22 21 19 22 19 17 15 13 12 11 9 10 10 9 9 8 8 8 9 9 11 10
79 100 82 71 69 73 93 97 95 85 70 67 72 78 72 68 61 54 47 44 42 41 35 36 37 33 29 27 23 22 25 20 17 14 13 12 12 9 14 16 17 24 28 28 27 34 36 29 22
40 39 48 43 43 63 89 100 100 100 85 89 82 79 65 65 64 48 54 47 47 44 41 38 36 32 31 28 26 23 22 23 18 16 13 12 15 11 12 25 28 27 37 39 38 42 41 33 31
50 45 41 43 42 42 46 42 50 70 57 56 100 100 81 74 62 50 50 54 50 47 42 40 33 34 37 33 32 34 31 25 23 17 14 17 12 15 23 41 45 70 85 76 88 98 92 86 65
89 79 62 60 64 58 60 52 35 37 32 34 49 72 91 97 85 69 66 66 74 80 74 72 61 59 56 49 46 41 41 35 25 19 15 12 14 15 55 98 91 100 100 100 88 93 100 100 98
90 98 83 80 66 64 70 68 66 44 39 39 28 47 46 55 68 82 99 91 98 99 100 100 93 94 76 59 53 36 40 32 27 19 16 11 15 53 100 100 100 100 100 95 100 100 100 100 79
100 100 98 93 100 99 100 94 60 46 41 42 36 33 42 41 32 40 90 100 89 97 98 99 90 91 64 46 42 39 37 31 26 18 16 13 50 100 100 100 100 100 100 95 86 100 100 100 60
93 100 100 100 100 100 100 99 59 46 90 53 39 38 37 36 29 28 46 100 88 88 100 88 81 72 63 59 49 39 33 38 31 18 15 12 32 100 94 100 100 100 100 100 92 83 100 94 48
100 100 98 100 100 96 100 100 100 96 100 71 60 45 44 39 34 35 69 80 90 100 99 98 90 80 63 59 46 37 42 35 22 16 15 13 21 90 97 100 100 100 100 100 100 100 100 100 89
100 100 100 100 96 80 80 81 71 87 100 85 66 64 50 44 44 41 72 64 97 100 100 100 97 80 66 39 34 53 33 23 20 15 15 12 16 57 100 100 100 100 100 100 100 100 100 100 100
100 100 100 100 100 100 95 70 70 75 86 81 58 63 63 51 67 44 71 100 100 100 100 100 100 76 61 54 67 45 26 24 17 15 12 11 15 45 100 100 100 100 100 100 100 100 100 98 84
99 100 100 98 89 85 74 71 63 77 97 97 82 65 68 56 100 75 56 88 100 88 92 100 86 96 83 74 35 28 27 24 17 14 13 19 21 30 100 100 100 100 100 100 100 100 100 100 76
73 74 68 73 87 94 68 70 70 71 80 80 79 66 62 89 93 99 100 76 69 98 100 100 99 74 59 38 33 34 25 22 16 15 14 20 20 28 100 100 100 100 100 100 100 100 100 100 79
71 66 63 71 74 63 53 50 41 62 100 86 82 78 63 76 62 72 59 97 100 100 100 84 59 43 36 31 29 32 24 22 18 18 24 23 30 61 80 100 100 100 100 100 100 100 100 100 99
66 56 52 49 42 36 36 29 40 73 100 82 77 62 67 97 100 98 100 100 100 100 77 84 57 37 32 30 36 31 29 22 21 21 38 27 69 70 100 100 100 100 100 100 100 100 100 100 100
46 43 40 31 27 24 25 19 34 37 63 88 56 55 66 100 100 100 100 100 100 100 100 75 60 35 32 38 35 26 24 22 23 23 27 49 62 65 100 100 100 100 100 100 100 100 100 100 100
54 33 21 23 21 17 15 17 25 32 38 52 53 62 68 100 100 100 100 100 100 100 100 97 71 46 60 40 29 24 24 26 24 36 63 64 70 84 96 100 100 99 100 100 100 100 100 100 100
38 22 17 17 16 14 13 20 27 37 39 41 46 58 85 100 100 100 100 100 100 100 91 61 64 84 81 40 28 24 25 28 41 60 94 85 62 66 75 100 93 93 94 100 100 100 100 100 100
29 20 15 16 14 13 14 20 26 31 37 43 56 58 100 100 100 100 100 100 100 78 72 98 97 76 62 38 26 24 26 32 61 93 98 94 67 56 46 68 84 70 84 97 100 100 100 100 100
20 17 15 15 15 13 18 22 25 40 52 52 56 88 100 100 100 100 100 100 98 86 50 93 95 72 47 30 25 25 32 46 85 92 99 74 59 48 38 32 36 26 40 46 76 100 100 100 100
17 15 15 16 18 18 23 22 26 42 54 51 66 80 80 100 100 100 100 100 91 100 100 96 68 41 37 26 26 28 37 74 90 94 91 67 49 38 29 25 21 17 16 17 39 100 100 100 100
15 16 17 20 20 24 25 33 65 61 66 73 97 98 100 100 100 100 100 100 90 80 66 52 42 41 26 22 27 35 61 93 90 92 74 55 30 21 17 16 15 14 15 17 91 100 100 100 100
16 17 21 24 22 27 100 45 100 94 98 100 100 100 100 100 100 100 100 99 80 72 57 45 42 28 23 26 33 54 94 98 92 82 44 20 16 15 15 16 20 16 20 34 100 100 100 100 100
20 21 24 28 37 56 98 64 100 100 100 100 100 100 100 100 100 100 100 83 68 59 54 41 32 32 28 35 49 91 100 99 82 36 21 21 17 18 19 27 71 57 52 69 100 100 100 100 100
22 24 25 30 64 87 98 100 99 100 100 100 100 100 100 100 100 100 93 90 58 60 47 35 31 32 35 48 86 100 100 94 50 21 24 28 32 33 36 56 99 100 100 100 100 100 100 100 92
21 24 33 46 86 100 100 84 100 100 99 100 100 100 100 100 100 100 100 86 53 41 42 35 30 32 45 87 100 100 100 70 29 24 32 55 55 47 87 100 100 100 100 100 100 100 100 100 100
21 27 40 68 88 96 100 100 100 100 98 100 100 100 100 100 100 100 70 45 41 47 43 35 32 38 80 94 100 100 90 44 27 29 34 89 80 69 100 100 100 100 100 100 99 100 100 100 100
21 28 61 97 100 100 100 100 100 100 100 100 100 100 100 100 100 77 69 52 60 66 48 33 43 70 92 100 100 100 64 34 34 29 30 81 100 100 81 98 98 100 100 100 100 100 100 100 100
21 30 54 89 98 100 100 100 100 100 100 100 100 100 100 100 100 86 81 67 77 84 57 74 50 83 100 100 100 96 44 36 42 32 29 76 100 100 94 93 100 100 100 100 100 100 100 100 100
19 28 46 70 100 100 100 100 100 100 100 100 100 100 100 100 90 95 85 61 76 85 73 100 97 96 100 100 100 90 45 44 51 46 32 52 92 100 100 96 85 100 100 100 100 100 100 100 100

GFSSGP_250_rhum_087.txt.gz
RH
42 31 19 27 49 67 78 84 79 80 68 45 62 81 84 75 50 46 42 41 48 46 43 42 40 36 33 32 30 26 26 23 22 20 18 17 15 14 12 12 11 11 10 9 8 9 14 22 27
79 40 39 30 24 32 46 54 71 89 89 65 60 66 94 100 79 62 67 62 53 48 46 49 44 38 36 34 32 30 26 22 22 23 19 18 16 14 13 12 12 15 11 15 21 24 28 37 35
38 62 94 76 60 46 40 46 43 42 31 31 36 39 74 100 63 55 61 70 76 67 69 59 52 45 42 38 36 34 26 28 26 26 28 21 16 15 15 36 24 18 20 47 85 98 100 100 90
26 24 31 48 100 93 63 53 53 45 38 40 39 36 32 36 38 32 35 47 79 75 94 98 87 64 55 51 42 49 47 47 49 42 33 24 18 14 12 26 36 36 70 82 100 100 93 96 100
42 36 31 31 51 100 96 76 67 70 62 49 57 48 43 34 29 26 24 30 56 51 70 94 86 89 76 67 58 79 86 77 66 42 42 33 21 17 16 24 64 100 100 100 100 92 100 100 92
49 38 41 38 41 100 100 100 96 89 95 68 42 49 69 39 33 36 34 35 40 41 40 47 55 99 95 95 98 92 82 72 61 54 46 44 30 21 20 39 100 99 100 90 96 99 100 94 100
65 77 58 65 46 44 100 100 100 100 92 91 87 85 82 57 51 33 42 48 55 42 34 30 32 46 95 96 96 80 74 63 63 65 59 44 27 16 22 70 100 100 100 100 99 88 100 100 100
49 62 71 70 64 82 93 100 96 86 79 92 87 86 92 56 66 56 59 54 61 62 42 35 29 33 64 98 82 80 87 75 73 62 54 40 26 15 12 72 100 98 100 100 99 93 87 100 100
56 54 71 99 100 96 78 93 100 87 75 97 100 94 99 77 87 76 68 62 61 54 55 39 30 56 77 100 87 92 91 85 76 52 34 32 26 16 13 68 100 100 100 100 100 100 100 94 100
60 79 99 88 79 100 100 100 100 100 100 100 100 92 73 61 56 48 62 61 69 66 60 46 38 75 99 100 88 100 96 78 70 55 44 45 24 16 12 55 100 100 100 100 97 100 100 100 100
66 65 89 100 100 100 100 100 100 94 97 81 78 87 74 55 50 55 62 71 69 71 86 62 44 100 100 100 100 84 88 89 82 58 50 31 19 15 13 46 100 100 100 100 100 100 100 100 99
100 100 92 77 56 78 78 99 100 90 62 86 92 94 82 75 74 56 86 67 71 67 83 74 66 100 65 100 98 100 100 79 52 40 36 24 18 15 13 17 77 100 100 100 100 100 100 100 100
100 100 89 68 43 47 46 46 52 76 65 68 74 86 93 73 81 56 70 64 73 79 100 100 90 62 63 100 100 100 96 54 30 28 25 20 15 14 12 13 58 86 100 100 100 100 100 100 100
100 88 70 46 46 54 56 52 44 46 61 58 53 49 58 54 57 84 65 54 82 86 76 89 97 60 97 100 99 80 47 33 29 27 25 19 16 14 16 15 25 55 100 100 100 100 100 100 100
85 74 44 70 67 68 47 28 43 45 48 37 42 41 42 42 44 71 100 48 72 100 91 55 85 100 100 100 96 62 56 40 31 37 27 19 18 16 21 24 20 44 100 100 100 100 100 100 77
44 42 56 88 88 52 34 20 29 30 29 26 27 28 32 36 41 64 95 69 62 94 100 53 100 100 100 100 93 73 45 50 68 63 28 20 20 20 28 33 37 72 100 100 100 100 100 100 100
51 67 90 96 52 27 22 15 21 23 22 21 23 26 34 38 40 58 87 72 80 100 100 100 100 100 100 100 97 68 58 44 66 50 30 21 24 34 36 40 95 95 100 100 100 100 100 100 100
82 78 95 63 50 20 16 16 17 15 17 18 17 19 21 22 28 37 71 65 88 100 100 100 100 100 100 100 96 74 56 60 68 42 24 23 29 63 55 82 99 100 100 100 99 100 100 100 94
79 84 75 46 23 15 16 14 13 13 15 16 15 17 24 26 33 40 60 61 92 100 95 100 100 100 100 96 79 45 78 95 62 34 25 26 41 66 82 98 100 100 100 100 100 99 100 100 100
74 71 57 24 17 14 14 12 13 15 14 18 19 22 29 34 40 47 55 88 93 100 100 100 100 100 99 69 34 88 100 80 48 28 27 34 44 63 88 100 95 98 99 100 97 93 100 100 100
84 65 30 17 15 15 11 11 14 18 19 20 27 27 36 36 41 47 62 98 100 100 100 100 100 74 46 52 97 97 68 52 32 27 30 52 62 73 95 92 64 69 73 91 100 96 100 100 100
66 39 20 15 14 14 12 12 19 21 22 31 38 36 52 48 51 52 85 100 100 99 84 100 90 92 100 100 90 55 50 40 25 31 46 54 75 81 82 69 59 52 47 48 77 68 75 100 100
39 20 17 15 14 14 14 11 70 32 53 41 52 68 64 50 53 58 97 79 94 100 100 100 100 98 92 82 47 46 44 24 29 35 52 80 85 79 65 51 41 36 34 29 30 36 27 100 100
29 21 14 14 12 17 15 17 54 54 71 86 72 92 81 80 89 83 100 100 100 99 73 100 100 100 98 66 46 38 29 26 32 48 85 84 70 70 51 29 20 20 19 20 23 19 18 73 100
22 18 14 17 15 21 23 24 58 100 92 100 100 100 100 100 99 100 100 100 98 100 100 100 100 94 56 50 39 34 27 32 41 81 91 64 72 34 19 18 16 15 16 18 20 17 17 93 100
22 18 15 17 19 22 29 43 99 100 100 100 100 100 100 100 100 100 100 100 100 94 94 92 55 68 69 64 43 30 31 42 91 95 66 64 27 21 22 24 22 26 66 60 35 22 23 100 100
20 19 17 20 20 24 34 52 100 100 93 100 100 98 100 100 100 100 100 100 98 94 57 62 81 56 67 67 45 43 40 97 100 69 69 30 27 30 40 44 48 96 100 100 99 100 100 100 100
20 20 19 20 22 26 46 71 100 100 97 83 100 100 100 100 100 100 100 100 99 94 100 100 93 96 82 69 49 55 97 100 95 72 42 28 39 46 53 61 100 100 100 100 100 100 100 100 100
21 22 20 20 23 25 62 84 94 100 100 98 100 100 100 100 100 100 100 100 95 90 96 96 99 87 100 47 58 84 100 100 84 67 32 28 38 58 80 76 99 100 100 100 100 100 100 100 100
22 21 18 20 26 30 77 100 100 100 100 82 100 100 100 100 100 100 100 100 98 78 61 78 76 100 100 39 67 99 100 100 88 41 37 35 38 61 100 78 100 100 100 100 100 100 100 100 100

GFSSGP_250_rhum_090.txt.gz
RH
20 25 20 21 30 38 31 30 70 89 74 64 71 74 70 67 70 57 54 58 68 59 54 51 47 41 42 43 42 38 35 33 32 28 25 23 22 20 19 18 17 15 13 13 11 12 11 12 15
23 32 35 20 22 49 92 50 33 30 41 41 37 40 50 53 54 50 50 53 50 48 48 50 50 54 55 46 41 42 38 36 35 31 27 24 22 21 24 20 17 14 12 26 26 16 22 40 51
35 57 45 26 31 28 45 97 91 63 48 35 26 24 26 26 31 37 32 28 28 30 32 31 32 41 50 52 46 48 50 46 46 42 31 30 28 35 30 21 22 19 13 28 32 47 100 100 100
59 56 28 20 34 32 24 34 46 99 99 84 56 44 31 30 43 47 36 33 28 28 25 25 26 30 32 33 42 44 46 46 50 54 43 49 52 51 36 25 24 18 22 39 66 100 100 100 94
44 46 28 32 36 38 37 49 36 54 72 72 82 57 34 39 51 49 43 42 49 40 34 40 33 27 29 33 40 43 44 41 51 72 84 78 67 58 44 33 22 22 43 72 100 99 100 97 100
48 45 40 36 37 48 96 78 60 47 36 34 40 69 76 35 55 75 78 86 78 64 49 41 48 39 33 30 35 32 35 45 61 66 74 72 64 52 44 34 25 39 64 100 100 97 100 100 100
64 50 39 41 44 49 52 45 50 66 66 51 63 92 80 54 51 81 86 98 99 83 70 47 58 56 40 33 29 28 26 26 37 63 77 82 69 82 55 40 21 23 70 100 94 100 100 100 100
68 60 57 50 52 59 60 48 78 70 69 73 64 53 62 99 71 84 87 74 71 100 100 76 88 81 51 49 32 28 25 29 74 71 81 81 68 90 64 45 22 19 59 100 100 100 84 100 100
59 52 56 63 53 52 68 55 74 80 71 83 91 70 74 66 77 91 72 64 82 88 100 100 78 92 57 57 37 31 41 56 76 75 81 78 84 75 64 42 26 19 52 100 100 98 100 100 100
75 81 88 87 85 93 75 99 100 86 63 47 76 100 100 100 100 100 100 100 95 91 97 85 79 100 70 62 46 37 62 68 89 100 100 92 72 78 58 48 46 56 48 97 100 90 96 100 100
100 100 100 100 100 100 100 100 100 98 97 74 54 43 39 83 93 74 67 52 47 83 68 72 69 83 79 60 43 47 76 70 91 91 83 99 96 45 39 32 26 23 22 98 100 98 100 100 100
100 100 100 100 100 100 100 100 100 94 78 59 50 45 47 46 54 62 42 53 60 76 81 76 76 76 74 59 56 73 40 50 64 98 100 96 80 37 29 23 19 18 16 100 100 88 100 100 100
100 100 100 100 100 95 87 90 85 79 62 47 37 37 57 45 64 70 65 47 47 64 86 83 94 75 69 66 94 92 67 66 97 100 98 72 43 31 29 22 17 15 15 97 100 100 100 100 100
82 97 95 80 92 89 68 70 63 54 62 56 52 71 57 44 42 38 42 59 60 67 89 96 99 80 72 74 92 86 55 88 100 99 73 55 40 44 38 29 16 13 14 94 100 100 100 100 100
44 71 98 88 75 76 57 50 49 50 62 47 63 45 46 47 34 33 35 40 53 72 80 99 100 97 84 77 75 52 88 100 100 100 82 46 46 37 39 27 16 14 14 74 100 100 100 100 100
44 74 85 83 71 53 43 44 73 71 86 65 39 30 24 29 28 27 26 28 40 50 77 80 100 100 85 74 71 73 100 100 100 89 47 59 53 53 67 22 18 17 15 50 91 100 100 100 100
36 70 96 87 59 44 47 45 69 76 52 29 17 16 19 24 24 24 21 21 24 36 52 76 82 100 80 69 69 77 100 100 100 99 70 72 50 66 63 24 20 20 23 26 84 100 100 100 100
49 45 51 46 50 69 75 54 63 42 27 16 13 14 14 16 17 17 18 20 23 31 36 50 63 94 98 98 87 74 100 100 100 85 80 47 54 88 53 25 25 29 36 28 78 99 100 100 100
63 84 93 98 100 79 89 60 63 42 19 14 14 12 13 14 14 16 19 20 22 28 35 50 68 81 100 100 100 100 100 99 100 92 77 49 86 65 35 27 30 47 78 64 87 100 100 100 100
73 91 100 85 76 79 67 59 57 26 14 12 12 13 12 13 16 17 17 17 20 23 35 49 74 91 100 100 100 100 92 68 97 77 50 66 68 50 27 31 43 62 92 100 99 100 100 100 100
83 100 100 100 89 70 52 44 30 17 11 12 12 11 14 16 17 17 18 20 26 26 33 64 68 99 94 91 100 100 75 84 62 48 56 61 48 36 30 38 83 91 75 87 100 100 100 100 100
100 100 100 73 64 54 51 20 28 11 13 12 11 16 18 21 19 20 21 26 33 39 58 74 97 100 92 100 100 90 73 46 93 76 53 49 44 29 34 63 82 100 93 79 86 98 100 100 100
100 100 100 99 63 42 51 13 21 12 13 13 19 22 27 30 26 25 26 36 51 59 100 100 99 96 100 91 80 67 55 84 84 58 51 41 29 31 40 64 94 88 81 78 80 80 78 100 100
98 98 80 63 48 44 24 14 16 15 16 20 34 36 45 29 37 37 38 43 78 100 100 91 94 100 78 73 63 46 78 100 83 60 40 27 30 36 56 97 100 91 79 71 55 54 61 84 99
76 74 59 49 44 25 17 15 16 19 21 35 72 69 61 74 79 60 61 68 100 100 96 64 65 42 43 40 45 85 84 65 61 57 24 29 38 49 90 96 82 68 59 47 40 38 38 41 51
63 47 45 38 23 18 15 17 19 25 27 60 83 87 95 82 95 76 79 99 100 92 67 100 100 100 98 87 94 97 99 69 61 27 27 38 68 98 100 81 59 40 23 18 16 21 24 28 37
59 54 43 27 20 16 15 20 25 30 66 93 99 100 100 86 88 100 100 100 100 66 51 70 66 80 100 100 97 100 86 66 28 30 38 69 100 100 87 56 26 23 26 21 19 17 16 21 23
56 44 29 21 16 16 19 23 30 38 81 87 100 100 100 100 100 100 100 100 91 75 63 64 88 98 100 100 93 79 70 39 32 40 62 100 100 98 55 28 31 52 44 41 83 76 89 87 51
33 30 23 17 14 20 21 28 40 78 68 97 100 72 100 100 99 100 100 100 99 69 84 99 92 82 86 77 68 95 90 48 42 67 100 100 100 77 33 30 61 82 86 100 100 100 100 97 100
28 20 21 16 20 22 21 34 83 98 100 94 100 68 98 100 100 100 100 100 72 100 100 76 98 98 100 100 92 100 100 83 52 84 100 100 88 44 30 33 62 82 100 100 100 100 100 100 100

GFSSGP_250_rhum_093.txt.gz
RH
23 19 17 16 23 23 37 54 34 26 20 24 31 38 42 40 41 36 39 34 38 45 47 45 47 40 27 26 28 27 24 23 27 30 30 31 29 28 29 26 25 22 22 21 18 16 14 15 20
24 23 21 19 21 53 43 33 21 21 24 30 33 28 29 34 38 45 48 48 47 48 47 45 47 49 45 40 36 33 32 30 31 33 34 34 32 31 29 29 24 25 30 24 24 20 18 35 46
29 28 26 22 39 57 47 27 27 25 26 27 32 38 39 49 39 25 27 29 29 33 34 30 27 27 26 26 28 28 27 31 35 35 35 37 37 34 33 28 25 38 31 27 20 20 31 75 100
36 35 30 28 43 49 35 33 31 31 27 24 25 24 28 37 76 66 42 40 43 39 31 33 42 37 31 26 26 24 21 21 21 25 35 37 40 42 38 40 35 44 36 32 26 35 69 100 100
46 47 35 48 67 53 46 44 36 36 36 33 35 32 31 34 33 51 82 69 63 65 64 61 61 58 46 48 37 33 29 24 21 21 26 30 33 35 33 38 50 38 51 52 67 86 100 100 100
55 62 49 64 75 64 54 46 43 44 42 42 38 39 54 43 37 38 92 100 96 84 80 81 80 59 42 52 52 38 38 33 24 25 28 27 29 35 34 32 39 36 41 33 39 68 100 100 100
91 65 76 97 80 68 62 53 51 50 54 50 45 40 53 46 39 50 53 85 100 78 77 74 74 87 67 62 48 48 46 40 31 26 30 27 24 27 37 38 46 38 31 21 17 49 94 100 100
100 82 96 100 100 77 59 61 81 66 57 48 57 69 42 46 50 51 41 59 74 77 96 100 100 86 80 75 62 61 56 56 40 32 32 29 36 51 60 64 56 48 49 27 21 36 98 100 100
62 65 73 100 100 89 92 91 94 79 83 96 95 99 76 64 60 58 50 52 60 86 100 100 100 100 100 100 97 82 68 60 44 36 37 60 44 47 64 98 70 70 59 28 24 26 88 100 100
36 39 73 100 100 100 100 96 100 86 80 98 100 98 100 91 71 53 46 56 68 94 94 90 100 100 98 93 78 76 78 66 53 41 46 80 64 61 55 52 92 82 52 45 41 42 87 100 100
61 83 91 99 100 79 100 100 100 93 100 100 100 99 87 76 69 60 58 78 99 93 67 56 100 100 100 85 65 55 77 76 57 51 70 92 81 71 53 87 92 73 59 39 33 55 92 98 100
100 84 90 87 100 88 91 85 83 91 95 97 99 98 85 79 73 66 63 54 44 55 86 91 100 100 100 80 63 56 82 68 65 58 46 61 60 92 65 100 90 48 32 26 21 26 89 100 100
100 100 100 98 94 88 70 61 50 50 90 87 85 81 68 68 70 58 46 40 34 36 60 95 100 100 100 99 85 89 81 72 70 67 65 69 74 87 88 92 67 45 35 30 22 18 95 100 100
94 93 100 99 100 98 81 60 46 80 91 92 95 77 67 62 55 48 45 39 31 33 46 63 89 100 99 95 84 97 81 62 68 78 62 69 99 97 83 88 54 37 36 28 18 15 88 92 100
100 100 100 100 94 68 63 56 42 45 88 98 90 74 67 59 54 42 34 33 31 26 31 43 71 97 86 100 96 90 88 64 69 72 58 79 100 100 88 79 62 42 44 27 16 14 82 100 100
100 100 100 100 100 100 79 60 56 37 51 71 55 60 62 76 62 71 36 38 30 24 17 24 32 66 87 97 100 86 94 58 86 70 66 100 100 99 86 78 71 38 44 25 17 14 100 100 100
100 100 100 100 100 92 58 64 53 38 68 80 61 75 93 73 85 70 54 32 20 14 14 19 24 46 60 74 100 79 79 60 90 78 100 99 100 100 76 75 69 43 55 25 18 16 98 100 100
83 100 100 100 100 95 96 73 54 44 61 58 62 59 53 55 46 38 25 16 14 13 14 17 24 33 42 46 65 51 52 81 95 95 93 89 100 100 89 77 57 58 52 23 20 18 81 100 100
94 100 100 100 87 100 100 81 44 46 96 91 62 63 48 32 30 19 13 12 12 14 14 15 18 23 33 46 57 63 62 99 100 100 100 100 100 82 88 73 57 62 41 23 26 26 66 100 100
86 87 93 91 74 70 63 47 44 76 87 73 73 46 32 23 15 12 12 12 12 11 11 14 18 22 31 41 50 50 62 100 96 78 100 94 78 92 88 60 53 50 43 26 40 33 63 100 100
94 85 91 86 72 59 44 40 80 92 75 54 34 27 25 15 12 11 11 11 11 12 15 17 18 27 38 47 51 54 63 92 100 100 100 99 96 78 49 50 68 62 35 36 62 68 76 100 100
93 91 81 74 64 54 42 48 90 92 52 28 28 23 16 12 11 10 10 12 14 15 15 18 22 32 41 46 53 76 74 88 100 100 94 98 49 43 57 86 85 48 34 52 93 99 70 88 100
85 71 74 71 55 49 54 37 80 96 36 32 22 16 13 12 12 13 13 16 16 16 17 25 27 31 46 59 68 85 100 54 98 100 99 50 44 66 90 87 49 34 61 86 85 97 85 100 100
71 69 65 60 57 55 54 50 78 44 43 32 17 14 14 15 15 19 18 17 18 25 35 35 35 36 57 73 99 95 62 54 60 90 100 50 85 100 93 61 37 40 82 100 100 83 77 97 99
59 64 61 63 58 74 76 43 37 38 30 22 17 17 17 22 21 22 23 26 30 47 51 45 41 63 80 100 87 60 56 55 75 100 100 97 99 98 68 43 36 80 90 92 83 76 67 57 82
70 58 60 59 74 75 66 48 44 29 24 19 18 21 27 31 19 27 29 39 42 47 68 78 91 76 88 72 75 74 91 97 100 100 98 90 100 78 42 37 77 88 91 94 80 81 72 66 68
79 78 93 77 74 52 47 42 44 25 22 20 21 31 39 32 33 49 59 46 52 78 95 97 80 60 65 76 100 100 100 100 100 82 79 82 74 40 39 67 81 92 100 93 96 75 63 54 50
88 87 86 73 55 36 33 35 30 24 19 24 28 44 65 44 75 93 78 68 99 100 96 96 70 75 100 100 100 100 87 90 100 70 46 38 31 51 76 73 97 98 94 75 37 22 19 17 19
82 73 72 67 49 33 24 33 26 19 24 28 41 54 60 39 94 99 86 100 100 95 100 100 87 100 100 100 100 100 100 100 100 94 56 31 44 77 85 98 85 87 41 31 46 40 32 30 22
66 66 57 42 26 25 22 28 22 26 29 36 52 74 60 60 78 100 99 100 100 100 95 100 100 100 100 100 100 100 95 100 100 89 78 44 51 87 86 100 93 46 46 66 72 64 87 100 81

GFSSGP_250_rhum_096.txt.gz
RH
33 29 26 26 26 27 38 28 19 18 20 18 17 16 15 19 22 31 41 49 48 48 53 57 59 52 47 48 32 26 26 22 23 22 21 23 31 31 27 25 24 24 23 24 25 24 23 23 24
34 34 29 31 31 31 36 26 23 33 24 23 20 20 22 24 23 27 33 30 36 47 50 50 52 51 49 47 41 38 34 33 36 31 27 30 34 36 35 31 27 26 26 27 28 25 28 32 30
34 34 40 38 38 39 40 31 29 31 38 30 30 29 31 34 33 26 33 56 60 37 27 26 29 30 33 36 32 32 29 27 27 24 24 25 25 28 35 39 35 33 33 34 29 28 34 30 28
42 46 46 40 48 52 43 38 48 47 44 46 40 38 40 37 33 32 30 31 36 59 70 61 53 45 46 43 40 38 28 24 27 31 28 23 21 20 22 30 36 41 38 37 32 30 32 38 63
36 45 34 48 59 69 63 53 54 50 48 53 48 46 42 44 44 38 33 31 31 36 56 82 82 71 45 33 56 56 38 34 37 30 34 35 31 23 19 18 27 34 38 37 33 29 83 100 100
38 36 33 61 96 91 91 71 76 80 75 66 55 49 65 52 38 39 41 38 32 34 40 56 90 83 62 45 53 60 66 67 43 32 31 45 35 31 25 22 25 28 31 32 31 26 45 70 62
55 32 32 84 100 100 100 74 69 97 86 83 61 69 66 62 65 49 36 38 41 38 41 38 48 45 39 45 54 60 61 71 62 67 56 63 56 42 35 27 26 27 22 23 26 26 28 32 30
35 39 47 72 77 100 95 89 84 81 100 98 87 88 79 59 50 45 57 56 52 58 59 55 50 45 45 50 52 53 83 93 94 98 72 58 50 51 49 46 25 21 23 42 40 30 34 29 24
34 30 44 76 63 51 70 63 74 67 84 100 99 82 58 64 58 72 70 88 98 100 96 79 74 73 78 89 89 100 100 100 100 100 73 67 47 50 48 70 32 31 39 60 47 35 40 36 35
45 36 44 62 62 55 57 41 58 46 60 92 64 53 71 79 93 92 100 100 100 99 96 87 66 80 87 88 78 88 100 100 100 100 87 77 42 60 52 100 51 29 43 55 64 47 42 43 42
48 53 53 59 56 51 48 60 60 51 61 72 91 84 72 68 51 42 48 54 62 61 76 67 62 65 65 99 77 72 81 93 100 100 96 80 42 61 68 71 52 40 49 77 62 61 47 42 58
51 66 60 54 62 76 87 66 83 84 85 96 95 89 76 56 43 42 45 72 73 79 76 71 72 66 59 52 58 80 79 96 100 100 89 72 45 66 81 63 68 56 70 79 77 58 45 32 34
53 51 61 74 77 84 89 95 94 99 100 100 98 83 73 67 57 50 77 100 90 85 66 57 54 53 50 46 45 55 92 100 100 100 96 69 52 65 87 71 56 65 70 86 67 45 34 27 30
52 65 64 67 75 84 99 87 96 100 100 100 99 100 100 82 66 48 40 66 94 65 67 68 58 47 45 54 61 82 98 100 100 100 100 64 55 63 92 86 69 64 95 78 65 45 37 26 22
83 63 61 68 75 74 62 98 100 100 100 100 100 92 86 90 93 62 49 41 51 79 100 100 80 59 48 49 42 52 79 100 100 87 92 62 64 61 100 90 71 88 100 80 60 46 32 23 19
65 74 67 60 58 79 100 100 100 100 100 100 92 76 90 100 100 79 53 40 44 57 75 68 58 43 44 39 39 43 63 64 99 97 94 79 62 64 98 93 94 95 82 65 59 44 31 20 17
89 84 75 79 91 82 79 85 89 90 91 100 92 100 100 97 93 67 43 55 59 40 40 37 36 37 37 30 23 27 44 40 73 74 98 100 60 65 82 100 100 100 77 63 60 44 38 18 26
93 89 93 89 83 73 72 70 81 100 90 91 100 100 79 62 65 50 42 69 81 50 34 26 24 25 26 18 20 26 30 36 58 81 100 99 64 76 95 100 88 67 65 59 62 54 38 17 44
91 91 99 86 70 66 76 93 85 96 84 81 91 77 67 53 51 42 50 71 66 29 23 21 18 19 17 14 14 18 32 34 50 85 99 82 68 87 100 99 66 58 64 60 57 48 33 19 76
90 80 96 88 74 73 68 82 100 100 87 95 80 64 60 56 51 40 36 39 27 19 18 17 14 13 14 14 16 16 22 31 45 66 75 48 83 100 100 84 43 65 70 61 49 49 30 22 63
94 100 100 95 94 82 70 74 86 85 90 79 62 63 54 49 40 40 32 21 19 14 12 11 11 12 13 15 15 16 19 28 55 72 73 76 81 100 100 100 92 94 65 50 63 46 37 25 34
95 100 100 100 96 95 77 74 86 89 87 75 66 52 44 38 29 21 19 16 11 10 9 10 11 12 13 15 14 18 20 29 52 78 75 99 100 100 100 100 93 75 40 63 61 64 40 33 29
85 79 86 89 87 80 76 65 77 80 70 59 50 44 38 31 28 21 15 12 9 10 10 11 11 12 16 18 20 21 26 30 56 57 100 76 99 100 100 66 84 43 60 78 94 47 33 43 54
84 84 74 68 71 67 70 63 66 63 48 44 42 33 26 22 22 16 14 10 11 13 13 14 14 15 17 21 21 26 30 39 55 60 100 100 100 99 70 77 64 63 66 80 70 42 50 89 94
68 71 83 77 73 65 53 49 53 53 55 51 46 36 18 19 20 16 12 14 16 16 15 16 14 16 18 18 24 36 46 51 60 96 92 87 79 68 80 100 100 97 94 86 62 36 72 100 100
64 62 67 75 68 57 57 50 62 64 57 51 56 35 20 20 18 15 16 19 21 19 19 18 21 26 24 26 37 49 80 79 71 65 62 66 92 92 94 100 91 77 85 64 36 56 84 80 89
70 58 65 62 59 55 61 70 71 58 56 62 47 32 19 18 19 16 23 36 25 27 26 31 55 52 59 66 57 71 99 99 96 100 100 100 97 89 71 96 81 82 78 34 43 60 98 97 82
63 60 63 62 59 64 72 69 69 79 70 51 53 27 20 20 18 23 45 53 46 39 35 47 70 79 77 78 78 82 86 100 99 100 100 100 100 88 40 45 74 66 32 45 68 96 90 82 84
68 73 81 83 72 62 67 67 80 61 51 50 43 28 24 21 25 50 72 71 70 49 50 76 99 100 99 89 97 91 100 100 100 100 100 100 97 58 24 30 38 36 55 92 100 100 100 92 79
87 83 70 72 74 66 62 58 56 49 43 38 33 27 27 22 37 63 83 95 74 64 87 93 100 100 100 100 100 100 100 100 100 100 100 100 99 46 49 36 42 70 100 100 100 99 52 40 41

GFSSGP_250_rhum_102.txt.gz
RH
40 45 44 40 46 70 48 38 36 27 28 29 26 26 21 26 28 21 21 22 22 23 26 24 22 21 22 24 23 18 16 18 22 28 32 32 34 37 39 36 36 37 37 36 37 32 29 29 27
51 43 40 47 51 53 39 29 26 33 34 35 32 27 24 25 34 37 38 25 24 28 31 29 27 28 26 26 25 29 31 22 19 23 25 29 31 36 37 37 34 30 29 30 30 29 28 27 28
79 72 49 39 51 55 44 31 30 29 33 38 38 37 26 28 35 42 42 40 36 37 39 34 33 28 27 26 25 26 29 31 30 32 32 30 33 31 32 32 30 32 30 27 26 26 25 22 24
96 95 95 62 59 56 44 37 32 30 30 36 37 40 38 34 41 59 54 57 58 49 40 36 35 33 27 25 27 27 28 27 28 31 35 41 48 34 34 33 35 42 32 31 35 32 31 28 20
68 84 87 98 84 65 45 39 38 32 29 31 46 54 49 50 36 30 35 51 56 52 52 62 53 43 34 29 27 37 35 31 31 33 28 30 33 37 47 39 33 37 41 40 42 48 35 29 24
69 78 73 99 100 97 74 48 51 48 35 35 37 39 34 40 42 37 32 38 41 46 68 57 40 35 38 46 45 40 45 48 50 49 46 38 38 38 34 35 42 39 38 74 56 47 37 30 27
79 75 72 92 100 100 99 72 66 71 57 33 32 42 49 28 32 35 50 38 33 34 27 37 38 44 49 56 52 45 52 60 64 67 63 51 44 44 40 41 37 42 40 48 52 44 42 45 85
88 65 90 95 78 98 98 86 93 90 43 38 33 33 43 36 37 43 41 54 51 43 37 38 36 40 52 59 61 44 41 35 38 39 75 70 69 59 58 64 69 72 68 57 38 49 42 48 48
75 68 99 100 100 88 84 77 67 56 50 47 44 45 40 47 66 64 53 46 52 55 65 58 43 72 78 86 76 52 44 44 42 43 42 58 92 90 75 61 60 53 76 77 59 61 51 43 57
72 85 100 100 100 95 88 87 77 68 70 66 59 54 51 54 55 52 51 50 44 53 57 48 86 88 95 88 64 56 65 50 46 47 45 49 73 76 54 53 48 66 72 91 72 75 56 43 82
83 75 88 100 100 99 100 97 72 54 44 43 47 54 52 60 67 65 51 56 64 60 52 52 73 100 99 78 69 66 75 62 64 68 61 64 60 52 52 59 57 59 58 89 72 71 54 45 67
90 99 82 75 83 82 74 60 55 49 49 39 49 57 51 48 53 68 67 70 65 69 71 84 100 100 84 64 63 70 79 77 82 87 73 82 73 80 61 54 53 52 52 74 90 75 71 53 50
56 45 65 72 73 73 67 60 55 48 46 36 44 51 64 58 53 56 64 69 77 90 91 96 81 84 79 74 83 83 91 80 77 73 100 100 98 94 85 62 60 71 65 65 99 76 72 68 52
62 56 55 59 48 49 46 50 54 49 42 42 40 53 70 65 61 60 52 55 63 74 81 91 99 97 90 94 100 94 89 84 80 70 69 71 98 100 93 69 52 57 66 65 99 84 71 75 77
100 86 75 43 45 60 50 45 41 44 45 43 47 51 49 61 66 70 66 64 69 76 93 100 100 97 100 100 100 95 92 95 89 78 67 76 83 82 86 72 65 55 66 68 84 92 77 77 71
72 75 75 61 51 38 53 46 48 52 48 44 40 43 56 53 58 70 75 69 65 58 69 87 86 89 93 94 95 92 92 98 99 86 77 85 100 99 77 70 59 56 59 66 98 100 88 84 79
53 52 54 56 59 45 50 55 42 42 46 46 47 44 44 50 54 57 57 63 60 55 61 76 91 100 100 100 98 94 100 100 100 89 74 81 81 76 53 64 67 54 62 75 89 100 91 100 93
65 56 49 42 50 72 60 48 47 40 41 44 51 62 58 56 51 51 62 62 60 61 62 65 70 78 80 98 100 98 89 100 98 81 73 67 68 91 35 48 60 55 60 74 92 94 100 100 88
60 60 57 52 41 58 57 50 47 44 42 46 47 60 59 47 52 62 58 61 58 59 63 66 72 71 73 68 67 66 80 79 74 72 66 56 47 48 24 33 40 48 50 64 68 91 100 100 80
47 47 51 51 49 46 61 58 51 49 50 59 58 56 53 53 53 58 68 67 63 60 66 67 58 56 61 63 61 70 72 66 55 45 40 44 44 24 24 28 32 36 49 67 67 92 100 100 78
44 42 48 49 50 52 47 64 59 55 48 52 66 61 58 64 64 79 88 77 69 76 84 96 74 66 76 68 61 49 46 49 43 31 22 25 25 16 25 29 27 34 46 63 77 100 100 100 80
38 42 47 42 45 42 43 54 66 70 62 51 48 50 59 70 82 73 69 69 80 75 84 75 59 56 52 50 37 32 29 20 16 16 16 14 14 16 26 24 28 41 57 68 93 100 100 98 74
27 34 38 45 49 45 46 50 62 64 64 52 49 53 70 98 95 84 78 77 66 64 53 44 43 46 44 28 17 17 15 13 13 11 10 10 12 12 32 36 97 100 81 80 92 100 100 93 77
32 29 30 33 36 36 57 59 54 61 67 60 53 58 64 66 62 63 61 59 53 47 38 33 34 33 22 13 12 14 12 11 10 10 10 18 15 22 34 67 88 81 92 100 100 100 100 99 76
27 25 24 25 30 40 50 49 53 54 61 61 62 63 66 63 58 53 50 51 45 40 31 29 28 21 18 14 12 12 11 11 12 11 11 29 17 62 60 70 99 100 100 100 100 100 100 96 76
38 36 21 30 41 47 51 48 57 66 65 68 70 69 66 75 71 60 52 54 52 38 28 33 21 17 13 14 12 13 14 14 12 11 13 14 38 48 71 83 100 100 100 100 100 92 100 100 92
56 70 45 39 38 38 50 58 65 72 70 66 71 84 82 71 66 56 46 51 44 37 35 27 19 16 17 15 16 17 19 18 17 14 15 16 35 69 75 100 100 100 100 100 100 100 100 100 100
35 53 65 50 42 48 66 71 73 81 79 78 80 89 83 70 61 46 48 52 43 31 27 23 18 18 21 21 22 30 49 58 47 45 34 27 38 76 89 100 99 100 100 100 100 100 100 100 100
50 71 64 63 52 67 79 83 94 85 87 91 84 82 78 68 62 54 52 43 31 29 26 19 20 23 32 41 76 98 88 92 98 62 66 70 56 88 100 100 100 100 100 100 100 100 100 80 63
34 40 48 58 67 78 80 82 95 93 91 77 68 71 71 77 56 47 47 33 23 30 25 22 27 44 40 91 95 100 100 100 100 100 100 100 100 100 100 100 100 100 100 100 100 98 66 50 38

GFSSGP_250_rhum_105.txt.gz
RH
67 61 55 46 43 44 42 32 25 24 23 24 22 22 24 25 28 18 22 21 22 20 18 15 17 18 17 18 19 18 21 22 24 25 20 20 25 31 32 38 38 35 38 39 41 39 34 33 29
96 95 80 81 96 75 48 31 34 27 30 27 26 26 28 30 33 27 26 26 26 28 25 25 26 29 28 24 24 23 21 22 23 24 24 25 33 39 43 39 29 23 25 29 36 32 31 30 28
100 75 68 80 95 100 89 44 31 35 35 30 30 32 36 33 34 31 28 29 34 31 34 32 32 34 33 33 32 33 27 24 24 25 25 24 26 27 33 45 53 41 35 27 31 33 32 31 32
100 100 99 81 86 81 89 68 63 30 34 37 38 39 36 43 37 35 30 28 29 35 38 42 37 37 38 35 47 39 32 29 33 39 37 30 26 27 30 30 43 54 50 44 39 44 42 40 28
74 100 99 100 100 98 75 74 74 44 39 38 45 50 56 46 38 50 38 34 34 31 29 29 35 44 44 51 48 34 34 31 36 39 40 44 40 38 44 38 36 34 40 47 42 46 42 48 36
87 100 98 63 91 99 80 74 79 62 50 48 45 57 61 38 44 46 34 30 34 38 36 37 47 37 54 55 42 31 32 45 49 50 42 36 35 36 38 43 46 43 44 44 45 51 50 44 45
73 59 71 82 96 100 92 73 68 74 93 80 68 81 61 51 37 34 34 36 36 33 33 32 39 42 39 39 32 35 34 51 56 70 58 48 43 36 35 62 74 61 61 60 55 52 54 50 46
64 58 68 95 100 92 85 84 72 70 90 95 69 68 70 49 45 43 44 43 38 43 50 56 43 39 40 40 41 39 63 73 86 78 63 48 40 43 43 40 65 77 82 78 85 61 60 46 57
76 62 57 100 100 100 88 99 99 86 88 77 70 68 57 58 56 52 52 54 50 47 47 60 58 47 46 44 48 56 75 75 83 66 45 40 48 50 48 48 43 45 86 94 75 80 76 50 57
80 89 100 95 100 98 92 99 100 76 91 76 97 80 73 55 47 49 44 44 48 51 62 65 73 58 55 53 51 47 64 95 90 53 52 50 52 60 64 60 53 52 55 49 46 48 50 68 53
85 67 100 100 100 89 88 90 93 100 100 99 95 89 75 60 50 38 32 37 42 52 51 55 59 59 66 66 60 59 99 100 81 64 57 61 70 68 58 63 75 64 67 69 52 45 42 43 46
88 99 100 99 100 100 100 100 99 85 82 94 87 82 72 65 58 44 38 31 49 42 51 50 58 62 67 68 91 100 88 80 85 77 60 74 58 60 69 70 89 84 77 76 70 56 53 61 68
100 100 66 52 52 63 74 79 78 69 85 90 83 69 67 66 62 50 39 38 32 48 46 53 57 54 54 68 79 86 76 85 99 96 90 92 86 71 66 79 75 81 99 90 84 81 63 74 67
80 100 100 99 88 69 51 42 39 50 57 49 70 72 72 65 54 49 46 40 39 44 50 60 65 63 52 50 55 94 100 100 98 88 100 100 100 95 74 78 86 87 100 92 63 62 64 66 67
41 30 47 100 90 93 100 87 75 58 53 50 43 49 63 64 53 54 45 41 42 41 45 57 58 60 67 66 64 74 76 90 92 98 90 100 100 100 100 100 100 86 65 67 59 50 52 74 71
44 43 31 36 61 90 91 81 79 61 59 80 57 42 45 52 55 42 54 50 45 46 43 51 71 79 79 72 61 57 66 81 93 100 100 100 100 100 100 100 100 97 70 69 60 52 49 67 65
51 47 52 43 40 70 87 90 80 60 55 57 44 39 34 36 45 43 42 47 52 51 48 46 53 62 78 75 72 76 84 88 95 97 100 100 100 100 100 100 100 100 69 68 59 57 58 75 66
65 49 52 44 47 38 41 54 82 79 63 55 52 46 40 41 47 45 42 40 43 50 51 54 53 54 58 62 59 72 80 89 91 100 100 100 97 95 99 100 93 82 54 57 63 51 65 86 88
47 51 61 48 54 42 37 41 56 76 67 60 53 45 48 47 49 47 43 40 38 41 43 46 49 45 47 50 58 59 68 74 66 72 84 82 96 100 88 85 71 68 51 62 55 65 66 88 83
39 26 41 51 54 48 43 41 49 53 58 58 56 48 45 50 60 52 48 43 39 39 47 50 45 51 55 67 86 86 84 78 83 100 100 100 98 84 67 54 47 33 40 41 37 67 58 71 83
24 23 25 34 37 41 42 43 52 52 59 61 57 48 50 47 56 65 56 52 44 45 44 41 47 66 79 75 70 65 68 82 90 85 66 66 64 56 59 46 30 28 25 25 29 47 52 55 68
12 14 18 17 22 38 36 34 45 55 49 51 53 53 53 48 47 46 55 65 64 48 41 39 45 61 65 57 46 44 52 58 46 40 36 37 25 29 36 30 26 19 16 26 31 46 43 51 59
9 11 12 14 18 26 30 29 35 44 48 48 46 47 49 48 45 41 39 51 52 50 46 42 46 57 43 48 48 46 47 41 30 23 19 23 23 16 14 13 14 13 20 27 36 57 47 51 68
8 8 12 17 19 19 30 29 35 36 40 45 44 44 49 52 48 42 42 50 49 54 51 49 48 44 38 39 38 38 32 20 14 12 12 12 19 13 12 11 11 16 24 38 66 100 65 59 68
13 16 27 30 28 34 56 39 93 41 29 34 38 46 44 44 37 42 43 48 55 53 51 53 51 44 39 42 42 35 22 14 11 11 11 24 46 16 10 12 14 50 27 58 92 93 100 80 66
13 14 30 68 93 54 91 61 69 46 32 48 47 42 37 32 32 45 47 48 52 54 57 57 49 45 37 41 37 25 15 14 12 12 10 21 43 15 11 31 32 43 77 100 65 78 100 97 100
16 28 47 96 89 100 100 100 100 80 73 74 58 47 40 39 46 49 45 48 57 59 64 58 54 47 36 40 32 20 16 14 12 15 12 38 43 23 29 36 28 80 100 79 80 90 93 100 100
21 36 52 100 100 100 100 100 100 85 65 50 54 56 64 61 53 49 57 63 62 64 63 59 48 42 40 36 23 20 16 17 56 76 55 52 48 24 28 45 45 100 100 100 100 100 100 100 100
27 21 42 82 100 100 100 100 100 100 83 76 81 65 70 74 66 54 62 61 60 61 66 61 43 41 42 26 24 19 27 35 90 81 75 64 57 30 56 57 81 100 100 100 100 99 93 83 87
24 27 47 76 90 100 100 100 100 100 78 78 69 74 76 70 82 83 76 63 68 72 62 50 43 42 32 28 21 38 53 55 89 98 81 73 43 45 64 71 100 100 100 93 98 100 99 99 100

GFSSGP_250_rhum_108.txt.gz
RH
85 98 100 96 98 100 98 84 49 45 25 39 31 29 23 24 21 24 25 20 17 18 17 16 16 17 17 18 20 21 19 20 20 20 19 20 20 20 21 24 27 26 26 27 25 22 20 22 23
100 82 83 100 100 89 81 66 51 52 56 54 32 30 26 26 27 30 34 31 28 24 20 21 21 22 22 24 24 27 25 26 27 26 24 23 24 26 25 24 24 27 27 28 27 33 30 29 25
72 96 76 77 100 100 100 76 42 50 56 61 49 33 29 29 33 26 38 27 30 29 26 24 23 24 24 24 24 29 29 33 32 29 30 27 28 35 33 32 27 27 29 29 32 37 50 47 41
67 64 93 75 96 92 100 100 86 94 64 60 64 56 34 39 36 34 35 28 30 35 34 31 29 30 29 28 27 31 32 37 38 32 30 28 30 29 31 32 34 34 36 33 32 33 38 48 55
64 56 69 69 90 100 100 100 72 97 84 62 68 63 56 50 41 45 51 47 39 33 38 43 41 38 37 33 30 36 40 38 41 35 30 34 42 46 48 42 34 31 29 32 43 40 41 47 44
65 43 39 46 73 96 93 91 90 60 72 63 67 73 88 64 53 55 51 54 44 33 38 43 42 40 35 32 36 34 41 40 36 30 32 39 45 57 67 51 42 34 32 32 33 38 54 64 64
27 51 38 36 40 95 82 64 46 74 74 66 54 76 82 64 63 100 94 72 80 43 37 40 41 37 40 42 42 40 37 36 37 33 34 55 62 76 71 53 38 40 41 39 33 42 73 73 74
23 23 32 40 41 43 64 64 50 100 69 61 60 76 84 91 100 99 75 67 60 44 45 43 41 45 47 47 45 51 48 43 41 43 44 52 57 82 61 46 44 45 52 48 38 38 40 61 60
28 21 19 34 34 50 80 62 97 93 78 95 75 87 74 71 69 71 71 72 61 61 52 48 40 38 47 59 66 74 65 49 43 48 50 46 60 63 52 56 48 56 58 47 44 40 44 42 56
48 44 31 31 35 39 44 52 58 70 79 94 78 100 80 68 62 61 68 73 70 49 42 36 30 32 39 42 58 73 62 59 58 62 56 52 93 97 70 57 53 60 61 63 55 47 47 45 45
81 70 90 98 86 54 66 95 83 87 71 53 62 86 100 100 100 100 100 89 77 60 58 52 42 31 32 41 46 59 55 47 55 60 89 100 100 75 59 80 63 76 76 76 62 50 47 53 59
100 100 100 100 100 100 100 100 100 100 100 89 78 70 60 38 52 89 97 90 72 71 63 55 48 38 31 30 39 74 69 74 97 98 88 61 62 75 100 95 68 100 93 73 78 57 51 59 74
97 94 100 88 95 100 100 100 99 78 68 44 63 93 79 72 67 37 63 73 73 63 66 55 47 58 56 57 64 85 87 97 100 92 94 88 100 100 100 87 78 76 67 99 95 82 60 67 66
100 100 97 100 100 100 96 88 79 83 98 91 75 51 51 36 43 42 39 45 48 51 51 55 45 46 39 41 43 59 74 83 100 100 99 99 87 77 88 87 64 87 100 100 100 89 84 75 68
26 29 26 65 100 90 84 64 60 73 83 61 94 100 97 88 67 57 51 46 44 32 38 51 52 42 48 45 46 47 56 55 64 100 76 67 62 57 78 100 100 94 85 100 91 75 100 93 68
31 27 26 30 34 44 81 72 72 61 55 48 54 72 78 60 84 80 73 63 47 42 36 41 47 40 40 45 46 44 50 52 54 61 63 70 75 93 100 91 98 100 100 100 79 82 91 71 67
46 36 36 33 40 44 55 39 67 78 65 72 56 62 67 65 79 70 69 74 59 48 41 33 39 45 43 39 39 44 46 48 55 58 64 65 82 82 95 94 100 100 94 83 93 70 63 48 64
60 51 49 49 46 39 42 43 48 62 78 66 50 70 60 67 72 68 66 79 66 58 46 40 40 45 41 39 39 43 44 45 45 47 51 48 63 72 75 83 82 100 91 86 71 49 58 66 60
67 68 66 55 57 54 49 47 44 43 60 55 58 81 61 52 47 49 56 76 71 54 48 45 46 50 49 42 40 38 37 39 41 40 43 44 52 64 63 61 66 87 89 85 100 97 62 75 47
79 73 58 58 59 62 43 42 43 41 40 46 48 57 70 62 54 47 53 63 60 55 51 46 43 47 51 51 43 39 37 37 36 46 61 64 77 69 74 76 58 48 66 100 100 99 100 75 68
57 54 62 34 26 24 17 20 30 17 24 33 38 47 59 64 58 53 60 61 58 58 54 48 47 45 43 49 51 51 51 46 38 37 39 59 61 58 45 39 32 25 70 100 95 95 94 84 47
27 30 21 16 13 9 11 8 12 14 20 24 31 36 30 43 61 60 58 60 58 62 60 55 51 45 43 43 38 38 46 45 41 43 51 47 36 32 39 30 25 21 37 93 100 90 88 88 68
14 16 11 9 8 8 8 7 12 18 18 19 22 25 19 24 32 52 59 52 54 55 56 55 48 48 48 45 40 40 39 41 44 43 41 40 29 31 29 30 29 26 29 20 23 45 72 100 53
14 10 8 7 7 5 8 9 13 20 18 26 26 16 17 19 32 40 39 37 44 54 51 47 43 42 41 41 42 42 40 46 46 42 37 33 26 21 47 72 78 31 19 15 22 91 100 96 34
12 9 9 9 9 8 8 10 12 36 26 45 28 31 27 31 38 40 40 37 35 43 46 46 42 38 41 39 41 35 36 41 37 35 30 24 19 14 100 97 97 79 27 16 39 89 100 94 26
12 10 12 10 10 10 16 20 46 68 93 64 60 68 52 51 43 40 44 41 37 43 40 41 42 40 41 40 40 31 35 38 38 32 23 19 13 22 100 97 95 75 39 12 36 76 90 56 37
13 18 13 13 16 13 36 81 100 100 100 100 100 100 85 88 88 44 48 61 61 43 48 54 48 47 46 49 44 32 35 39 36 26 20 15 13 12 49 69 58 59 15 10 53 61 82 90 60
17 22 21 22 27 22 38 96 100 100 100 100 100 100 100 100 92 85 79 66 49 41 48 53 74 72 56 48 37 36 36 41 34 22 18 28 56 40 47 64 57 21 20 30 48 68 70 56 58
20 35 27 29 43 34 46 98 100 100 100 100 100 100 100 100 98 60 57 65 63 66 71 69 76 70 47 41 40 36 42 40 28 19 23 95 71 81 77 64 54 29 61 52 49 80 73 80 96
25 34 46 50 68 47 60 100 100 100 100 100 78 81 100 100 100 87 92 85 99 89 79 78 87 80 56 51 45 44 49 39 24 24 29 64 71 62 94 88 77 47 78 75 81 100 79 79 100

GFSSGP_250_rhum_111.txt.gz
RH
99 100 68 62 100 97 100 89 80 46 42 49 56 55 55 27 24 21 27 21 22 22 17 20 16 15 16 16 15 15 14 15 18 20 19 21 20 19 21 22 20 18 17 17 16 16 16 16 17
56 60 97 99 95 83 94 69 66 78 99 99 52 41 55 51 27 25 26 23 26 27 23 24 23 23 22 22 22 23 21 22 23 24 27 29 24 25 25 24 23 23 23 22 20 20 19 18 19
59 53 54 32 37 89 73 79 68 78 90 100 97 76 56 46 61 40 31 27 26 28 26 26 26 27 27 27 30 31 30 29 30 31 33 38 33 30 28 26 25 26 34 29 26 26 27 26 23
29 42 43 52 32 67 71 68 44 44 97 100 100 100 100 85 54 68 65 28 28 36 40 37 31 31 32 32 34 36 37 34 34 36 36 35 39 37 32 32 41 40 43 35 31 29 25 26 35
70 33 32 36 28 30 63 62 43 34 64 97 86 95 72 81 58 94 98 44 35 37 49 53 52 36 30 28 30 31 30 31 30 31 41 38 41 33 29 42 50 56 49 49 43 34 31 26 27
30 44 22 29 36 34 30 43 39 33 35 50 59 76 73 65 80 79 95 93 59 46 54 60 60 52 36 33 37 37 34 35 36 34 33 34 35 35 35 39 50 67 57 55 40 38 39 38 32
38 19 25 33 42 30 28 22 25 30 33 35 36 37 62 75 52 100 100 86 73 82 74 66 60 48 40 41 40 38 41 42 42 44 47 48 45 42 42 47 64 66 62 54 42 42 48 48 36
27 19 35 30 21 22 26 24 18 24 46 35 32 53 56 57 55 81 98 100 100 95 98 67 56 53 50 50 48 40 35 36 38 46 50 55 55 43 47 54 68 80 86 79 53 47 51 55 48
31 24 24 19 18 29 33 29 24 24 25 34 40 29 55 46 45 53 100 96 81 86 69 69 66 63 58 43 36 33 33 34 37 42 49 60 61 56 58 61 55 88 100 77 74 68 55 59 49
47 39 63 64 74 66 78 57 46 38 44 37 36 41 48 31 36 54 61 62 76 55 81 57 65 72 70 57 54 56 49 42 40 43 46 57 52 49 48 58 83 100 89 73 100 76 98 72 51
95 100 100 100 100 97 100 99 97 86 73 94 61 54 81 64 92 40 50 99 98 67 87 100 100 99 86 77 80 75 59 47 37 33 40 58 60 69 78 87 73 57 61 96 100 83 99 63 65
100 100 100 100 100 100 100 100 100 100 100 100 100 100 100 100 96 88 78 58 58 72 45 66 62 52 55 56 81 78 75 82 72 62 66 84 94 100 100 100 85 79 100 100 100 81 68 72 100
86 76 61 44 43 81 91 91 100 100 100 100 100 100 100 94 93 98 100 100 96 79 52 55 58 45 42 45 43 48 56 53 66 73 66 92 100 100 100 100 97 100 90 77 61 52 89 98 84
34 29 28 28 25 29 45 46 53 94 100 100 100 95 100 97 77 66 66 69 67 96 66 51 50 64 61 54 42 34 46 61 65 74 59 81 100 100 98 100 100 79 52 52 54 99 91 62 99
37 41 44 39 43 34 48 32 35 37 58 59 63 78 88 96 91 87 61 54 50 64 100 100 98 89 77 64 55 42 47 40 51 52 65 77 93 100 100 95 54 81 63 52 46 50 69 60 78
74 62 50 52 50 50 64 34 56 51 36 28 31 35 44 66 48 75 100 79 62 51 47 57 58 54 62 73 66 53 36 36 46 41 44 53 72 84 100 78 76 56 61 52 43 40 51 53 51
82 63 53 43 55 73 100 67 72 70 61 52 57 52 50 44 41 50 58 84 82 82 72 69 56 59 58 45 63 56 45 36 42 42 46 56 46 43 61 55 51 45 48 47 59 61 60 53 49
60 57 51 43 65 100 100 100 80 87 88 87 87 73 59 55 60 44 56 91 88 94 80 76 68 54 56 49 42 50 50 39 41 42 40 36 48 56 53 69 75 74 65 70 62 64 51 39 52
52 48 43 48 55 58 69 78 54 69 100 81 79 88 82 73 51 38 50 53 87 90 75 74 75 58 62 53 50 49 51 47 48 48 47 42 41 40 42 42 41 48 38 38 34 42 60 55 85
59 55 47 40 41 53 42 42 51 76 87 73 61 60 63 66 70 46 44 53 46 68 64 68 80 73 66 65 63 63 54 50 45 41 38 37 36 34 33 38 40 36 38 51 63 62 77 100 100
50 45 30 24 25 29 41 26 25 28 30 29 26 28 30 28 28 29 38 44 47 55 56 71 78 75 70 64 64 64 60 56 51 45 41 40 40 36 35 37 42 43 38 68 68 67 99 100 100
41 36 24 22 21 22 24 14 14 13 12 11 15 20 16 12 10 13 24 51 57 40 38 41 43 68 71 65 65 65 64 62 55 52 45 40 38 38 36 32 27 50 63 62 73 71 100 100 100
42 28 28 24 21 13 15 16 10 9 8 8 10 14 12 8 10 15 29 34 29 36 41 37 43 47 63 75 70 60 57 56 58 51 42 37 38 35 33 30 28 30 55 70 69 81 90 100 100
44 38 42 34 15 11 12 12 9 8 7 7 8 10 10 9 9 13 20 24 24 31 32 33 37 39 41 49 56 51 51 49 51 48 44 37 38 35 31 28 27 32 29 68 82 98 86 57 68
44 53 41 21 18 13 10 9 8 10 8 8 8 8 8 13 13 15 18 18 23 28 29 29 31 42 45 41 54 46 37 40 44 45 43 39 35 31 34 29 28 27 21 29 91 100 100 100 100
57 69 25 19 18 10 10 11 13 12 13 13 19 25 19 20 26 38 41 35 26 29 29 36 54 58 61 57 53 53 42 37 38 44 40 34 31 29 34 32 26 17 22 54 77 79 88 95 100
86 48 30 20 14 9 11 20 21 30 53 100 100 76 81 95 100 86 62 94 76 72 60 61 61 66 65 58 54 46 39 43 47 44 42 37 28 29 35 29 18 14 97 81 61 89 100 100 100
60 34 23 15 14 13 13 35 36 52 100 100 100 100 94 97 69 97 99 100 100 100 89 78 64 50 46 56 54 54 63 44 47 50 38 36 29 32 34 23 15 17 100 96 85 86 97 100 100
44 23 17 13 14 15 20 40 67 77 100 100 100 100 94 96 98 81 98 100 89 87 78 70 59 56 67 84 89 93 78 62 56 49 38 29 35 31 23 66 30 65 100 100 93 98 93 84 77
21 19 17 16 18 24 28 33 87 93 78 63 100 100 100 100 96 90 89 91 78 81 85 91 93 94 96 88 89 86 90 73 51 35 33 31 34 26 28 99 88 100 100 100 100 98 64 32 94

GFSSGP_250_rhum_114.txt.gz
RH
74 55 26 27 32 47 55 54 38 50 63 69 60 99 100 67 53 36 39 34 22 22 20 20 17 15 16 17 16 16 17 17 17 17 18 19 21 22 19 20 19 20 23 20 21 22 21 19 19
28 54 57 52 53 35 30 43 47 30 49 52 53 65 89 69 77 64 51 45 44 35 25 22 22 20 19 20 21 22 22 22 22 22 24 25 25 26 26 25 24 29 28 26 29 31 29 29 26
29 38 52 49 31 29 41 31 38 25 38 46 58 58 76 67 98 100 95 68 65 43 36 29 26 27 26 24 24 27 29 30 30 30 31 32 31 29 29 30 32 35 31 32 38 37 38 37 34
70 77 76 38 25 21 33 26 28 26 25 39 50 58 84 84 71 100 100 94 65 47 50 46 36 36 38 38 30 26 25 25 28 29 30 30 29 29 29 32 36 36 34 36 41 41 45 40 37
100 100 87 40 23 25 27 23 24 22 23 27 38 41 44 67 66 76 70 49 55 69 74 64 62 46 42 44 43 38 31 30 35 36 34 35 34 31 32 32 36 38 36 35 41 47 57 53 43
100 86 93 75 56 35 30 22 20 17 18 30 29 30 36 42 90 100 77 58 54 57 70 75 85 71 48 42 42 47 40 39 38 35 36 36 38 39 36 36 39 38 41 47 51 59 73 74 56
29 28 30 44 40 26 23 18 20 17 19 20 22 26 35 30 38 68 86 65 52 53 61 78 83 63 60 53 57 60 48 46 49 44 34 30 33 36 38 38 39 43 46 57 62 71 69 91 68
26 30 33 25 25 45 31 27 27 29 28 35 20 20 23 27 36 54 60 66 63 46 51 73 75 68 70 72 60 56 54 53 46 36 34 39 37 36 35 38 47 53 52 60 65 57 84 86 82
27 36 39 22 36 51 38 61 61 67 76 88 61 29 29 26 31 38 52 68 63 54 48 53 79 86 83 72 70 63 61 58 47 52 58 56 45 41 40 37 43 49 54 61 64 77 100 69 93
35 51 42 38 32 27 49 83 100 60 67 100 98 77 46 32 34 64 51 66 48 45 41 45 38 70 70 63 66 84 88 83 75 72 74 68 58 45 36 37 48 52 56 71 80 98 69 56 99
57 73 68 69 88 96 98 100 100 97 85 80 96 100 100 80 39 37 95 98 68 38 46 70 72 70 73 93 84 63 56 51 50 56 69 61 60 68 67 58 64 77 73 81 99 95 81 100 91
92 92 94 100 100 86 96 99 98 76 58 43 77 93 100 100 87 70 77 94 100 96 89 88 100 100 100 100 80 57 50 46 43 38 38 43 48 48 61 69 62 72 76 82 100 100 100 100 86
100 100 100 100 87 67 48 40 33 31 37 39 33 41 69 92 98 100 98 96 100 100 100 100 100 100 100 97 98 92 70 55 55 65 56 59 80 70 87 86 74 96 92 84 81 94 95 86 57
91 88 91 94 96 71 57 70 48 48 46 44 42 44 39 64 65 67 100 100 100 100 100 96 99 98 95 81 96 100 90 81 86 98 82 84 81 81 100 100 100 100 100 100 100 88 86 68 60
96 91 100 93 95 89 72 46 76 70 54 43 47 41 33 71 66 51 64 84 79 98 100 100 100 100 97 72 86 92 88 78 98 100 89 76 86 100 100 100 100 100 97 83 95 77 55 56 60
59 56 65 96 97 86 70 36 48 50 50 48 50 44 81 100 100 80 53 59 59 53 62 100 100 100 100 84 71 68 68 63 56 50 57 78 83 65 84 100 100 100 100 88 100 90 62 46 34
39 40 41 42 46 48 44 40 38 41 41 44 52 70 69 95 100 100 73 62 58 61 50 54 97 100 79 74 94 92 86 57 49 42 48 54 55 64 56 59 82 98 100 100 100 100 98 80 65
51 50 49 45 45 55 50 42 42 37 30 34 42 49 53 87 91 100 99 80 86 67 66 57 68 90 83 86 71 81 87 62 56 44 45 41 41 42 50 30 36 47 67 74 97 100 99 86 94
53 47 48 61 60 56 62 44 35 44 50 42 33 27 35 50 71 59 85 100 100 93 89 74 63 67 78 70 77 82 80 66 64 60 53 41 47 44 42 33 41 31 24 47 52 58 82 78 100
51 51 50 52 65 69 62 46 48 49 37 41 27 20 22 28 37 20 32 64 88 100 99 89 74 63 64 76 83 74 71 60 54 69 63 53 45 44 45 46 41 40 37 34 44 65 72 74 70
65 69 68 60 76 77 56 44 46 37 27 23 18 14 14 14 14 13 17 23 41 60 72 96 81 67 59 56 55 56 53 54 51 56 65 63 52 51 48 48 46 41 34 30 28 35 62 86 94
84 81 69 65 56 51 51 36 35 28 23 14 10 9 9 11 10 10 11 11 16 23 34 56 95 65 66 57 54 55 54 53 52 53 56 69 62 57 50 50 50 43 37 30 26 22 57 84 100
77 87 81 67 54 33 46 40 24 20 17 16 11 10 10 10 10 8 9 12 12 14 19 25 33 42 51 61 63 60 61 56 60 70 68 69 67 65 58 48 50 46 44 39 30 26 26 61 83
82 70 71 63 50 37 37 38 20 16 19 15 10 9 9 8 11 10 10 10 14 17 15 17 26 37 47 53 64 70 72 64 52 62 64 63 63 60 56 51 44 45 41 39 34 27 25 27 37
80 70 84 57 41 42 37 27 26 22 19 15 11 9 8 9 8 8 10 10 12 14 15 16 18 21 27 35 52 57 56 49 48 56 50 54 60 47 50 46 41 40 35 28 31 26 26 28 25
76 68 56 38 44 37 37 33 30 21 16 13 11 12 10 10 10 12 13 13 12 14 11 14 16 20 21 24 29 33 34 42 47 51 46 46 52 49 46 41 36 36 33 25 27 26 27 31 19
57 48 42 41 42 34 35 36 23 20 13 15 25 22 18 18 28 67 67 46 66 56 25 30 28 35 37 39 29 39 40 44 51 48 44 51 41 47 45 39 36 40 33 30 29 27 22 17 15
48 44 50 52 46 37 36 25 20 18 14 24 46 50 71 62 82 84 94 84 82 91 91 88 79 79 70 69 52 47 68 48 52 49 36 61 52 41 47 55 56 32 32 33 31 25 15 14 21
50 48 54 66 47 30 32 17 17 17 25 50 63 100 100 100 100 100 100 81 100 95 100 100 100 95 89 100 87 94 70 63 56 60 65 74 84 73 64 55 42 33 31 36 32 28 20 68 86
56 73 59 47 32 28 18 14 16 22 53 61 83 60 100 100 100 100 64 82 91 82 96 100 100 100 100 100 96 92 92 86 87 74 74 80 73 65 59 49 35 30 32 39 76 73 100 100 100

GFSSGP_250_rhum_117.txt.gz
RH
87 95 99 91 80 63 41 32 33 29 20 24 32 29 44 66 64 51 56 58 40 36 37 30 20 19 20 20 18 20 19 18 18 17 15 17 20 21 21 22 22 22 23 23 25 25 24 24 25
48 74 98 82 94 90 68 57 45 30 18 18 24 28 36 57 78 62 76 73 69 63 47 31 22 25 22 21 20 19 22 23 24 23 23 22 23 24 25 24 25 23 26 27 30 28 27 26 26
79 100 100 91 92 97 98 65 37 20 18 17 18 26 24 47 51 57 91 90 73 81 86 63 43 34 31 27 24 25 23 23 24 23 23 23 24 26 26 26 26 26 27 27 28 30 30 32 32
27 43 93 100 100 100 98 75 58 34 25 16 28 26 23 28 42 47 76 100 84 52 58 67 50 40 37 36 30 31 32 31 30 28 28 30 31 31 29 29 29 29 30 28 29 34 34 34 34
43 70 77 100 96 68 49 48 39 38 26 20 23 26 25 27 34 39 42 61 86 74 59 46 52 50 39 40 41 38 35 39 41 38 34 36 36 34 33 32 32 34 34 34 35 36 35 34 38
91 75 98 89 78 43 32 25 28 28 20 17 20 20 24 36 35 28 35 38 50 71 72 53 37 52 54 47 52 49 43 40 43 46 41 41 45 41 32 30 32 33 36 34 36 38 37 36 42
58 84 62 60 56 42 27 28 23 20 20 20 22 27 34 34 47 27 40 46 40 38 49 42 47 45 58 52 52 60 63 57 52 53 46 42 43 44 34 39 43 37 34 36 34 36 37 38 47
69 61 62 47 43 44 30 30 28 34 29 24 20 22 35 43 36 32 56 60 45 44 38 48 44 54 57 60 58 60 75 77 62 58 50 50 51 41 48 53 48 40 38 36 36 39 43 41 41
73 66 52 47 49 51 37 35 32 36 30 23 21 21 28 62 96 54 38 55 75 48 55 54 62 78 72 60 65 91 89 83 69 60 58 65 58 57 64 59 57 54 44 37 39 53 51 54 60
50 59 60 56 49 50 38 32 43 48 62 70 59 58 58 59 29 37 88 80 100 94 66 62 50 59 59 72 70 68 72 78 76 78 87 94 68 48 48 57 53 53 60 59 54 63 72 71 74
50 95 83 74 54 43 66 81 74 100 100 100 100 99 79 68 67 69 30 41 91 100 100 100 97 77 78 84 84 87 89 93 94 100 82 52 44 39 34 36 37 41 45 50 61 66 74 79 80
84 100 79 67 73 85 100 100 100 100 100 98 74 62 58 46 45 44 37 60 31 50 100 100 100 100 100 100 99 98 100 100 100 99 79 74 63 49 50 62 60 58 62 77 76 72 73 76 82
94 81 78 92 100 90 67 64 78 88 96 74 68 68 64 68 48 28 38 32 34 75 67 65 100 100 100 100 97 100 100 95 100 100 99 100 86 80 77 97 90 78 64 88 82 93 95 89 89
86 90 96 91 76 70 63 55 41 52 56 60 65 86 78 64 52 50 38 32 34 30 36 89 96 100 100 100 100 93 100 95 92 93 91 99 96 98 100 100 83 76 60 74 99 100 100 100 99
97 89 72 86 99 82 63 78 58 43 50 63 67 66 59 59 58 51 43 31 24 28 32 73 73 100 100 100 100 100 99 100 87 83 78 90 97 100 100 82 64 68 94 89 100 100 93 94 100
93 93 100 100 100 89 69 47 40 46 46 45 42 43 51 74 67 54 45 39 29 29 32 67 84 68 99 100 97 100 100 100 100 80 76 83 69 98 99 100 100 100 92 89 100 100 97 100 100
86 100 100 100 97 84 70 62 58 51 45 48 51 53 53 48 48 46 51 47 43 33 30 53 95 96 77 73 62 66 97 100 100 100 75 65 70 74 76 89 100 100 82 92 100 100 100 98 89
90 90 91 96 87 74 68 59 53 44 40 40 48 50 50 56 50 47 43 42 45 43 42 30 74 100 100 91 75 78 70 100 100 100 99 80 53 45 49 56 70 78 64 65 99 100 90 74 100
100 97 91 98 90 76 67 54 52 41 40 41 46 52 44 40 40 37 31 28 28 30 33 41 44 89 100 100 99 81 75 70 82 87 90 89 70 58 41 37 49 68 70 60 77 71 86 78 100
100 100 100 91 82 72 68 54 52 46 47 58 59 53 44 38 28 24 19 17 16 16 18 22 36 42 93 100 100 88 77 76 81 96 90 90 91 76 60 39 39 39 33 38 50 62 64 69 79
100 94 90 92 86 81 59 53 60 72 53 55 57 60 48 33 20 15 11 10 9 10 11 13 18 34 38 55 78 72 82 77 73 72 73 85 90 89 72 54 46 40 40 35 32 35 31 26 45
81 82 80 78 75 75 68 53 77 57 58 60 57 43 33 19 13 10 8 8 9 10 12 12 15 18 25 34 32 44 60 64 62 77 68 61 60 61 60 46 48 50 40 36 36 34 34 32 29
94 100 91 80 74 72 75 62 48 41 41 34 35 26 18 16 12 9 9 8 9 10 11 12 14 18 26 32 31 34 45 49 56 67 73 62 56 51 48 47 48 56 63 51 46 42 34 34 26
100 96 81 74 76 56 55 72 51 55 42 27 25 22 17 14 14 11 9 8 9 10 11 15 13 17 20 24 27 33 42 49 54 70 74 64 72 60 52 56 57 55 64 66 54 54 41 42 31
72 70 66 68 66 67 58 52 75 41 31 24 26 21 17 19 16 12 9 8 8 10 13 16 16 16 17 22 24 31 49 59 88 63 86 72 70 74 77 68 62 68 58 57 49 54 51 42 35
81 79 82 71 74 65 53 51 54 36 22 24 37 25 23 19 15 11 9 10 11 14 16 16 13 14 15 16 21 28 34 41 57 64 86 69 72 67 66 75 64 75 59 48 54 46 45 39 35
84 83 83 74 68 65 50 38 32 31 24 31 41 32 20 21 17 14 13 23 16 34 26 20 23 26 27 20 18 22 28 31 36 42 51 58 52 56 57 58 66 60 54 50 46 39 35 34 37
96 68 78 86 69 56 34 31 38 31 30 37 42 24 20 20 24 37 73 74 67 100 84 67 54 67 52 33 30 25 25 28 33 34 31 31 37 40 42 49 44 40 42 44 39 33 38 28 35
66 56 61 68 64 37 29 36 40 38 32 41 30 21 39 44 34 27 29 65 90 87 100 100 86 81 74 68 48 49 81 75 69 73 48 43 50 46 51 51 50 44 56 48 41 44 46 36 39
51 41 42 44 37 33 38 39 53 36 32 25 22 21 44 58 66 43 68 56 100 100 100 93 99 94 95 94 95 88 78 76 78 100 75 79 83 62 70 80 75 74 62 66 60 50 45 48 37

GFSSGP_250_rhum_120.txt.gz
RH
32 34 35 59 80 100 100 82 45 56 56 46 34 24 19 26 24 22 25 27 45 50 58 53 41 39 36 28 20 20 19 20 20 21 22 22 20 19 18 18 20 19 18 19 17 16 16 18 18
32 28 26 56 82 71 89 87 64 78 78 62 45 31 22 18 24 30 24 24 35 38 40 51 56 84 64 45 28 24 24 23 21 24 23 23 23 23 21 19 20 22 21 20 20 20 20 22 22
65 63 42 45 40 39 39 84 99 96 73 51 50 39 27 20 34 32 26 24 28 39 36 46 61 64 56 39 41 36 31 28 26 25 24 22 22 23 24 23 24 24 24 24 23 24 26 27 28
40 35 48 67 85 47 48 47 81 87 54 30 44 41 30 23 21 38 33 25 24 34 43 48 58 56 46 45 39 36 37 40 30 30 32 29 26 25 25 27 28 27 27 27 25 26 27 27 31
58 40 30 32 69 83 53 89 90 64 58 28 24 23 26 22 22 33 40 32 33 34 38 39 51 69 59 55 45 42 41 42 57 44 41 45 40 34 29 30 31 30 30 31 32 30 28 27 29
27 27 57 54 36 33 40 48 44 42 34 28 24 22 26 36 32 41 53 34 33 28 24 30 36 45 82 82 51 45 58 54 59 76 58 49 53 44 39 35 38 37 32 33 36 35 31 30 27
25 32 37 52 54 50 44 54 56 45 36 28 23 27 34 28 25 32 58 45 38 46 34 32 40 39 47 75 63 68 68 67 56 72 87 76 65 61 55 46 47 42 38 40 44 38 35 32 28
74 88 97 78 81 79 69 50 48 42 29 23 30 30 39 33 27 26 33 45 57 43 40 44 52 51 61 59 57 78 78 75 63 61 86 85 74 66 61 59 54 50 47 51 47 43 38 35 34
62 65 94 90 82 66 48 40 42 43 45 39 29 34 38 34 29 31 36 48 51 58 58 56 56 68 92 92 90 88 87 84 76 78 97 94 82 74 73 69 68 68 50 44 44 42 36 32 37
57 85 62 68 69 52 42 45 55 58 47 32 42 44 43 89 96 66 37 61 94 80 61 53 50 56 64 100 100 100 100 89 83 89 94 100 100 88 89 93 77 43 33 36 35 34 38 42 48
50 62 76 72 62 73 65 53 58 53 51 59 53 56 36 52 81 91 100 81 66 68 74 66 60 51 46 50 88 99 100 100 100 95 77 85 98 97 100 99 63 47 43 45 49 40 44 46 53
42 47 50 59 74 100 100 82 57 54 100 93 94 100 100 73 72 65 69 59 48 47 46 46 47 55 73 63 45 58 99 100 100 100 100 93 99 100 100 99 100 100 69 61 56 48 53 59 76
46 48 54 60 87 82 80 74 71 100 95 93 60 43 34 33 34 38 23 27 39 50 55 56 46 39 39 46 56 55 41 77 92 100 100 98 100 100 100 100 100 100 100 96 53 41 56 94 96
50 53 61 63 68 70 69 100 100 100 100 96 87 93 81 59 40 30 27 26 28 30 31 36 45 48 50 43 40 47 75 41 94 92 100 100 100 100 88 89 100 100 100 91 77 75 93 97 86
47 44 40 48 52 60 78 98 100 100 100 100 100 98 78 56 51 49 48 43 36 30 26 31 36 42 46 58 40 37 54 99 59 92 100 92 100 83 82 80 94 100 100 77 91 87 100 99 99
61 47 47 44 50 59 74 98 100 100 100 100 99 86 77 77 67 61 52 48 42 38 33 33 35 42 50 45 42 43 44 71 82 92 83 100 100 100 81 90 97 100 98 74 82 100 100 100 100
68 56 50 57 73 73 69 94 100 100 100 94 92 88 82 75 70 65 56 48 44 47 47 42 37 42 46 45 43 39 39 66 81 75 100 100 96 94 100 88 96 100 83 76 72 100 100 100 100
62 63 61 75 92 74 84 100 81 92 96 98 96 86 76 69 60 54 49 45 43 43 48 45 43 35 36 41 41 37 36 38 60 75 74 98 94 93 92 73 68 62 72 70 71 90 100 100 97
62 62 66 74 91 95 100 100 100 85 84 84 76 84 76 59 53 51 45 39 36 37 39 43 43 39 34 27 30 29 33 50 55 66 76 76 76 72 82 98 74 71 68 54 42 52 90 100 100
75 69 79 98 100 100 100 100 98 91 88 87 81 72 58 54 52 49 44 35 26 25 22 26 25 25 24 22 21 26 30 39 62 49 88 91 82 79 65 96 99 74 59 56 46 39 38 70 96
86 83 87 79 84 94 85 87 77 80 84 75 64 58 58 54 49 42 31 23 22 16 15 14 12 13 15 15 15 19 27 25 52 88 63 80 92 93 79 67 64 77 67 59 44 36 32 30 26
100 100 90 87 84 82 82 77 74 72 77 68 64 59 56 52 47 36 29 23 16 15 12 10 10 11 12 12 13 14 18 27 25 54 80 73 87 94 80 81 73 66 78 90 75 62 43 37 38
100 100 100 90 83 84 96 93 80 70 72 67 66 69 70 55 45 34 24 15 13 11 10 9 9 11 15 13 13 13 17 18 21 32 62 80 72 77 86 83 83 78 73 71 77 84 67 42 35
96 96 96 95 90 92 97 85 74 78 73 67 63 56 49 48 40 25 17 14 13 11 10 10 10 12 15 16 16 18 19 16 20 20 38 61 75 84 86 87 78 79 77 76 71 65 61 50 42
91 88 94 88 80 71 72 77 82 80 70 59 49 44 38 34 30 18 16 16 12 12 11 11 11 12 14 16 18 24 21 22 18 18 22 34 45 62 79 87 83 82 81 80 75 62 54 46 44
88 96 99 88 68 63 66 66 75 78 69 57 49 45 31 32 25 19 19 19 15 12 12 13 19 21 19 24 21 25 26 27 24 23 23 26 38 54 70 68 70 93 86 84 82 73 71 63 47
75 93 87 77 58 46 45 50 58 65 68 59 43 29 28 29 24 24 25 23 15 13 13 23 62 70 49 51 38 30 31 41 36 27 27 27 30 41 55 65 65 82 71 68 79 77 68 77 85
79 69 69 76 70 50 41 33 37 47 39 34 29 27 25 32 29 30 30 22 17 21 19 21 54 59 78 59 46 46 48 34 38 31 28 28 29 30 34 48 66 82 83 89 95 96 86 71 75
70 76 66 63 56 48 36 33 39 34 30 30 28 31 27 35 32 28 27 18 27 55 38 23 33 72 71 74 69 76 61 41 34 37 38 41 39 32 35 38 45 65 76 68 66 82 81 80 77
80 60 58 52 52 43 37 32 34 33 36 38 38 34 30 29 27 22 21 18 39 70 67 50 48 67 88 84 54 76 68 65 66 61 67 66 71 65 59 48 41 40 46 52 56 57 57 50 47